[[{"header":{"parameterUnit":"m.s-1","parameterCategory":1,"la1":30.6,"la2":29.2853,"lo1":-89.7004,"lo2":-87.6739,"dy":0.0162,"dx":0.0183,"nx":112,"ny":82,"refTime":"2026-03-11T00:00:00:Z","depth":0,"parameterNumber":2,"parameterNumberName":"U-component_of_WINDS"},"data":[0.0,0.0,0.0,0.0,0.0,0.0,0.0,0.0,0.0,0.0,0.0,0.0,0.0,0.0,0.0,0.0,0.0,0.0,0.0,0.0,0.0,0.0,0.0,0.0,0.0,0.0,0.0,0.0,0.0,0.0,0.0,0.0,0.0,0.0,0.0,0.0,0.0,0.0,0.0,0.0,0.0,0.0,0.0,0.0,0.0,0.0,0.0,0.0,0.0,0.0,0.0,0.0,0.0,0.0,0.0,0.0,0.0,0.0,0.0,0.0,0.0,0.0,0.0,0.0,0.0,0.0,0.0,0.0,0.0,0.0,0.0,0.0,0.0,0.0,0.0,0.0,0.0,0.0,0.0,0.0,0.0,0.0,0.0,0.0,0.0,0.0,0.0,0.0,0.0,0.0,0.0,2.9273,3.2581,3.486,3.5445,3.4198,3.1674,2.7642,0.0,0.0,0.0,0.0,0.0,0.0,0.0,0.0,0.0,0.0,0.0,0.0,0.0,0.0,0.0,0.0,0.0,0.0,0.0,0.0,0.0,0.0,0.0,0.0,0.0,0.0,0.0,0.0,0.0,0.0,0.0,0.0,0.0,0.0,0.0,0.0,0.0,0.0,0.0,0.0,0.0,0.0,0.0,0.0,0.0,0.0,0.0,0.0,0.0,0.0,0.0,0.0,0.0,0.0,0.0,0.0,0.0,0.0,0.0,0.0,0.0,0.0,0.0,0.0,0.0,0.0,0.0,0.0,0.0,0.0,0.0,0.0,0.0,0.0,0.0,0.0,0.0,0.0,0.0,0.0,0.0,0.0,0.0,0.0,0.0,0.0,0.0,0.0,0.0,0.0,0.0,0.0,0.0,0.0,0.0,0.0,0.0,0.0,0.0,0.0,0.0,0.0,0.0,0.0,2.8454,3.3843,3.4983,3.5383,3.5476,3.4198,3.1674,2.7642,0.0,0.0,0.0,0.0,0.0,0.0,0.0,0.0,0.0,0.0,0.0,0.0,0.0,0.0,0.0,0.0,0.0,0.0,0.0,0.0,0.0,0.0,0.0,0.0,0.0,0.0,0.0,0.0,0.0,0.0,0.0,0.0,0.0,0.0,0.0,0.0,0.0,0.0,0.0,0.0,0.0,0.0,0.0,0.0,0.0,0.0,0.0,0.0,0.0,0.0,0.0,0.0,0.0,0.0,0.0,0.0,0.0,0.0,0.0,0.0,0.0,0.0,0.0,0.0,0.0,0.0,0.0,0.0,0.0,0.0,0.0,0.0,0.0,0.0,0.0,0.0,0.0,0.0,0.0,0.0,0.0,0.0,0.0,0.0,0.0,0.0,0.0,0.0,0.0,0.0,0.0,0.0,0.0,0.0,0.0,0.0,0.0,0.0,0.0,0.0,0.0,0.0,0.0,2.7214,3.0035,3.5309,3.5891,3.6076,3.6538,3.4893,3.2132,2.8184,2.6907,0.0,0.0,0.0,0.0,0.0,0.0,0.0,0.0,0.0,0.0,0.0,0.0,0.0,0.0,0.0,0.0,0.0,0.0,0.0,0.0,0.0,0.0,0.0,0.0,0.0,0.0,0.0,0.0,0.0,0.0,0.0,0.0,0.0,0.0,0.0,0.0,0.0,0.0,0.0,0.0,0.0,0.0,0.0,0.0,0.0,0.0,0.0,0.0,0.0,0.0,0.0,0.0,0.0,0.0,0.0,0.0,0.0,0.0,0.0,0.0,0.0,0.0,0.0,0.0,0.0,0.0,0.0,0.0,0.0,0.0,0.0,0.0,0.0,0.0,0.0,0.0,0.0,0.0,0.0,0.0,0.0,0.0,0.0,0.0,0.0,0.0,0.0,0.0,0.0,0.0,0.0,0.0,0.0,0.0,0.0,0.0,0.0,0.0,0.0,0.0,0.0,0.0,3.005,3.1875,3.5493,3.5836,3.6174,3.7012,3.4683,3.1779,2.8517,2.6394,0.0,0.0,0.0,0.0,0.0,0.0,0.0,0.0,0.0,0.0,0.0,0.0,0.0,0.0,0.0,0.0,0.0,0.0,0.0,0.0,0.0,0.0,0.0,0.0,0.0,0.0,0.0,0.0,0.0,0.0,0.0,0.0,0.0,0.0,0.0,0.0,0.0,0.0,0.0,0.0,0.0,0.0,0.0,0.0,0.0,0.0,0.0,0.0,0.0,0.0,0.0,0.0,0.0,0.0,0.0,0.0,0.0,0.0,0.0,0.0,0.0,0.0,0.0,0.0,0.0,0.0,0.0,0.0,0.0,0.0,0.0,0.0,0.0,0.0,0.0,0.0,0.0,0.0,0.0,0.0,0.0,0.0,0.0,0.0,0.0,0.0,0.0,0.0,0.0,0.0,0.0,0.0,0.0,0.0,0.0,0.0,0.0,0.0,0.0,0.0,0.0,0.0,3.1056,3.3953,3.4888,3.4807,3.501,3.5751,3.237,2.9569,2.8116,2.4616,0.0,0.0,0.0,0.0,0.0,0.0,0.0,0.0,0.0,0.0,0.0,0.0,0.0,0.0,0.0,0.0,0.0,0.0,0.0,0.0,0.0,0.0,0.0,0.0,0.0,0.0,0.0,0.0,0.0,0.0,0.0,0.0,0.0,0.0,0.0,0.0,0.0,0.0,0.0,0.0,0.0,0.0,0.0,0.0,0.0,0.0,0.0,0.0,0.0,0.0,0.0,0.0,0.0,0.0,0.0,0.0,0.0,0.0,0.0,0.0,0.0,0.0,0.0,0.0,0.0,0.0,0.0,0.0,0.0,0.0,0.0,0.0,0.0,0.0,0.0,0.0,0.0,0.0,0.0,0.0,0.0,0.0,0.0,0.0,0.0,0.0,0.0,0.0,0.0,0.0,0.0,0.0,0.0,0.0,0.0,0.0,0.0,0.0,0.0,0.0,0.0,0.0,2.9479,3.2286,0.0,3.5066,3.5146,3.5621,3.3111,3.0303,2.7487,0.0,0.0,0.0,0.0,0.0,0.0,0.0,0.0,0.0,0.0,0.0,0.0,0.0,0.0,0.0,0.0,0.0,0.0,0.0,0.0,0.0,0.0,0.0,0.0,0.0,0.0,0.0,0.0,0.0,0.0,0.0,0.0,0.0,0.0,0.0,0.0,0.0,0.0,0.0,0.0,0.0,0.0,0.0,0.0,0.0,0.0,0.0,0.0,0.0,0.0,0.0,0.0,0.0,0.0,0.0,0.0,0.0,0.0,0.0,0.0,0.0,0.0,0.0,0.0,0.0,0.0,0.0,0.0,0.0,0.0,0.0,0.0,0.0,0.0,0.0,0.0,0.0,0.0,0.0,0.0,0.0,0.0,0.0,0.0,0.0,0.0,0.0,0.0,0.0,0.0,0.0,0.0,0.0,0.0,0.0,0.0,0.0,0.0,0.0,0.0,0.0,0.0,2.5973,2.8819,3.1639,0.0,3.4794,3.4778,3.5003,3.2646,2.9813,2.6753,0.0,0.0,0.0,0.0,0.0,0.0,0.0,0.0,0.0,0.0,0.0,0.0,0.0,0.0,0.0,0.0,0.0,0.0,0.0,0.0,0.0,0.0,0.0,0.0,0.0,0.0,0.0,0.0,0.0,0.0,0.0,0.0,0.0,0.0,0.0,0.0,0.0,0.0,0.0,0.0,0.0,0.0,0.0,0.0,0.0,0.0,0.0,0.0,0.0,0.0,0.0,0.0,0.0,0.0,0.0,0.0,0.0,0.0,0.0,0.0,0.0,0.0,0.0,0.0,0.0,0.0,0.0,0.0,0.0,0.0,0.0,0.0,0.0,0.0,0.0,0.0,0.0,0.0,0.0,0.0,0.0,0.0,0.0,0.0,0.0,0.0,0.0,0.0,0.0,0.0,0.0,0.0,0.0,0.0,0.0,0.0,0.0,0.0,0.0,0.0,0.0,0.0,2.5696,2.9629,3.2639,3.376,3.3709,3.3674,3.3773,3.0375,2.7526,0.0,0.0,0.0,0.0,0.0,0.0,0.0,0.0,0.0,0.0,0.0,0.0,0.0,0.0,0.0,0.0,0.0,0.0,0.0,0.0,0.0,0.0,0.0,0.0,0.0,0.0,0.0,0.0,0.0,0.0,0.0,0.0,0.0,0.0,0.0,0.0,0.0,0.0,0.0,0.0,0.0,0.0,0.0,0.0,0.0,0.0,0.0,0.0,0.0,0.0,0.0,0.0,0.0,0.0,0.0,0.0,0.0,0.0,0.0,0.0,0.0,0.0,0.0,0.0,0.0,0.0,0.0,0.0,0.0,0.0,0.0,0.0,0.0,0.0,0.0,0.0,0.0,0.0,0.0,0.0,0.0,0.0,0.0,0.0,0.0,0.0,0.0,0.0,0.0,0.0,0.0,0.0,0.0,0.0,0.0,0.0,0.0,0.0,0.0,0.0,0.0,0.0,0.0,2.5464,2.9392,3.2361,3.3552,3.3968,3.3846,3.3087,3.1261,2.8697,2.5237,0.0,0.0,0.0,0.0,0.0,0.0,0.0,0.0,0.0,0.0,0.0,0.0,0.0,0.0,0.0,0.0,0.0,0.0,0.0,0.0,0.0,0.0,0.0,0.0,0.0,0.0,0.0,0.0,0.0,0.0,0.0,0.0,0.0,0.0,0.0,0.0,0.0,0.0,0.0,0.0,0.0,0.0,0.0,0.0,0.0,0.0,0.0,0.0,0.0,0.0,0.0,0.0,0.0,0.0,0.0,0.0,0.0,0.0,0.0,0.0,0.0,0.0,0.0,0.0,0.0,0.0,0.0,0.0,0.0,0.0,0.0,0.0,0.0,0.0,0.0,0.0,0.0,0.0,0.0,0.0,0.0,0.0,0.0,0.0,0.0,0.0,0.0,0.0,0.0,0.0,0.0,0.0,0.0,0.0,0.0,0.0,0.0,0.0,0.0,0.0,0.0,0.0,2.5761,2.9443,3.2319,3.377,3.4214,3.4031,3.3137,3.1993,2.9564,2.5417,0.0,0.0,0.0,0.0,0.0,0.0,0.0,0.0,0.0,0.0,0.0,0.0,0.0,0.0,0.0,0.0,0.0,0.0,0.0,0.0,0.0,0.0,0.0,0.0,0.0,0.0,0.0,0.0,0.0,0.0,0.0,0.0,0.0,0.0,0.0,0.0,0.0,0.0,0.0,0.0,0.0,0.0,0.0,0.0,0.0,0.0,0.0,0.0,0.0,0.0,0.0,0.0,0.0,0.0,0.0,0.0,0.0,0.0,0.0,0.0,0.0,0.0,0.0,0.0,0.0,0.0,0.0,0.0,0.0,0.0,0.0,0.0,0.0,0.0,0.0,0.0,0.0,0.0,0.0,0.0,0.0,0.0,0.0,0.0,0.0,0.0,0.0,0.0,0.0,0.0,0.0,0.0,0.0,0.0,0.0,0.0,0.0,0.0,0.0,0.0,0.0,0.0,2.6353,2.9727,3.2548,3.4214,3.4397,3.4188,3.366,3.2496,3.0127,2.6227,0.0,0.0,0.0,0.0,0.0,0.0,0.0,0.0,0.0,0.0,0.0,0.0,0.0,0.0,0.0,0.0,0.0,0.0,0.0,0.0,0.0,0.0,0.0,0.0,0.0,0.0,0.0,0.0,0.0,0.0,0.0,0.0,0.0,0.0,0.0,0.0,0.0,0.0,0.0,0.0,0.0,0.0,0.0,0.0,0.0,0.0,0.0,0.0,0.0,0.0,0.0,0.0,0.0,0.0,0.0,0.0,0.0,0.0,0.0,0.0,2.2185,0.0,0.0,0.0,0.0,0.0,0.0,0.0,0.0,0.0,0.0,0.0,0.0,0.0,0.0,0.0,0.0,0.0,0.0,0.0,0.0,0.0,0.0,0.0,0.0,0.0,0.0,0.0,0.0,0.0,0.0,0.0,0.0,0.0,0.0,0.0,0.0,0.0,0.0,0.0,0.0,0.0,2.6389,3.0103,3.2986,3.4267,3.4397,3.4188,3.366,3.2496,3.0466,2.7333,0.0,0.0,0.0,0.0,0.0,0.0,0.0,0.0,0.0,0.0,0.0,0.0,0.0,0.0,0.0,0.0,0.0,0.0,0.0,0.0,0.0,0.0,0.0,0.0,0.0,0.0,0.0,0.0,0.0,0.0,0.0,0.0,0.0,0.0,0.0,0.0,0.0,0.0,0.0,0.0,0.0,0.0,0.0,0.0,0.0,0.0,0.0,0.0,0.0,0.0,0.0,0.0,0.0,0.0,0.0,0.0,0.0,0.0,0.0,0.0,0.0,2.3305,0.0,0.0,0.0,0.0,0.0,0.0,0.0,0.0,0.0,0.0,0.0,0.0,0.0,0.0,0.0,0.0,0.0,0.0,0.0,0.0,0.0,0.0,0.0,0.0,0.0,0.0,0.0,0.0,0.0,0.0,0.0,0.0,0.0,0.0,0.0,0.0,0.0,0.0,0.0,0.0,2.7592,3.1201,3.3953,3.5103,3.4972,3.4711,3.4424,3.3332,3.1555,2.8926,2.655,0.0,0.0,0.0,0.0,0.0,0.0,0.0,0.0,0.0,0.0,0.0,0.0,0.0,0.0,0.0,0.0,0.0,0.0,0.0,0.0,0.0,0.0,0.0,0.0,0.0,0.0,0.0,0.0,0.0,0.0,0.0,0.0,0.0,0.0,0.0,0.0,0.0,0.0,0.0,0.0,0.0,0.0,0.0,0.0,0.0,0.0,0.0,0.0,0.0,0.0,0.0,0.0,0.0,3.0447,3.0201,2.9953,2.9403,2.9751,3.0609,2.729,2.6034,2.6285,0.0,0.0,0.0,0.0,0.0,0.0,0.0,0.0,0.0,0.0,0.0,0.0,0.0,0.0,0.0,0.0,0.0,0.0,0.0,0.0,0.0,0.0,0.0,0.0,0.0,2.7521,2.7544,0.0,0.0,0.0,0.0,0.0,0.0,0.0,0.0,0.0,0.0,0.0,0.0,2.9083,3.2333,3.4842,3.5992,3.5704,3.5443,3.5443,3.4397,3.2881,3.085,2.8891,2.6452,0.0,0.0,0.0,0.0,0.0,0.0,0.0,0.0,0.0,0.0,0.0,0.0,0.0,0.0,0.0,0.0,0.0,0.0,0.0,0.0,0.0,0.0,0.0,0.0,0.0,0.0,0.0,0.0,0.0,0.0,0.0,0.0,1.8489,1.8647,0.0,0.0,0.0,0.0,0.0,0.0,0.0,0.0,0.0,0.0,0.0,0.0,0.0,0.0,2.7932,3.1339,3.3308,3.3796,3.2784,3.2299,3.2263,3.2168,3.2496,3.3126,3.2574,0.0,2.894,2.8158,0.0,0.0,0.0,0.0,0.0,0.0,0.0,0.0,0.0,0.0,0.0,0.0,0.0,0.0,0.0,0.0,0.0,0.0,0.0,0.0,0.0,0.0,3.0865,3.0404,3.1187,3.162,0.0,2.6826,2.3805,2.2818,0.0,0.0,0.0,0.0,0.0,0.0,0.0,0.0,2.9622,3.2574,3.4842,3.5992,3.6044,3.5992,3.5992,3.4946,3.3953,3.3195,3.0555,2.8386,2.688,2.4711,0.0,0.0,0.0,0.0,0.0,0.0,0.0,0.0,0.0,0.0,0.0,0.0,0.0,0.0,0.0,0.0,0.0,0.0,0.0,0.0,0.0,0.0,0.0,0.0,0.0,0.0,0.0,0.0,0.0,1.8003,1.9705,1.9973,2.0525,2.0656,0.0,0.0,0.0,0.0,0.0,0.0,0.0,0.0,0.0,2.7811,2.7846,2.8995,3.1444,3.4267,3.56,3.5365,3.5182,3.5286,3.5626,3.5626,3.594,3.6462,3.6462,3.58,3.4423,3.151,2.9078,2.6998,0.0,0.0,0.0,0.0,0.0,2.7503,2.9407,0.0,0.0,0.0,0.0,0.0,0.0,0.0,0.0,0.0,0.0,0.0,0.0,0.0,0.0,3.3326,3.4031,3.4397,3.3587,3.1548,2.9022,0.0,2.5484,2.4584,2.21,0.0,0.0,0.0,0.0,0.0,3.1738,3.4293,3.6175,3.7011,3.6802,3.6619,3.6619,3.5835,3.4972,3.411,3.2587,3.0895,2.903,2.7046,2.5092,0.0,0.0,0.0,0.0,0.0,0.0,0.0,0.0,0.0,0.0,0.0,0.0,0.0,0.0,0.0,0.0,0.0,0.0,0.0,0.0,0.0,0.0,0.0,0.0,0.0,0.0,0.0,0.0,1.9841,2.1352,2.1551,2.2426,2.2662,0.0,0.0,0.0,0.0,0.0,0.0,2.6258,2.7915,2.9622,3.1373,3.2626,3.3802,3.4894,3.6571,3.7276,3.7011,3.756,3.8004,3.8344,3.8344,3.8553,3.8922,3.8922,3.8922,3.8634,3.4899,3.2208,3.0451,3.0417,2.9928,2.9466,3.0955,3.1052,3.0731,3.3012,3.3509,3.2934,3.179,0.0,2.9763,2.7618,0.0,0.0,0.0,0.0,3.0208,3.2182,0.0,3.4476,3.5495,3.6149,3.641,3.5861,3.5391,3.3875,0.0,2.917,2.8246,2.4924,0.0,0.0,0.0,0.0,3.138,3.3718,3.5783,3.7246,3.7848,3.7508,3.7246,3.7246,3.6671,3.5966,3.5129,3.4267,3.3012,3.1268,2.9387,2.768,2.6143,0.0,0.0,0.0,0.0,0.0,0.0,0.0,0.0,0.0,0.0,0.0,0.0,0.0,0.0,0.0,0.0,0.0,0.0,0.0,0.0,0.0,0.0,0.0,0.0,0.0,0.0,0.0,0.0,0.0,2.398,2.5845,0.0,0.0,0.0,0.0,2.5584,2.7706,2.9248,2.9813,3.1496,3.3221,3.4972,3.5992,3.7093,3.8449,3.9128,3.9418,3.9442,3.9834,3.9834,3.952,3.952,3.9547,3.9549,3.9549,3.9549,3.9444,3.8135,3.6671,3.5281,3.5574,3.5025,3.4162,3.502,3.4497,3.3477,3.4136,3.4345,3.4397,3.4868,3.3901,3.2489,3.2359,3.1567,0.0,0.0,3.2855,3.3613,3.4816,3.5547,3.6149,3.6776,3.7377,3.7665,3.7037,3.6907,3.6149,0.0,3.2391,3.1223,2.9918,0.0,2.9196,2.9709,3.0884,3.2574,3.492,3.6253,3.7246,3.7848,3.7874,3.7848,3.7848,3.7299,3.6933,3.6881,3.5286,3.4319,3.4188,3.2019,3.0286,2.9109,2.6222,0.0,0.0,0.0,0.0,0.0,0.0,0.0,0.0,0.0,0.0,0.0,0.0,0.0,0.0,0.0,0.0,0.0,0.0,0.0,0.0,0.0,0.0,0.0,0.0,0.0,0.0,0.0,0.0,2.7288,2.8473,0.0,2.8569,2.8908,2.9283,2.9631,3.1156,3.2463,3.3404,3.4737,3.6096,3.7456,3.8504,3.9314,3.9784,4.0775,4.1271,4.1297,4.1768,4.1925,4.1795,4.1795,4.1795,4.1795,4.1795,4.1795,4.1717,4.0958,3.9544,3.7743,3.7403,3.7299,3.7377,3.7534,3.7299,3.6959,3.756,3.7743,3.7612,3.6698,3.5704,3.4737,3.4005,3.377,3.3927,3.4685,3.5312,3.6044,3.7194,3.7639,3.7926,3.8527,3.8841,3.8945,3.8736,3.837,3.7848,3.7037,3.5365,3.3587,3.2045,3.2228,3.2385,3.1862,3.3378,3.5004,3.6253,3.709,3.7665,3.7874,3.79,3.79,3.79,3.7717,3.7246,3.6462,3.5835,3.4999,3.3927,3.2744,3.1567,3.0417,2.7889,2.5197,0.0,0.0,0.0,0.0,0.0,0.0,0.0,0.0,0.0,0.0,0.0,0.0,0.0,0.0,0.0,0.0,0.0,0.0,0.0,0.0,0.0,0.0,0.0,0.0,0.0,0.0,2.8124,2.9684,3.1052,3.1764,3.1575,3.2254,3.2881,3.3227,3.4554,3.5652,3.641,3.7534,3.8606,3.9547,4.0514,4.1089,4.1273,4.2186,4.2604,4.2474,4.2971,4.3127,4.2997,4.2997,4.2997,4.2997,4.2997,4.2997,4.2971,4.2605,4.1611,4.0252,3.9181,3.9024,3.9364,3.9102,3.9,3.9076,3.9444,3.9599,3.9416,3.8266,3.7612,3.7142,3.6384,3.6436,3.6828,3.7194,3.7586,3.8057,3.8815,3.9,3.9079,3.9375,3.9479,3.9479,3.9479,3.9071,3.8737,3.8832,3.7414,3.5757,3.4371,3.4763,3.5025,3.4267,3.5443,3.6619,3.722,3.7665,3.79,3.79,3.79,3.79,3.79,3.7717,3.7246,3.6462,3.5861,3.5025,3.3927,3.2934,3.1967,3.1018,2.8516,2.6112,2.3812,0.0,0.0,0.0,0.0,0.0,0.0,0.0,0.0,0.0,0.0,0.0,0.0,0.0,0.0,0.0,0.0,0.0,0.0,0.0,0.0,0.0,0.0,0.0,2.6703,2.924,3.1097,3.1175,3.3639,3.4711,3.3064,3.4894,3.6201,3.6201,3.7795,3.8762,3.8789,3.986,4.0724,4.1325,4.1951,4.25,4.3023,4.3415,4.3441,4.3049,4.3415,4.3415,4.3049,4.3049,4.3049,4.3049,4.3049,4.3049,4.3049,4.3049,4.3049,4.2866,4.1142,4.0409,4.0251,3.986,3.973,3.973,3.973,3.973,3.9679,3.9703,3.9677,3.9627,3.9651,3.9625,3.9599,3.9599,3.9599,3.9599,3.9625,3.9601,3.9553,3.9288,3.9265,3.9239,3.9239,3.9021,3.89,3.9141,3.8522,3.7746,3.7146,3.7041,3.7015,3.7015,3.7015,0.0,3.7799,3.7926,3.7926,3.79,3.7926,3.7926,3.79,3.7351,3.6985,3.6959,3.5338,3.4397,3.4371,3.2757,3.1582,3.1044,2.8194,2.6196,2.507,0.0,0.0,0.0,0.0,0.0,0.0,0.0,0.0,0.0,0.0,0.0,0.0,0.0,0.0,0.0,0.0,0.0,0.0,0.0,0.0,0.0,0.0,2.8403,2.856,3.0678,3.3032,3.5103,3.6044,3.6854,3.7639,3.7874,3.8161,3.8606,3.9418,4.0123,4.0541,4.1298,4.1951,4.2501,4.3127,4.3388,4.3306,4.3825,4.4059,4.3955,4.3842,4.3977,4.4225,4.4036,4.4063,4.4225,4.4225,4.4225,4.4225,4.4225,4.4225,4.4094,4.2788,4.2239,4.2239,4.2109,4.2056,4.2056,4.2056,4.2056,4.2004,4.1611,4.1193,4.075,4.0306,3.9888,3.9599,3.9599,3.9599,3.9703,4.0071,4.0029,3.9962,4.0351,4.028,4.013,4.013,3.9746,3.9415,3.9489,3.8997,3.8352,3.776,3.7657,3.7503,3.7114,0.0,0.0,3.7572,3.8124,3.8344,3.7952,3.8266,3.8318,3.7926,3.7351,3.6645,0.0,3.4894,3.4214,3.3822,3.2934,3.2182,3.1608,2.876,2.7115,0.0,0.0,0.0,0.0,0.0,0.0,0.0,0.0,0.0,0.0,0.0,0.0,0.0,0.0,0.0,0.0,0.0,0.0,0.0,0.0,0.0,0.0,2.9405,3.1437,3.2404,3.3666,3.5208,3.7142,3.8004,3.8817,3.986,4.0069,4.0256,4.0472,4.0993,4.1411,4.162,4.2216,4.2657,4.2994,4.3591,4.3821,4.3606,4.3966,4.4121,4.4121,4.3982,4.4064,4.4367,4.4203,4.4285,0.0,4.4531,4.4586,4.4695,4.4695,4.4695,0.0,0.0,0.0,0.0,0.0,4.2997,4.2997,4.2997,4.2997,4.2945,4.2631,4.2291,4.1952,4.1586,4.1273,4.0987,4.0887,4.0837,4.089,4.1076,4.1002,4.0952,4.1183,4.0742,4.0271,4.0271,3.9473,3.8733,3.8643,0.0,0.0,3.7069,3.7663,3.8162,3.7853,3.7921,3.8041,0.0,3.8536,3.878,3.8468,3.8822,3.8972,3.8658,3.7848,0.0,0.0,0.0,3.4031,3.3247,3.2646,0.0,0.0,0.0,0.0,0.0,0.0,0.0,0.0,2.6608,2.6478,0.0,0.0,0.0,0.0,0.0,0.0,0.0,0.0,0.0,0.0,0.0,0.0,0.0,0.0,0.0,0.0,3.2065,3.4653,3.6791,3.7147,3.7436,3.8144,3.9551,4.0492,4.0573,4.1563,4.2085,4.1776,4.2162,4.2364,4.2232,0.0,0.0,0.0,0.0,4.3872,4.3844,4.3844,4.3844,4.3844,4.3817,4.3844,4.3899,4.3872,4.4035,4.4361,4.4284,4.442,4.469,4.4612,4.4666,4.4666,4.4172,4.3886,4.3676,4.331,4.318,0.0,0.0,0.0,0.0,4.3101,4.3075,4.3023,4.3023,4.2945,4.284,4.263,4.2472,4.2262,4.1971,4.1759,4.1572,4.1358,4.0441,3.9623,3.9623,3.8568,3.7558,3.7377,3.7974,3.7885,3.5975,3.7278,3.8534,3.836,3.8459,0.0,3.8557,3.8974,3.9217,3.9165,0.0,0.0,3.9551,3.853,3.7639,3.7037,3.5443,3.4058,3.3058,3.247,3.2444,3.2986,3.2927,3.3143,3.3692,3.4162,3.4214,3.377,2.9528,2.89,0.0,0.0,0.0,0.0,0.0,0.0,0.0,0.0,0.0,0.0,0.0,0.0,0.0,0.0,0.0,3.1986,3.4276,3.6177,3.7535,3.8064,3.8793,4.015,4.0609,4.1052,4.1697,4.1979,4.2108,4.2029,4.163,4.1823,4.2768,4.2431,0.0,4.3693,4.3848,4.3764,4.3489,4.3489,4.3489,4.3489,0.0,0.0,4.3899,4.3626,4.391,4.4596,4.4187,4.4266,4.468,4.4245,4.4322,4.471,4.4583,4.4512,4.4486,4.4407,4.4381,4.4354,4.4112,4.4193,4.4301,4.3866,4.3531,4.3304,4.3063,4.2675,0.0,4.2209,4.1493,4.0742,4.0661,3.9736,3.8772,3.8712,3.8349,3.8063,3.8063,3.7809,3.7588,3.7558,3.7676,3.7663,3.7254,3.7317,3.6946,3.554,3.6337,3.7119,3.7119,3.8516,3.9362,3.8925,3.9505,3.9754,3.9312,3.8436,3.7639,3.7037,3.5809,3.5025,3.4816,3.4685,3.4685,3.4789,3.4319,3.4136,3.4241,3.4345,3.4816,3.5574,3.3744,3.296,0.0,0.0,0.0,0.0,0.0,0.0,0.0,0.0,0.0,0.0,0.0,2.596,2.785,0.0,3.1684,3.3554,3.4933,3.6125,3.7216,3.7555,3.8455,4.0466,4.0297,4.0463,4.1495,4.1304,4.1037,4.0923,4.1142,4.1233,4.1116,4.1387,4.1533,4.1558,4.2178,4.2556,4.2658,4.3278,4.3739,4.4017,4.3847,4.3957,4.4241,4.4074,4.4311,4.4874,4.4622,4.4732,4.5076,4.4794,4.4845,4.5104,4.5077,4.5113,4.5087,4.4941,4.4809,4.4673,4.4389,4.4285,4.4258,4.401,4.3804,4.352,4.273,4.2281,4.1891,4.1117,4.0451,3.9949,3.9803,3.9182,3.8603,3.8603,3.7995,3.7441,3.7441,3.6942,3.6455,3.6245,3.667,3.6785,3.5991,3.6185,3.6539,3.6908,3.758,3.8196,3.8551,3.9548,4.0033,3.9522,3.9927,4.0203,4.0068,3.9272,3.8501,3.79,3.7063,3.6593,3.6593,3.6593,3.6593,3.6593,3.6567,3.6541,3.6541,3.6854,3.7299,3.7848,3.7273,3.6698,0.0,0.0,0.0,0.0,0.0,0.0,0.0,0.0,2.4677,2.5986,2.7324,2.8828,3.0823,3.223,3.3427,3.457,3.5163,3.5776,3.6691,3.6761,3.7557,3.9811,3.9516,3.9547,4.0652,4.0244,3.9838,3.9627,4.0274,4.0245,3.9246,3.9949,4.0054,3.9377,4.0346,4.1131,4.1655,4.2676,4.3416,4.3835,4.3835,4.3835,4.3835,4.4069,4.4407,4.4769,4.5056,4.5211,4.5311,4.5153,4.5092,4.5088,4.4903,4.4865,4.4881,4.5104,4.5042,4.4822,4.4555,4.4179,4.3817,4.3706,4.3512,4.3122,4.2079,4.1739,4.148,4.0229,3.9722,3.9432,3.9188,3.8851,3.8604,3.8604,3.7736,3.6915,3.6915,3.6135,3.5314,3.4993,3.5646,3.5879,3.4562,3.5104,3.634,3.8096,3.8549,3.9014,3.9851,4.0335,4.0529,4.0335,4.0567,4.0799,4.095,4.0421,3.9784,3.8981,3.8608,3.8344,3.824,3.824,3.824,3.824,3.8634,3.8893,3.8893,3.9468,3.9834,3.9939,4.0043,3.973,2.3129,2.2472,2.2597,2.3422,2.3777,2.4816,0.0,0.0,2.8747,3.042,3.0773,3.1327,3.305,3.2923,3.3242,3.5307,3.5834,3.6229,3.6787,3.6687,3.7072,3.8464,3.8774,3.8972,3.9371,3.9317,3.9304,3.9246,3.8335,3.8186,3.9157,3.8246,3.838,3.9762,3.9965,4.0255,4.0754,4.0876,4.099,4.106,4.106,4.106,4.109,4.2299,4.3102,4.3657,4.4903,4.5154,4.4669,4.3912,4.3627,4.3584,4.2825,4.2575,4.2802,4.4728,4.5437,4.538,4.51,4.4389,4.3467,4.2909,4.2084,4.1275,4.0875,4.0753,4.0723,4.054,3.9683,3.8816,3.8784,3.7608,3.6457,3.6457,3.6019,3.5634,3.5634,3.551,3.5387,3.5355,3.5427,3.5489,3.5273,3.5365,3.5257,3.4749,3.5561,3.6646,3.7858,3.8923,3.9968,4.1046,4.1395,4.1483,4.126,4.1645,4.1302,3.9937,4.0028,3.9888,3.9442,3.9416,3.9416,3.9416,3.9468,3.952,3.952,4.0069,4.0567,4.1116,4.1663,4.1323,2.5953,2.5678,2.5649,2.6058,2.7164,2.8537,2.9914,3.0714,3.1301,3.1763,3.2803,3.361,3.3539,3.4031,3.4535,0.0,3.5011,3.5212,3.5605,3.5593,3.5729,3.6245,3.6611,3.718,3.8007,3.7399,3.6998,3.6998,3.7188,3.7218,3.6998,3.7471,3.771,3.7681,3.8684,3.9463,3.9953,4.0703,4.1213,4.1542,4.235,4.2751,4.2751,4.3327,4.3269,4.2716,4.3329,4.3457,4.3204,4.284,4.2685,4.2677,4.2322,4.2201,4.2299,4.3057,4.3246,4.3078,4.2819,4.2335,4.1764,4.1522,4.1128,4.0609,3.9747,3.9468,3.9343,3.8584,3.8006,3.7594,3.7594,3.7054,3.6515,3.6515,3.637,3.6225,3.6225,3.6018,3.5832,3.5832,3.5604,3.5387,3.5387,3.5387,3.5539,3.5908,3.6986,3.8134,3.9094,4.0276,4.1112,4.1299,4.1544,4.1736,4.1823,4.2216,4.2242,4.1774,4.1849,4.1795,4.1586,4.156,4.156,4.156,4.156,4.156,4.156,4.1795,4.203,4.2292,4.2552,4.2762,2.7102,2.7564,2.8033,2.8336,2.9935,3.1302,3.1069,3.193,3.2673,3.2355,3.3384,3.4168,3.346,3.4034,3.448,3.4164,3.4179,3.438,3.474,3.4786,3.4744,3.462,3.4859,3.539,3.6338,3.5804,3.5387,3.5387,3.6237,3.6423,3.5635,3.6798,3.7157,3.6526,3.771,3.8636,3.9142,4.0052,4.0686,4.1107,4.2129,4.2603,4.2635,4.3012,4.2824,4.2201,4.2201,4.2201,4.2169,4.1811,4.1651,4.1619,4.1235,4.1107,4.1062,4.0864,4.1139,4.1573,4.1391,4.0936,4.0485,4.0485,4.0235,3.9765,3.8848,3.8561,3.8359,3.7436,3.7177,3.7177,3.7177,3.7094,3.6991,3.6991,3.6887,3.6804,3.6804,3.6535,3.6308,3.6308,3.6039,3.5769,3.5614,3.5573,3.5851,3.6655,3.785,3.9108,4.0372,4.1639,4.2261,4.1804,4.2025,4.2241,4.2402,4.275,4.2965,4.2995,4.3074,4.3075,4.2997,4.2997,4.2997,4.2997,4.2997,4.2997,4.2997,4.318,4.331,4.3467,4.3624,4.4251,2.5575,2.6804,2.8578,2.9745,3.1066,3.2196,3.271,3.2767,3.2715,3.2667,3.2171,3.2025,3.3026,3.2289,3.1978,3.3382,3.3897,3.4256,3.4723,3.4786,3.462,3.4164,3.4123,3.4143,0.0,3.4931,3.5387,3.5387,3.5448,3.5656,3.608,3.6132,3.6547,3.7425,3.75,3.776,3.8217,3.8283,3.8304,3.8304,3.837,3.837,3.8437,3.9725,4.1011,4.2201,4.2201,4.2201,4.2074,4.0807,4.0257,4.0127,3.8814,3.8304,3.8304,3.8304,3.9964,4.2178,4.2178,4.1319,4.0213,4.0213,3.9343,3.8283,3.825,3.8217,3.8217,3.8183,3.8183,3.8183,3.8183,3.7819,3.7467,3.7467,3.7136,3.6804,3.6804,3.6784,3.6784,3.6784,3.6763,3.6618,3.6163,3.6101,3.5935,3.5511,3.6542,3.8246,4.076,4.2182,4.2964,4.2964,4.3189,4.3245,4.302,4.3545,4.3592,4.3028,4.3246,4.3254,4.3023,4.2997,4.2997,4.2997,4.2997,4.2997,4.2997,4.3572,4.4121,4.4669,4.5243,4.5844,2.5643,2.7109,2.8607,2.9685,3.1149,3.2347,3.2511,3.2807,3.2826,3.2129,3.2094,3.2057,3.1642,3.1541,3.1939,3.3247,3.3567,3.4019,3.5045,3.519,3.4921,3.4185,3.4371,0.0,0.0,0.0,0.0,3.5366,3.5387,3.5593,3.6048,3.6411,3.6846,3.7467,3.7798,3.8026,3.8191,3.8191,3.8191,3.8225,3.909,3.955,3.9528,3.9986,3.9953,3.955,3.955,3.955,3.9517,3.9078,3.9015,3.9222,3.8774,3.8778,3.9047,3.9047,3.9639,4.032,3.9764,3.9254,3.888,3.888,3.857,3.8191,3.8191,3.8191,3.8191,3.8191,3.8191,3.8191,3.8191,3.8067,3.7943,3.7943,3.7839,3.7715,3.7715,3.7488,3.726,3.726,3.7011,3.6763,3.6597,3.6577,3.678,3.7473,3.815,3.9187,4.0899,4.2206,4.3014,4.3014,4.3073,4.3156,4.3268,4.3434,4.3577,4.359,4.3865,4.3951,4.3878,4.3878,4.4141,4.4721,4.4558,4.474,4.5323,4.5534,4.5606,4.5565,4.5773,4.6075,2.6337,2.7916,2.9352,3.0693,3.1822,3.2549,3.2394,3.2342,3.2017,3.0978,3.0952,3.0874,3.0089,3.0129,3.0849,3.2612,3.2892,3.3492,3.5159,3.5148,3.4714,3.4164,3.4226,3.4247,0.0,0.0,0.0,3.5345,3.5583,3.5842,3.6328,3.6804,3.726,3.7736,3.8026,3.8191,3.8191,3.8191,3.8191,3.8225,3.9057,3.9484,3.9484,3.9623,3.9245,3.844,3.8605,3.8667,3.8667,3.8667,3.8799,3.9068,3.9068,3.9233,3.9502,3.9502,3.9502,3.942,3.8874,3.8667,3.8667,3.8667,3.8564,3.8419,3.8419,3.8316,3.8191,3.8191,3.8191,3.8191,3.8191,3.8191,3.8191,3.8191,3.8191,3.8191,3.8191,3.7943,3.7736,3.7736,3.7508,3.7239,3.7074,3.6908,3.7072,3.7911,3.8596,3.9609,4.1152,4.2074,4.2683,4.2958,4.319,4.3347,4.3543,4.372,4.3987,4.4293,4.4489,4.463,4.4714,4.4742,4.5061,4.5729,4.5451,4.5633,4.6332,4.6332,4.6266,4.6134,4.6274,4.6573,2.7499,2.9092,3.0646,3.2469,3.2875,3.2736,3.2311,3.1407,3.0387,2.9435,2.8856,2.8504,0.0,0.0,2.8768,3.1498,3.1995,3.2822,3.5076,3.4693,3.4164,0.0,0.0,0.0,0.0,0.0,0.0,3.5387,0.0,3.6308,3.6784,3.7239,3.7715,3.8171,3.8191,3.8191,3.8191,3.8191,3.8191,3.8212,3.8212,3.8233,3.8274,3.8654,3.8861,3.8882,3.9316,3.9502,3.9502,3.9502,3.9523,3.9544,3.9544,3.9564,3.9564,3.9564,3.9564,3.9564,3.9564,3.9544,3.9502,3.9502,3.9213,3.8861,3.8861,3.8551,3.8253,3.8253,3.8253,3.8253,3.8253,3.8253,3.8253,3.8253,3.8253,3.8253,3.8233,3.8212,3.8212,3.8191,3.8191,3.8046,3.7612,3.7177,3.6867,3.6867,3.7912,3.9419,4.146,4.1795,4.2156,4.3,4.3539,4.384,4.384,4.4317,4.4734,4.5048,4.5106,4.5196,4.5482,4.5482,4.5654,4.6018,4.5705,4.5705,4.607,4.607,4.6183,4.6459,4.6805,4.7368,2.8037,2.9488,3.0764,3.1593,3.1797,3.1671,3.1215,3.062,2.9808,2.852,2.7655,2.7016,0.0,0.0,0.0,3.0636,3.185,0.0,3.5118,3.5231,0.0,3.464,0.0,3.4475,3.4599,3.4723,0.0,0.0,3.6039,3.6308,3.6784,3.7239,3.7715,3.8171,3.8191,3.8191,3.8191,3.8191,3.8357,3.8654,3.8654,3.882,3.9171,3.9275,3.9337,3.9337,3.9461,3.9502,3.9502,3.9502,3.9709,4.0019,4.0019,4.0241,4.053,4.053,4.053,4.053,4.053,4.0096,3.9502,3.9502,3.942,3.9337,3.9337,3.9254,3.9151,3.9151,3.9151,3.9151,3.9151,3.9151,3.9151,3.9151,3.9151,3.9068,3.8716,3.8654,3.8551,3.8253,3.8191,3.815,3.8026,3.7902,3.7839,3.7839,3.8115,3.8981,4.0739,4.1816,4.286,4.4073,4.4288,4.4389,4.4389,4.4514,4.4647,4.4705,4.4937,4.5135,4.5196,4.5196,4.5543,4.6267,4.5977,4.6181,4.6887,4.6887,4.7018,4.7281,4.7371,4.7602,2.8897,3.0222,3.134,3.1609,3.1671,3.1402,3.0325,2.9725,2.8876,2.7093,2.6163,2.5544,2.511,2.5773,2.7117,0.0,0.0,0.0,3.4859,3.5128,3.5107,0.0,3.491,0.0,3.5055,3.5045,3.5335,0.0,3.6308,3.6618,3.7074,3.755,3.7922,3.8171,3.8191,3.8274,3.8481,3.8481,3.8675,3.9109,3.9109,3.9254,3.9502,3.9709,3.9813,3.9813,0.0,4.0116,4.0116,4.0116,4.0282,4.051,4.051,4.0655,4.0918,4.0918,4.0918,4.0918,4.0918,4.0551,4.0116,4.0116,3.9992,3.9813,3.9792,3.9647,3.9502,3.9502,3.9502,3.9502,3.9502,3.9502,3.9502,3.9502,3.9502,3.944,3.9171,3.9109,3.9047,3.8799,3.8771,3.8709,3.8502,3.8481,3.8398,3.8212,3.8191,3.8756,4.0284,4.1384,4.2507,4.3625,4.4494,4.4995,4.4995,4.5192,4.5342,4.5342,4.5519,4.5637,4.5637,4.5637,4.6037,4.6921,4.6619,4.6843,4.7738,4.7738,4.7709,4.7733,4.7886,4.8067,3.0015,3.1147,3.207,3.207,3.2016,3.1457,2.9704,2.8814,2.7696,2.5397,2.4507,2.4012,2.3598,2.4384,2.5852,2.8127,0.0,3.2196,3.4475,3.4786,3.4951,3.5345,3.5086,3.5034,3.5345,3.5449,3.5707,3.6163,3.6639,3.7074,3.7467,3.7943,3.8191,3.8191,3.8191,3.8398,3.882,3.882,3.9089,3.9606,3.9606,3.9626,3.9688,4.0102,4.0288,4.0309,0.0,0.0,4.0918,4.0918,4.0918,4.0918,4.0918,4.0918,4.0918,4.0918,4.0918,4.0918,4.0918,4.0918,4.0918,4.0918,4.0613,4.0268,4.0282,4.0013,3.9688,3.9688,3.9688,3.9688,3.9688,3.9688,3.9688,3.9688,3.9688,3.9668,3.9606,3.9544,3.9502,3.9502,3.9502,3.9378,3.8985,3.8903,3.8778,3.8419,3.8357,3.877,3.9952,4.0944,4.1862,4.2718,4.4502,4.5598,4.5598,4.6024,4.6351,4.6396,4.6426,4.6451,4.6527,4.6527,4.6849,4.7633,4.7352,4.7579,4.8311,4.8311,4.8238,4.8033,4.8314,4.8523,3.1416,3.2119,3.2574,3.2574,3.2043,3.1112,2.9642,2.8094,0.0,2.4012,2.2873,2.213,2.1673,2.3246,2.5354,2.7652,2.9911,3.2196,3.4475,3.4786,3.4951,0.0,3.5355,3.5304,3.5387,3.5738,0.0,0.0,0.0,3.7405,3.7488,3.7943,3.8191,3.8191,3.8191,3.8398,3.882,3.882,3.9233,4.0081,4.0081,4.0303,4.0655,4.0737,4.0758,4.0758,0.0,0.0,4.0918,4.0918,4.0918,4.0918,4.0918,4.0918,4.0918,4.0918,4.0918,4.0918,4.0918,4.0918,4.0918,4.0918,4.082,4.0794,4.0794,4.0696,4.0655,4.0655,4.0655,4.0655,4.0655,4.0655,4.0655,4.0655,4.0655,4.0551,4.0143,3.9771,3.9502,3.9502,3.9502,3.9482,3.9399,3.9378,3.9358,3.9275,3.9275,3.9378,3.9597,4.1065,4.2544,4.3863,4.5297,4.6175,4.6175,4.625,4.6471,4.6923,4.6973,4.7149,4.7606,4.7631,4.7713,4.785,4.7788,4.7838,4.8001,4.8001,4.8221,4.8667,4.8674,4.8345,3.1829,3.2346,3.2698,3.2698,3.1857,3.0559,2.8694,0.0,0.0,2.2584,2.155,2.0992,2.0785,2.2419,2.4405,2.6204,2.821,3.0553,3.3306,3.3699,3.4134,3.5263,3.5387,3.5387,3.5387,3.58,3.6308,0.0,0.0,3.7612,3.7839,3.8067,3.8191,3.8191,3.8191,3.8523,3.9171,3.9171,3.9626,4.0572,4.0572,4.0675,4.0918,4.0918,4.0918,4.0918,4.0918,0.0,4.0918,4.0918,4.0918,4.0918,4.0918,4.0918,4.0918,4.0918,4.0918,4.0918,4.0918,4.0918,4.0918,4.0918,4.0918,4.0918,4.0918,4.0918,4.0918,4.0918,4.0918,4.0918,4.0918,4.0918,4.0918,4.0918,4.0918,4.0856,4.0613,4.0386,4.0241,4.0241,4.0241,4.0158,3.9895,3.9854,3.9771,3.9544,3.9502,3.9502,3.9502,4.1551,4.323,4.3904,4.5875,4.7129,4.7129,4.7129,4.7224,4.75,4.75,4.7626,4.7908,4.7908,4.8058,4.836,4.836,4.851,4.8786,4.8786,4.8561,4.8076,4.8076,4.7415,3.1871,3.2346,3.2698,3.2698,3.1629,2.9979,2.7807,2.5709,2.3598,2.1406,2.0496,2.0185,2.0372,2.1776,2.3412,2.4963,2.6638,2.8872,3.2098,3.2636,3.3381,3.518,3.5387,0.0,3.5531,3.5945,0.0,0.0,0.0,0.0,3.8171,3.8191,3.8191,3.8191,3.8191,3.8626,3.9502,3.9502,3.9957,4.0918,4.0918,4.0918,4.0918,4.0918,4.0918,4.0918,4.0918,0.0,0.0,4.0918,4.0918,4.0918,4.0918,4.0918,4.0918,4.0918,4.0918,4.0918,4.0918,4.0918,4.0918,4.0918,4.0918,4.0918,4.0918,4.0918,4.0918,4.0918,4.0918,4.0918,4.0918,4.0918,4.0918,4.0918,4.0918,4.0918,4.0918,4.0918,4.0918,4.0918,4.0918,4.0758,4.0392,4.0365,4.0206,3.9854,3.9792,3.9792,3.9792,4.2278,4.3928,4.3596,4.6182,4.7783,4.7477,4.7445,4.737,4.7153,4.7462,4.7669,4.7794,4.8102,4.8485,4.8969,4.865,4.8722,4.9112,4.882,4.8052,4.6936,4.6936,4.6214,3.1767,3.2346,3.2698,3.2698,3.1381,2.9559,2.7721,2.5235,2.277,2.0868,1.9789,1.9454,2.0248,2.124,2.2646,2.4839,2.6413,2.8467,3.1623,3.2429,3.3381,3.518,0.0,0.0,3.5997,3.6473,0.0,0.0,0.0,0.0,3.8191,3.8191,3.8191,3.8191,3.8191,3.8626,3.9502,3.9502,3.9957,4.0918,4.0918,4.0918,4.0918,4.0918,4.0918,4.0918,0.0,0.0,0.0,4.0918,4.0918,4.0918,4.0918,4.0918,4.0918,4.0918,4.0918,4.0918,4.0918,4.0918,4.0918,4.0918,4.0918,4.0918,4.0918,4.0918,4.0918,4.0918,4.0918,4.0918,4.0918,4.0918,4.0918,4.0918,4.0918,4.0918,4.0918,4.0918,4.0918,4.0918,4.0918,4.0897,4.082,4.0856,4.08,4.0794,4.0758,4.0758,4.0758,4.3269,4.4573,4.3313,4.6001,4.7383,4.6093,4.5998,4.5644,4.4781,4.5981,4.6939,4.7421,4.8712,4.9464,4.9515,4.8232,4.7542,4.759,4.6268,4.5503,4.5401,4.5401,4.4868,3.2016,3.2861,3.3529,3.2516,3.1126,2.9435,2.7348,2.4965,2.2666,2.0785,1.9706,1.9371,2.0248,2.0703,2.1735,2.4053,2.4654,2.5916,2.9099,2.9927,3.1106,3.3484,3.4279,0.0,0.0,0.0,0.0,0.0,0.0,0.0,3.8191,3.8191,3.8191,3.8191,3.8191,3.8626,3.9502,3.9502,3.9957,4.0918,4.0918,4.0918,4.0918,4.0918,4.0918,4.0918,0.0,0.0,0.0,4.0918,4.0918,4.0918,4.0918,4.0918,4.0918,4.0918,4.0918,4.0918,4.0918,4.0918,4.0918,4.0918,4.0918,4.0918,4.0918,4.0918,4.0918,4.0918,4.0918,4.0918,4.0918,4.0918,4.0918,4.0918,4.0918,4.0918,4.0918,4.0918,4.0918,4.0918,4.0918,4.0918,4.0918,4.0918,4.0918,4.0918,4.0918,4.0918,4.0918,4.2656,4.37,4.3167,4.5792,4.7004,4.5558,4.5459,4.5262,4.49,4.6262,4.7185,4.7401,4.882,4.9177,4.8306,4.7689,4.697,4.61,4.5758,4.5198,4.4353,4.462,4.405,3.219,3.294,3.3381,3.2509,3.0939,2.9063,2.7058,2.4737,2.2501,2.0765,1.9706,1.9371,2.0248,2.0413,2.1075,2.3163,2.3453,2.4447,2.7466,2.8293,2.9554,3.2181,0.0,3.4051,0.0,3.6618,0.0,0.0,0.0,0.0,0.0,3.8191,3.8191,3.8191,3.8191,3.8543,3.9296,3.944,3.9895,4.0696,4.082,4.0918,4.0918,4.0918,4.0918,4.0918,0.0,0.0,0.0,4.0918,4.0918,4.0918,4.0918,4.0918,4.0918,4.0918,4.0918,4.0918,4.0918,4.0918,4.0918,4.0918,4.0918,4.0918,4.0918,4.0918,4.0918,4.0918,4.0918,4.0918,4.0918,4.0918,4.0918,4.0918,4.0918,4.0918,4.0918,4.0918,4.0918,4.0918,4.0918,4.0918,4.0918,4.0918,4.0918,4.0918,4.0918,4.0918,4.0918,4.2187,4.2923,4.2503,4.4641,4.5729,4.4675,4.4573,4.4401,4.3954,4.5323,4.6133,4.6133,4.7524,4.7861,4.6974,4.6547,4.5871,4.4968,4.4875,4.4334,4.3379,4.3644,4.3297,3.2293,3.2224,3.1682,3.2652,3.0738,2.8276,2.6913,2.4489,2.2108,2.0703,1.9706,1.9371,2.0248,2.0413,2.0868,2.2273,2.3287,2.4841,2.7528,2.8293,2.9451,3.1747,3.2036,3.2739,3.462,3.6857,0.0,0.0,0.0,0.0,0.0,3.8191,3.8191,3.8191,3.8191,3.8398,3.882,3.9275,3.973,4.0206,4.0675,4.0918,4.0918,4.0918,4.0918,0.0,0.0,0.0,0.0,4.0918,4.0918,4.0918,4.0918,4.0918,4.0918,4.0918,4.0918,4.0918,4.0918,4.0918,4.0918,4.0918,4.0918,4.0918,4.0918,4.0918,4.0918,4.0918,4.0918,4.0918,4.0918,4.0918,4.0918,4.0918,4.0918,4.0918,4.0918,4.0918,4.0918,4.0918,4.0918,4.0918,4.0918,4.0918,4.0918,4.0918,4.0918,4.0918,4.0918,4.2187,4.2538,4.1096,4.2257,4.3132,4.3132,4.3132,4.2503,4.104,4.2327,4.3132,4.3132,4.4504,4.545,4.592,4.455,4.4028,4.4401,4.3015,4.2322,4.2322,4.2322,4.2534,2.9619,3.0493,3.1169,2.911,2.7648,2.6392,2.5069,2.3349,2.1714,2.062,1.9706,1.9371,2.0248,2.0413,2.1158,2.3495,2.4115,2.4942,2.6744,2.8483,2.9953,3.0988,3.3596,3.5521,0.0,0.0,0.0,0.0,0.0,0.0,0.0,3.8191,3.8191,3.8191,3.8191,3.8398,3.882,3.9275,3.973,4.0206,4.0675,4.0918,4.0918,4.0918,0.0,0.0,0.0,0.0,0.0,4.0918,4.0918,4.0918,4.0918,4.0918,4.0918,4.0918,4.0918,4.0918,4.0918,4.0918,4.0918,4.0918,4.0918,4.0918,4.0918,4.0918,4.0918,4.0918,4.0918,4.0918,4.0918,4.0918,4.0918,4.0918,4.0918,4.0918,4.0918,4.0918,4.0918,4.0918,4.0918,4.0918,4.0918,4.0918,4.0918,4.0918,4.0918,4.0918,4.0918,4.1289,4.1557,4.1389,4.1806,4.1945,4.1629,4.1608,4.1542,4.141,4.2764,4.3709,4.4001,4.538,4.5763,4.4897,4.4434,4.3824,4.2962,4.2798,4.287,4.318,4.318,4.3263,2.8873,2.9397,2.9598,2.7825,2.6374,2.5109,2.4136,2.2666,2.1323,2.0558,1.9706,1.9309,2.0038,2.0162,2.0845,2.2895,2.3515,2.4343,2.6084,2.7986,2.9766,3.1278,0.0,0.0,0.0,0.0,0.0,0.0,0.0,0.0,0.0,3.8191,3.8191,3.8191,3.8191,3.8316,3.8551,3.9027,3.9399,3.9688,4.0344,4.0634,4.0634,4.0835,0.0,0.0,0.0,0.0,0.0,4.0918,4.0918,4.0918,4.0918,4.0918,4.0918,4.0918,4.0918,4.0918,4.0918,4.0918,4.0918,4.0918,4.0918,4.0918,4.0918,4.0918,4.0918,4.0918,4.0918,4.0918,4.0918,4.0918,4.0918,4.0918,4.0918,4.0918,4.0918,4.0918,4.0959,4.1146,4.1167,4.1229,4.1395,4.1436,4.1436,4.1436,4.1436,4.1436,4.1436,4.1436,4.154,4.183,4.1871,4.1747,4.1457,4.1436,4.156,4.185,4.2737,4.3349,4.3591,4.4481,4.464,4.387,4.3833,4.3499,4.2803,4.3035,4.3325,4.3615,4.3615,4.3615,0.0,2.8633,2.7216,2.801,2.6341,2.4346,2.3826,2.2374,0.0,2.0454,1.9703,1.9264,1.9803,1.9865,2.0159,2.1178,2.2108,2.3453,2.569,2.7262,2.9368,0.0,3.4113,0.0,0.0,0.0,0.0,0.0,0.0,0.0,0.0,3.8191,3.8191,3.8191,3.8191,3.8191,3.8191,3.8592,3.882,3.882,3.9709,4.0143,4.0164,4.0634,0.0,0.0,0.0,0.0,0.0,4.0918,4.0918,4.0918,4.0918,4.0918,4.0918,4.0918,4.0918,4.0918,4.0918,4.0918,4.0918,4.0918,4.0918,4.0918,4.0918,4.0918,4.0918,4.0918,4.0918,4.0918,4.0918,4.0918,4.0918,4.0918,4.0939,4.0959,4.0959,4.098,4.1146,4.1581,4.1643,4.1788,4.2223,4.2285,4.2285,4.2285,4.2285,4.2285,4.2285,4.2285,4.2306,4.2327,4.2348,4.2348,4.2389,4.2327,4.2306,4.2327,4.2348,4.2348,4.2389,4.2389,4.2596,4.2952,4.2936,4.3142,4.3615,4.3615,4.3635,4.3656,4.3656,4.3677,2.5845,0.0,2.5907,2.4107,2.3923,2.3769,0.0,2.1633,2.1196,2.0156,1.9492,1.9433,2.0576,2.0514,2.1013,2.3329,2.4198,2.515,2.6726,2.9332,3.2098,3.4952,3.5914,3.6535,0.0,0.0,0.0,0.0,0.0,0.0,0.0,3.8191,3.8191,3.8191,3.8191,3.8191,3.8191,3.8592,3.882,3.882,3.9399,3.9668,3.9688,4.0158,0.0,0.0,0.0,0.0,4.0918,4.0918,4.0918,4.0918,4.0918,4.0918,4.0918,4.0918,4.0918,4.0918,4.0918,4.0918,4.0918,4.0918,4.0918,4.0918,4.0918,4.0918,4.0918,4.0918,4.0918,4.0918,4.0918,4.0918,4.0918,4.0918,4.1187,4.1436,4.1436,4.1726,4.1995,4.212,4.214,4.2161,4.2285,4.2285,4.2285,4.2285,4.2285,4.2285,4.2285,4.2285,4.243,4.2725,4.2766,4.2911,4.3263,4.27,4.243,4.2745,4.2766,4.2932,4.3284,4.3284,4.3346,4.3449,4.3449,4.3511,4.3615,4.3615,4.3801,4.4132,4.4132,4.4319,2.3923,2.4869,2.5284,2.3424,2.3546,2.3622,2.1821,2.1317,2.0956,2.0,1.943,1.9388,2.0345,2.0452,2.1095,2.3246,2.4322,0.0,2.8777,3.1174,3.3596,3.6121,3.666,3.7074,0.0,0.0,0.0,0.0,0.0,0.0,0.0,3.8191,3.8191,3.8191,3.8191,3.8191,3.8191,3.8419,3.851,3.851,3.8965,3.9192,3.9192,3.9647,0.0,0.0,0.0,0.0,4.0593,4.0835,4.0918,4.0918,4.0918,4.0918,4.0918,4.0918,4.0918,4.0918,4.0918,4.0918,4.0918,4.0918,4.0918,4.0918,4.0918,4.0918,4.0918,4.0918,4.0918,4.0959,4.1167,4.1229,4.1291,4.1498,4.1747,4.1912,4.1912,4.212,4.2348,4.2518,4.2596,4.2621,4.2849,4.2928,4.2928,4.2928,4.2928,4.2928,4.2928,4.2928,4.2973,4.3221,4.3242,4.3308,4.3594,4.3159,4.2973,4.3221,4.3242,4.3346,4.3594,4.3615,4.3615,4.3615,4.3615,4.3615,4.3615,4.3822,4.4049,4.4319,4.4526,4.4753,2.3296,2.4345,2.5123,2.4037,2.3944,2.369,2.2052,2.1342,2.0814,2.0045,1.9575,1.9492,2.0093,2.0534,0.0,0.0,0.0,0.0,3.0988,3.2714,3.433,3.6535,3.6804,0.0,0.0,0.0,0.0,0.0,0.0,0.0,0.0,3.8191,3.8191,3.8191,3.8191,3.8191,3.8191,3.8191,3.8191,3.8191,3.8564,3.8716,3.8737,3.9192,3.9399,0.0,0.0,0.0,4.0226,4.0634,4.0856,4.0918,4.0918,4.0918,4.0918,4.0918,4.0918,4.0918,4.0918,4.0918,4.0918,4.0918,4.0918,4.0918,4.0918,4.0918,4.0918,4.1001,4.0959,4.1022,4.1477,4.1602,4.1726,4.2182,4.2348,4.2389,4.2389,4.2451,4.2617,4.2952,4.3035,4.3122,4.3532,4.3615,4.3615,4.3615,4.3615,4.3615,4.3615,4.3615,4.3615,4.3615,4.3615,4.3615,4.3615,4.3615,4.3615,4.3615,4.3615,4.3615,4.3615,4.3615,4.3615,4.3615,4.3677,4.3718,4.3718,4.4174,4.4443,4.4526,4.4919,4.5126,2.4148,2.5135,2.5241,2.3236,2.3418,2.36,2.1652,2.1655,2.1735,2.0549,2.0248,2.0596,2.1838,2.2459,2.3205,0.0,0.0,2.9472,0.0,0.0,3.4703,3.6577,0.0,0.0,0.0,0.0,0.0,0.0,0.0,0.0,0.0,3.8191,3.8191,3.8191,3.8191,3.8191,3.8191,3.8191,3.8191,3.8191,3.8253,3.8295,3.8295,3.8716,3.8923,0.0,0.0,3.9833,4.0206,4.0268,4.0551,4.0918,4.0918,4.0918,4.0918,4.0918,4.0918,4.0918,4.0918,4.0918,4.0918,4.0918,4.0918,4.0918,4.0918,4.0918,4.1001,4.1395,4.1208,4.1022,4.1477,4.1602,4.1726,4.2182,4.2538,4.2828,4.2828,4.3118,4.3428,4.3491,4.3511,4.3532,4.3594,4.3615,4.3615,4.3615,4.3615,4.3615,4.3615,4.3615,4.3615,4.3615,4.3615,4.3615,4.3615,4.3615,4.3615,4.3615,4.3615,4.3615,4.3615,4.3615,4.3615,4.3615,4.3987,4.4194,4.4194,4.465,4.5084,4.5478,4.554,4.5788,2.3236,2.3806,2.401,2.3379,2.4242,2.4629,2.2368,2.2235,2.2293,2.1347,2.1158,2.1507,2.2666,0.0,2.5128,2.7759,0.0,3.1664,3.3244,3.406,3.4972,0.0,0.0,0.0,0.0,0.0,0.0,0.0,0.0,0.0,0.0,0.0,3.8191,3.8191,3.8191,3.8191,3.8191,3.8191,3.8191,3.8191,3.8191,3.8191,3.8225,3.8398,3.8502,3.8523,0.0,3.9399,3.9833,4.0102,4.0489,4.0918,4.0918,4.0918,4.0918,4.0918,4.0918,4.0918,4.0918,4.0918,4.0918,4.0918,4.0918,4.0918,4.0918,4.0918,4.1001,4.1477,4.1457,4.1457,4.2104,4.229,4.2414,4.287,4.3139,4.3284,4.3284,4.347,4.3615,4.3615,4.3615,4.3615,4.3615,4.3615,4.3615,4.3615,4.3615,4.3615,4.3615,4.3615,4.3615,4.3615,4.3615,4.3615,4.3615,4.3842,4.3884,4.3635,4.3615,4.3615,4.3615,4.3615,4.3739,4.3987,4.4194,4.4422,4.467,4.5147,4.5478,4.5685,4.5933,4.6121,2.2935,2.3103,2.3269,2.393,0.0,2.5029,2.3486,2.3082,0.0,0.0,0.0,0.0,2.3846,2.5275,0.0,3.0491,3.2147,3.3327,3.4143,0.0,0.0,0.0,0.0,0.0,0.0,0.0,0.0,0.0,0.0,0.0,0.0,0.0,3.8191,3.8191,3.8191,3.8191,3.8191,3.8191,3.8191,3.8191,3.8191,3.8191,3.8191,3.8191,3.8191,3.8212,3.851,3.8923,3.9378,3.9833,4.0288,4.0737,4.0877,4.0918,4.0918,4.0918,4.0918,4.0918,4.0918,4.0918,4.0918,4.0918,4.0918,4.0918,4.0918,4.0918,4.1022,4.1602,4.1767,4.1954,4.2704,4.2873,4.2998,4.3491,4.3615,4.3615,4.3615,4.3615,4.3615,4.3615,4.3615,4.3615,4.3615,4.3615,4.3615,4.3615,4.3615,4.3615,4.3615,4.3615,4.3656,4.376,4.378,4.3822,4.3925,4.4256,4.4319,4.3967,4.3946,4.3946,4.3946,4.3946,4.4112,4.4463,4.4567,4.4795,4.5147,4.5623,4.585,4.585,4.6141,4.6307,2.4808,2.4743,2.4235,2.4793,2.4071,2.3549,2.4742,2.4406,0.0,2.5381,0.0,0.0,0.0,2.8152,3.016,3.1664,3.3078,3.4164,3.4661,0.0,0.0,0.0,0.0,0.0,0.0,0.0,0.0,0.0,0.0,0.0,0.0,0.0,0.0,3.8191,3.8191,3.8191,3.8191,3.8191,3.8191,3.8191,3.8191,3.8191,3.8191,3.8191,3.8191,3.8191,3.8212,3.8481,3.8903,3.9358,3.9833,4.0288,4.0717,4.0918,4.0918,4.0918,4.0918,4.0918,4.0918,4.0918,4.0918,4.0918,4.0918,4.0918,4.0918,4.0918,4.1104,4.1995,4.2244,4.2348,4.2787,4.2873,4.2998,4.3491,4.3615,4.3615,4.3615,4.3615,4.3615,4.3615,4.3615,4.3615,4.3615,4.3615,4.3615,4.3615,4.3615,4.3615,4.3615,4.3615,4.378,4.4215,4.4256,4.4422,4.4857,4.4919,4.494,4.4898,4.4898,4.4898,4.4898,4.4898,4.4919,4.494,4.5374,4.5602,4.5643,4.6038,4.6265,4.6265,4.6286,4.6307,2.2874,2.3296,2.3628,2.3629,2.4161,0.0,0.0,2.5192,2.5877,2.6931,2.7386,0.0,0.0,0.0,3.1581,3.2706,3.401,3.4983,0.0,0.0,0.0,0.0,0.0,0.0,0.0,0.0,0.0,0.0,0.0,0.0,0.0,0.0,0.0,3.7757,3.7757,3.7902,3.8191,3.8191,3.8191,3.8191,3.8191,3.8191,3.8191,3.8191,3.8191,3.8191,3.8191,3.844,3.882,3.9006,3.9523,4.0247,4.0717,4.0918,4.0918,4.0918,4.0918,4.0918,4.0918,4.0918,4.0918,4.0918,4.0918,4.0918,4.0918,4.1104,4.1477,4.212,4.2493,4.2766,4.3221,4.3346,4.3387,4.3573,4.3615,4.3615,4.3615,4.3615,4.3615,4.3615,4.3615,4.3615,4.3615,4.3615,4.3615,4.3615,4.3615,4.3718,4.4008,4.4049,4.4215,4.4691,4.4733,4.4919,4.5374,4.5416,4.554,4.5769,4.5312,4.5002,4.5002,4.5002,4.5126,4.5416,4.5602,4.583,4.6058,4.6224,4.6307,4.6307,4.6307,4.6307,2.1998,2.244,2.3046,2.3047,0.0,0.0,2.5554,2.633,2.7427,2.8893,2.9348,0.0,0.0,0.0,0.0,0.0,3.4527,0.0,0.0,0.0,0.0,0.0,0.0,0.0,0.0,0.0,0.0,0.0,0.0,0.0,0.0,0.0,0.0,0.0,3.7281,3.7508,3.7964,3.7964,3.8046,3.8191,3.8191,3.8191,3.8191,3.8191,3.8191,3.8191,3.8191,3.8357,3.8613,3.8758,3.9358,4.0247,4.0717,4.0918,4.0918,4.0918,4.0918,4.0918,4.0918,4.0918,4.0918,4.0918,4.0918,4.0918,4.0918,4.1229,4.1705,4.2161,4.258,4.3035,4.3491,4.3615,4.3615,4.3615,4.3615,4.3615,4.3615,4.3615,4.3615,4.3615,4.3615,4.3615,4.3615,4.3615,4.3615,4.3615,4.3739,4.3946,4.4256,4.4422,4.4691,4.5167,4.5333,4.554,4.5871,4.5892,4.6016,4.6286,4.5728,4.5416,4.5416,4.5416,4.5561,4.5892,4.5892,4.5996,4.6307,4.6307,4.6307,4.6307,4.6307,4.6307,2.2926,2.2641,2.2654,2.3332,0.0,0.0,2.747,2.7921,2.8706,3.1457,3.1712,3.1526,3.1953,0.0,0.0,3.3335,0.0,0.0,0.0,0.0,0.0,0.0,0.0,0.0,0.0,0.0,0.0,0.0,0.0,0.0,0.0,0.0,0.0,0.0,3.6804,3.7011,3.7488,3.7488,3.7715,3.8171,3.8191,3.8191,3.8191,3.8191,3.8191,3.8191,3.8191,3.8191,3.8212,3.8634,3.9358,4.0226,4.0696,4.0897,4.0918,4.0918,4.0918,4.0918,4.0918,4.0918,4.0918,4.0918,4.0918,4.0918,4.0918,4.1229,4.1705,4.2161,4.258,4.3035,4.3491,4.3615,4.3615,4.3615,4.3615,4.3615,4.3615,4.3615,4.3615,4.3615,4.3615,4.3615,4.3615,4.3615,4.3615,4.3615,4.4008,4.4298,4.4319,4.4712,4.5188,4.5643,4.6038,4.6307,4.6307,4.6307,4.6307,4.6307,4.6307,4.6307,4.6307,4.6307,4.6307,4.6307,4.6307,4.6307,4.6307,4.6307,4.6307,4.6307,4.6307,4.6307,2.1393,2.1387,2.1852,2.2609,2.4724,2.7112,0.0,2.9373,0.0,0.0,3.3128,3.2859,3.2954,0.0,0.0,0.0,0.0,0.0,0.0,0.0,0.0,0.0,0.0,0.0,0.0,0.0,0.0,0.0,0.0,0.0,0.0,0.0,0.0,0.0,3.6328,3.6535,3.7011,3.7343,3.757,3.7695,3.8026,3.8191,3.8191,3.8191,3.8191,3.8191,3.8191,3.8191,3.8212,3.8634,3.9171,3.9751,4.0206,4.0613,4.0918,4.0918,4.0918,4.0918,4.0918,4.0918,4.0918,4.0918,4.0918,4.0918,4.0918,4.1229,4.1705,4.2161,4.258,4.3035,4.3491,4.3615,4.3615,4.3615,4.3615,4.3615,4.3615,4.3615,4.3615,4.3615,4.3615,4.3615,4.3615,4.3615,4.3615,4.3615,4.4008,4.4546,4.5188,4.5664,4.5955,4.61,4.6224,4.6307,4.6307,4.6307,4.6307,4.6307,4.6307,4.6307,4.6307,4.6307,4.6307,4.6307,4.6307,4.6307,4.6307,4.6307,4.6307,4.6307,4.6307,4.6307,2.1618,2.179,2.2336,2.3555,2.5587,2.7949,3.0491,3.136,0.0,0.0,3.3998,3.375,3.3915,3.404,0.0,0.0,0.0,0.0,0.0,0.0,0.0,0.0,0.0,0.0,0.0,0.0,0.0,0.0,0.0,0.0,0.0,0.0,0.0,0.0,3.58,3.6059,3.6535,3.6804,3.7032,3.7218,3.7695,3.7902,3.7922,3.8109,3.8191,3.8191,3.8191,3.8191,3.8212,3.8634,3.8985,3.9296,3.9937,4.0386,4.0634,4.0856,4.0918,4.0918,4.0918,4.0918,4.0918,4.0918,4.0918,4.0918,4.0918,4.1229,4.1705,4.2161,4.258,4.3035,4.3491,4.3615,4.3615,4.3615,4.3615,4.3615,4.3615,4.3615,4.3615,4.3615,4.3615,4.3615,4.3615,4.3615,4.3615,4.3615,4.4174,4.4919,4.583,4.6141,4.6307,4.6307,4.6307,4.6307,4.6307,4.6307,4.6307,4.6307,4.6307,4.6307,4.6307,4.6307,4.6307,4.6307,4.6307,4.6307,4.6307,4.6307,4.6307,4.6307,4.6307,4.6307,2.2793,2.3045,2.3556,2.5483,2.6809,2.857,3.2036,3.3492,3.4247,3.4744,0.0,3.435,3.4765,3.4495,0.0,0.0,0.0,0.0,0.0,0.0,0.0,0.0,0.0,0.0,0.0,0.0,0.0,0.0,0.0,0.0,0.0,0.0,0.0,3.5387,3.5387,3.5593,3.6039,3.6101,3.6328,0.0,3.7218,3.7425,3.7446,3.7964,3.8191,3.8191,3.8191,3.8191,3.8212,3.8592,3.8778,3.8903,3.9744,4.0137,4.0247,4.0675,4.0877,4.0918,4.0918,4.0918,4.0918,4.0918,4.0918,4.0918,4.0918,4.1208,4.1643,4.2161,4.2538,4.2973,4.3491,4.3615,4.3615,4.3615,4.3615,4.3615,4.3615,4.3615,4.3615,4.3615,4.3615,4.3615,4.3615,4.3615,4.3635,4.3718,4.4443,4.5312,4.6183,4.6307,4.6307,4.6307,4.6307,4.6307,4.6307,4.6307,4.6307,4.6307,4.6307,4.6307,4.6307,4.6307,4.6307,4.6307,4.6307,4.6307,4.6307,4.6307,4.6307,4.6307,4.6307,4.6307,2.163,2.1977,2.2791,2.5711,2.8508,3.1098,3.3315,3.3957,3.433,3.5107,3.5211,3.5169,3.5252,3.519,0.0,0.0,0.0,0.0,0.0,0.0,0.0,0.0,0.0,0.0,0.0,0.0,0.0,0.0,0.0,0.0,0.0,0.0,0.0,3.5387,3.5387,3.5449,3.5531,3.5935,3.6163,0.0,3.6722,3.6949,3.697,3.7819,3.8191,3.8191,3.8191,3.8191,3.8225,3.8295,3.8543,3.8841,3.9027,3.9544,4.0206,4.0288,4.0593,4.0918,4.0918,4.0918,4.0918,4.0918,4.0918,4.0918,4.0918,4.098,4.1229,4.2058,4.2368,4.2617,4.3408,4.3615,4.3615,4.3615,4.3615,4.3615,4.3615,4.3615,4.3615,4.3615,4.3615,4.3615,4.3615,4.3615,4.3863,4.4588,4.4857,4.5312,4.6183,4.6307,4.6307,4.6307,4.6307,4.6307,4.6307,4.6307,4.6307,4.6307,4.6307,4.6307,4.6307,4.6307,4.6307,4.6307,4.6307,4.6307,4.6307,4.6307,4.6307,4.6307,4.6307,4.6307,2.2348,2.3018,2.3908,2.7389,2.9834,3.1823,3.3397,3.3936,3.4288,3.4962,3.5273,3.5387,3.5387,3.5387,0.0,0.0,0.0,0.0,0.0,0.0,0.0,0.0,0.0,0.0,0.0,0.0,0.0,0.0,0.0,0.0,0.0,3.5387,3.5387,3.5387,3.5387,3.5387,3.5387,3.5635,3.5738,3.5759,3.6246,3.6597,3.6825,3.7529,3.7984,3.8191,3.8191,3.8191,3.8191,3.8191,3.8316,3.851,3.8737,3.9254,3.9895,4.0123,4.051,4.0918,4.0918,4.0918,4.0918,4.0918,4.0918,4.0918,4.0918,4.0918,4.1063,4.1767,4.212,4.2451,4.3097,4.3449,4.3615,4.3615,4.3615,4.3615,4.3615,4.3615,4.3615,4.3615,4.3615,4.3615,4.3615,4.3615,4.3863,4.465,4.4898,4.5312,4.6183,4.6307,4.6307,4.6307,4.6307,4.6307,4.6307,4.6307,4.6307,4.6307,4.6307,4.6307,4.6307,4.6307,4.6307,4.6307,4.6307,4.6307,4.6307,4.6307,4.6307,4.6307,4.6307,4.6307,2.2891,2.4228,2.5563,2.9021,3.0663,3.174,3.3004,3.3646,3.4143,3.4682,3.5107,3.5387,3.5387,3.5387,0.0,0.0,0.0,0.0,0.0,0.0,0.0,0.0,0.0,0.0,0.0,0.0,0.0,0.0,0.0,0.0,3.5387,3.5387,3.5387,3.5387,3.5387,3.5387,3.5387,3.5387,3.5387,3.5387,3.578,3.6214,3.6701,3.7074,3.755,3.8067,3.815,3.8191,3.8191,3.8191,3.8191,3.8212,3.8551,3.8985,3.944,3.9916,4.0386,4.0779,4.0877,4.0918,4.0918,4.0918,4.0918,4.0918,4.0918,4.0918,4.1001,4.1477,4.1933,4.2389,4.2807,4.3263,4.3615,4.3615,4.3615,4.3615,4.3615,4.3615,4.3615,4.3615,4.3615,4.3615,4.3615,4.3615,4.3804,4.4487,4.4836,4.5312,4.6183,4.6307,4.6307,4.6307,4.6307,4.6307,4.6307,4.6307,4.6307,4.6307,4.6307,4.6307,4.6307,4.6307,4.6307,4.6307,4.6307,4.6307,4.6307,4.6307,4.6307,4.6307,4.6307,4.6307,2.0238,2.3117,2.6312,2.8773,3.0387,3.1629,3.2574,3.3161,3.375,0.0,3.5107,3.5387,3.5387,0.0,0.0,0.0,0.0,0.0,0.0,0.0,0.0,0.0,0.0,0.0,0.0,0.0,0.0,0.0,0.0,0.0,3.5387,3.5387,3.5387,3.5387,3.5387,3.5387,3.5387,3.5387,3.5387,3.5387,3.5449,3.5749,3.6204,3.6266,3.6763,3.7612,3.8005,3.8191,3.8191,3.8191,3.8191,3.8225,3.8253,3.851,3.8965,3.942,3.9895,4.033,4.0737,4.0918,4.0918,4.0918,4.0918,4.0918,4.0918,4.0918,4.1001,4.1477,4.1933,4.2389,4.2807,4.3263,4.3615,4.3615,4.3615,4.3615,4.3615,4.3615,4.3615,4.3615,4.3615,4.3615,4.3615,4.3615,4.3905,4.4795,4.496,4.5312,4.6183,4.6307,4.6307,4.6307,4.6307,4.6307,4.6307,4.6307,4.6307,4.6307,4.6307,4.6307,4.6307,4.6307,4.6307,4.6307,4.6307,4.6307,4.6307,4.6307,4.6307,4.6307,4.6307,4.6307,2.0727,2.3609,2.6457,2.8731,3.016,3.1236,3.2119,3.2871,3.3605,3.4268,3.4765,3.5128,3.5376,0.0,0.0,0.0,0.0,0.0,0.0,0.0,0.0,0.0,0.0,0.0,0.0,0.0,0.0,0.0,0.0,3.5387,3.5387,3.5387,3.5387,3.5387,3.5387,3.5387,3.5387,3.5387,3.5387,3.5387,3.5387,3.549,3.5697,3.5997,3.6618,3.7508,3.7715,3.7943,3.8191,3.8191,3.8191,3.8191,3.8191,3.846,3.8861,3.9337,3.9792,4.0268,4.0737,4.0918,4.0918,4.0918,4.0918,4.0918,4.0918,4.0918,4.0959,4.1167,4.1747,4.2327,4.2534,4.3077,4.3615,4.3615,4.3615,4.3615,4.3615,4.3615,4.3615,4.3615,4.3615,4.3615,4.3615,4.3615,4.376,4.4153,4.5084,4.5852,4.6265,4.6307,4.6307,4.6307,4.6307,4.6307,4.6307,4.6307,4.6307,4.6307,4.6307,4.6307,4.6307,4.6307,4.6307,4.6307,4.6307,4.6307,4.6307,4.6307,4.6307,4.6307,4.6307,4.6307,2.0868,2.3225,2.5275,2.78,2.9394,3.0574,3.1457,3.2395,3.3203,0.0,3.4205,3.462,3.5148,0.0,0.0,0.0,0.0,0.0,0.0,0.0,0.0,0.0,0.0,0.0,0.0,0.0,0.0,0.0,0.0,3.5387,3.5387,3.5387,3.5387,3.5387,3.5387,3.5387,3.5387,3.5387,3.5387,3.5387,3.5387,3.5387,3.5407,3.5738,3.637,3.7156,3.7384,3.7695,3.8026,3.8129,3.8191,3.8191,3.8191,3.8398,3.8716,3.9296,3.973,4.0102,4.0675,4.0918,4.0918,4.0918,4.0918,4.0918,4.0918,4.0918,4.0918,4.0918,4.1581,4.2285,4.2285,4.2969,4.3615,4.3615,4.3615,4.3615,4.3615,4.3615,4.3615,4.3615,4.3615,4.3615,4.3615,4.3615,4.376,4.4197,4.5438,4.6307,4.6307,4.6307,4.6307,4.6307,4.6307,4.6307,4.6307,4.6307,4.6307,4.6307,4.6307,4.6307,4.6307,4.6307,4.6307,4.6307,4.6307,4.6307,4.6307,4.6307,4.6307,4.6307,4.6307,4.6307,1.9064,2.0635,2.2108,2.5297,2.7738,2.9622,3.0553,3.1436,3.2326,3.3252,3.346,3.375,3.4661,0.0,0.0,0.0,0.0,0.0,0.0,0.0,0.0,0.0,0.0,0.0,0.0,0.0,0.0,0.0,0.0,3.5387,3.5387,3.5387,3.5387,3.5387,3.5387,3.5387,3.5387,3.5387,3.5387,3.5387,3.5387,3.5387,3.5387,3.5407,3.5728,3.6225,3.7115,3.7508,3.757,3.8005,3.8191,3.8191,3.8191,3.8191,3.8316,3.9171,3.9523,3.9668,4.0572,4.0918,4.0918,4.0918,4.0918,4.0918,4.0918,4.0918,4.0918,4.0918,4.1581,4.2285,4.2285,4.2969,4.3615,4.3615,4.3615,4.3615,4.3615,4.3615,4.3615,4.3615,4.3615,4.3615,4.3615,4.3615,4.4156,4.5893,4.6245,4.6307,4.6307,4.6307,4.6307,4.6307,4.6307,4.6307,4.6307,4.6307,4.6307,4.6307,4.6307,4.6307,4.6307,4.6307,4.6307,4.6307,4.6307,4.6307,4.6307,4.6307,4.6307,4.6307,4.6307,4.6307,1.8072,1.9751,2.1673,2.4033,2.6333,2.8259,2.9145,3.0713,3.2181,3.2801,3.3182,3.3605,3.4226,0.0,0.0,0.0,0.0,0.0,0.0,0.0,0.0,0.0,0.0,0.0,0.0,0.0,0.0,0.0,0.0,0.0,3.5387,3.5387,3.5387,3.5387,3.5387,3.5387,3.5387,3.5387,3.5387,3.5387,3.5387,3.5387,3.5387,3.5387,3.5469,3.5707,3.6328,3.6949,3.7529,3.8005,3.8191,3.8191,3.8191,3.8191,3.8295,3.9171,3.9502,3.9626,4.0572,4.0918,4.0918,4.0918,4.0918,4.0918,4.0918,4.0918,4.0918,4.0918,4.1581,4.2285,4.2285,4.2969,4.3615,4.3615,4.3615,4.3615,4.3615,4.3615,4.3615,4.3615,4.3615,4.3615,4.3615,4.4549,4.5541,4.6203,4.6307,4.6307,4.6307,4.6307,4.6307,4.6307,4.6307,4.6307,4.6307,4.6307,4.6307,4.6307,4.6307,4.6307,4.6307,4.6307,4.6307,4.6307,4.6307,4.6307,4.6307,4.6307,4.6307,4.6307,4.6307,4.6307,1.6946,1.8589,2.0721,2.2893,2.4696,2.6395,2.8193,2.9761,3.1126,3.2057,3.2623,3.312,3.375,3.4123,0.0,0.0,0.0,0.0,0.0,0.0,0.0,0.0,0.0,0.0,0.0,0.0,0.0,0.0,0.0,0.0,3.5387,3.5387,3.5387,3.5387,3.5387,3.5387,3.5387,3.5387,3.5387,3.5387,3.5387,3.5387,3.5387,3.5387,3.5387,3.5407,3.5914,3.6556,3.7301,3.7757,3.8046,3.8191,3.8191,3.8191,3.8274,3.9006,3.9378,3.9606,4.0386,4.0758,4.0918,4.0918,4.0918,4.0918,4.0918,4.0918,4.0939,4.1104,4.1705,4.2327,4.2472,4.3035,4.3615,4.3615,4.3615,4.3615,4.3615,4.3615,4.3615,4.3615,4.378,4.3946,4.4049,4.5293,4.6307,4.6307,4.6307,4.6307,4.6307,4.6307,4.6307,4.6307,4.6307,4.6307,4.6307,4.6307,4.6307,4.6307,4.6307,4.6307,4.6307,4.6307,4.6307,4.6307,4.6307,4.6307,4.6307,4.6307,4.6307,4.6307,4.6307,4.6307,0.0,0.0,0.0,0.0,0.0,2.4033,2.7614,2.8438,2.9021,3.0932,3.1629,3.2202,3.3161,3.3377,0.0,0.0,0.0,0.0,0.0,0.0,0.0,0.0,0.0,0.0,0.0,0.0,0.0,0.0,0.0,3.5387,3.5387,3.5387,3.5387,3.5387,3.5387,3.5387,3.5387,3.5387,3.5387,3.5387,3.5387,3.5387,3.5387,3.5387,3.5387,3.5407,3.5862,3.637,3.6846,3.7301,3.7757,3.8191,3.8191,3.8191,3.8233,3.8654,3.9109,3.9564,4.004,4.051,4.0918,4.0918,4.0918,4.0918,4.0918,4.0918,4.1001,4.1477,4.1933,4.2389,4.2828,4.3263,4.3615,4.3615,4.3615,4.3615,4.3615,4.3615,4.3615,4.3615,4.4073,4.459,4.494,4.5707,4.6307,4.6307,4.6307,4.6307,4.6307,4.6307,4.6307,4.6307,4.6307,4.6307,4.6307,4.6307,4.6307,4.6307,4.6307,4.6307,4.6307,4.6307,4.6307,4.6307,4.6307,4.6307,4.6307,4.6307,4.6307,4.6307,4.6307,4.6307,1.6292,0.0,0.0,0.0,0.0,0.0,0.0,0.0,2.6349,2.8876,2.9451,3.0113,3.2036,3.2388,0.0,0.0,0.0,0.0,0.0,0.0,0.0,0.0,0.0,0.0,0.0,0.0,0.0,0.0,3.5387,3.5387,3.5387,3.5387,3.5387,3.5387,3.5387,3.5387,3.5387,3.5387,3.5387,3.5387,3.5387,3.5387,3.5387,3.5387,3.5387,3.5407,3.5531,3.6028,3.6846,3.7301,3.7757,3.8191,3.8191,3.8191,3.8233,3.8654,3.9109,3.9564,4.004,4.051,4.0918,4.0918,4.0918,4.0918,4.0918,4.0918,4.1001,4.1477,4.1933,4.2472,4.3221,4.3511,4.3615,4.3615,4.3615,4.3615,4.3615,4.3615,4.3615,4.3615,4.4073,4.459,4.494,4.5707,4.6307,4.6307,4.6307,4.6307,4.6307,4.6307,4.6307,4.6307,4.6307,4.6307,4.6307,4.6307,4.6307,4.6307,4.6307,4.6307,4.6307,4.6307,4.6307,4.6307,4.6307,4.6307,4.6307,4.6307,4.6307,4.6307,4.6307,4.6307,0.0,0.0,0.0,0.0,0.0,0.0,0.0,2.3805,2.5025,0.0,2.8603,2.9435,3.1126,3.1457,0.0,0.0,0.0,0.0,0.0,0.0,0.0,0.0,0.0,0.0,0.0,3.5148,0.0,3.5387,3.5387,3.5387,3.5387,3.5387,3.5387,3.5387,3.5387,3.5387,3.5387,3.5387,3.5387,3.5387,3.5387,3.5387,3.5387,3.5387,3.5387,3.5387,3.5387,3.58,3.6556,3.7011,3.7591,3.8191,3.8191,3.8191,3.8212,3.8481,3.8944,3.9544,3.9813,4.0344,4.0918,4.0918,4.0918,4.0918,4.0918,4.0918,4.1042,4.1705,4.2368,4.2952,4.347,4.3615,4.3615,4.3615,4.3615,4.3615,4.3615,4.3615,4.3677,4.3946,4.4259,4.459,4.494,4.5707,4.6307,4.6307,4.6307,4.6307,4.6307,4.6307,4.6307,4.6307,4.6307,4.6307,4.6307,4.6307,4.6307,4.6307,4.6307,4.6307,4.6307,4.6307,4.6307,4.6307,4.6307,4.6307,4.6307,4.6307,4.6307,4.6307,4.6307,4.6307,1.8306,1.8878,0.0,0.0,0.0,0.0,2.3205,2.3743,2.4323,0.0,2.8048,2.8959,3.0036,3.0305,0.0,0.0,0.0,0.0,0.0,0.0,0.0,0.0,0.0,0.0,3.4661,3.4703,3.4868,3.5252,3.5283,3.5345,3.5387,3.5387,3.5387,3.5387,3.5387,3.5387,3.5387,3.5387,3.5387,3.5387,3.5387,3.5387,3.5387,3.5387,3.5387,3.5387,3.5387,3.5656,3.6142,3.6618,3.7322,3.8109,3.8171,3.8191,3.8191,3.8191,3.875,3.9502,3.9502,4.0116,4.0918,4.0918,4.0918,4.0918,4.0918,4.0918,4.1104,4.2037,4.2948,4.3615,4.3615,4.3615,4.3615,4.3615,4.3615,4.3615,4.3615,4.3615,4.3801,4.4383,4.4549,4.4673,4.496,4.5707,4.6307,4.6307,4.6307,4.6307,4.6307,4.6307,4.6307,4.6307,4.6307,4.6307,4.6307,4.6307,4.6307,4.6307,4.6307,4.6307,4.6307,4.6307,4.6307,4.6307,4.6307,4.6307,4.6307,4.6307,4.6307,4.6307,4.6307,4.6307,1.955,1.9827,2.0162,0.0,0.0,0.0,0.0,2.0928,2.2128,0.0,2.426,2.5007,2.7037,2.7966,2.84,0.0,0.0,0.0,0.0,0.0,0.0,0.0,0.0,0.0,3.4226,3.4226,3.4268,3.435,3.4703,3.5076,3.5366,3.5387,3.5387,3.5387,3.5387,3.5387,3.5387,3.5387,3.5387,3.5387,3.5387,3.5387,3.5387,3.5387,3.5387,3.5387,3.5387,3.5656,3.6142,3.6618,3.7136,3.7653,3.8046,3.8191,3.8191,3.8191,3.875,3.9502,3.9502,4.0116,4.0918,4.0918,4.0918,4.0918,4.0918,4.0918,4.1104,4.2037,4.2948,4.3615,4.3615,4.3615,4.3615,4.3615,4.3615,4.3615,4.3615,4.3615,4.3801,4.4383,4.488,4.5188,4.5022,4.5707,4.6307,4.6307,4.6307,4.6307,4.6307,4.6307,4.6307,4.6307,4.6307,4.6307,4.6307,4.6307,4.6307,4.6307,4.6307,4.6307,4.6307,4.6307,4.6307,4.6307,4.6307,4.6307,4.6307,4.6307,4.6307,4.6307,4.6307,4.6307,2.0679,2.0762,2.1033,2.0863,0.0,0.0,0.0,0.0,2.1613,2.3453,2.3494,2.3743,2.5564,0.0,2.6431,0.0,0.0,0.0,0.0,0.0,0.0,0.0,0.0,0.0,3.3037,3.3501,3.3853,3.4081,3.4309,3.464,3.5066,3.5086,3.519,3.5387,3.5387,3.5387,3.5387,3.5387,3.5387,3.5387,3.5387,3.5387,3.5387,3.5387,3.5387,3.5387,3.5387,3.5531,3.5832,3.6515,3.6949,3.7218,3.7922,3.8191,3.8191,3.8191,3.875,3.9502,3.9502,4.0116,4.0918,4.0918,4.0918,4.0918,4.0918,4.1063,4.1395,4.2099,4.2745,4.3287,4.3553,4.3615,4.3615,4.3615,4.3615,4.3615,4.3615,4.3615,4.3698,4.397,4.4756,4.5438,4.5643,4.5996,4.6307,4.6307,4.6307,4.6307,4.6307,4.6307,4.6307,4.6307,4.6307,4.6307,4.6307,4.6307,4.6307,4.6307,4.6307,4.6307,4.6307,4.6307,4.6307,4.6307,4.6307,4.6307,4.6307,4.6307,4.6307,4.6307,4.6307,4.6307,0.0,0.0,0.0,0.0,0.0,2.1675,0.0,0.0,0.0,0.0,0.0,0.0,0.0,0.0,0.0,0.0,0.0,0.0,0.0,0.0,0.0,0.0,0.0,0.0,0.0,3.2147,3.29,3.3895,3.3646,3.3791,3.462,3.4744,3.4951,3.5273,3.5345,3.5387,3.5387,3.5387,3.5387,3.5387,3.5387,3.5387,3.5387,3.5387,3.5387,3.5387,3.5387,3.5387,3.5469,3.6411,3.6804,3.6887,3.7819,3.8191,3.8191,3.8191,3.875,3.9502,3.9502,4.0116,4.0918,4.0918,4.0918,4.0918,4.0918,4.1229,4.1705,4.2161,4.258,4.3035,4.3491,4.3615,4.3615,4.3615,4.3615,4.3615,4.3615,4.3615,4.3615,4.3615,4.4546,4.5498,4.5955,4.6183,4.6307,4.6307,4.6307,4.6307,4.6307,4.6307,4.6307,4.6307,4.6307,4.6307,4.6307,4.6307,4.6307,4.6307,4.6307,4.6307,4.6307,4.6307,4.6307,4.6307,4.6307,4.6307,4.6307,4.6307,4.6307,4.6307,4.6307,4.6307,0.0,0.0,0.0,0.0,2.3909,0.0,0.0,0.0,0.0,0.0,0.0,0.0,0.0,0.0,0.0,0.0,0.0,0.0,0.0,0.0,0.0,0.0,0.0,0.0,0.0,0.0,3.0346,3.3273,3.2009,3.1989,3.406,3.4558,3.4806,3.4868,3.5211,3.5387,3.5387,3.5387,3.5387,3.5387,3.5387,3.5387,3.5387,3.5387,3.5387,3.5387,3.5387,3.5387,3.5469,3.6411,3.6804,3.6887,3.7819,3.8191,3.8191,3.8191,3.875,3.9502,3.9502,4.0116,4.0918,4.0918,4.0918,4.0918,4.0918,4.1229,4.1705,4.2161,4.258,4.3035,4.3491,4.3615,4.3615,4.3615,4.3615,4.3615,4.3615,4.3615,4.3615,4.3615,4.4381,4.5064,4.5126,4.5769,4.6307,4.6307,4.6307,4.6307,4.6307,4.6307,4.6307,4.6307,4.6307,4.6307,4.6307,4.6307,4.6307,4.6307,4.6307,4.6307,4.6307,4.6307,4.6307,4.6307,4.6307,4.6307,4.6307,4.6307,4.6307,4.6307,4.6307,4.6307,0.0,0.0,0.0,0.0,0.0,0.0,0.0,0.0,2.1963,0.0,0.0,0.0,0.0,0.0,0.0,0.0,0.0,0.0,0.0,0.0,0.0,0.0,0.0,0.0,0.0,0.0,0.0,0.0,0.0,3.1174,3.3182,3.3998,3.4516,3.4786,3.519,3.5387,3.5387,3.5387,3.5387,3.5387,3.5387,3.5387,3.5387,3.5387,3.5387,3.5387,3.5387,3.5387,3.5469,3.6411,3.6804,3.6887,3.7819,3.8191,3.8191,3.8191,3.875,3.9502,3.9502,4.0116,4.0918,4.0918,4.0918,4.0918,4.0918,4.1042,4.1353,4.2078,4.243,4.2704,4.3428,4.3615,4.3615,4.3615,4.3615,4.3615,4.3615,4.3615,4.3615,4.3615,4.436,4.5043,4.5209,4.581,4.6307,4.6307,4.6307,4.6307,4.6307,4.6307,4.6307,4.6307,4.6307,4.6307,4.6307,4.6307,4.6307,4.6307,4.6307,4.6307,4.6307,4.6307,4.6307,4.6307,4.6307,4.6307,4.6307,4.6307,4.6307,4.6307,4.6307,4.6307,2.5501,0.0,0.0,0.0,0.0,0.0,0.0,0.0,0.0,0.0,0.0,0.0,0.0,0.0,0.0,0.0,0.0,0.0,0.0,0.0,0.0,0.0,0.0,0.0,0.0,0.0,0.0,0.0,0.0,0.0,3.2202,3.3099,3.3874,3.4578,3.5004,3.5293,3.5387,3.5387,3.5387,3.5387,3.5387,3.5387,3.5387,3.5387,3.5387,3.5387,3.5387,3.5387,3.5469,3.6411,3.6804,3.6887,3.7819,3.8191,3.8191,3.8191,3.875,3.9502,3.9502,4.0116,4.0918,4.0918,4.0918,4.0918,4.0918,4.0918,4.1104,4.2037,4.2285,4.2513,4.3366,4.3615,4.3615,4.3615,4.3615,4.3615,4.3615,4.3615,4.3615,4.3615,4.436,4.5084,4.5335,4.5893,4.6307,4.6307,4.6307,4.6307,4.6307,4.6307,4.6307,4.6307,4.6307,4.6307,4.6307,4.6307,4.6307,4.6307,4.6307,4.6307,4.6307,4.6307,4.6307,4.6307,4.6307,4.6307,4.6307,4.6307,4.6307,4.6307,4.6307,4.6307,0.0,0.0,0.0,0.0,0.0,0.0,0.0,0.0,2.3701,0.0,0.0,0.0,0.0,0.0,0.0,0.0,0.0,0.0,0.0,0.0,0.0,0.0,0.0,0.0,0.0,0.0,0.0,0.0,0.0,0.0,3.1263,3.1829,3.2698,3.4081,3.4578,3.5013,3.5387,3.5387,3.5387,3.5387,3.5387,3.5387,3.5387,3.5387,3.5387,3.5387,3.5387,3.5387,3.5469,3.6411,3.6804,3.6887,3.7819,3.8191,3.8191,3.8191,3.875,3.9502,3.9502,4.0116,4.0918,4.0918,4.0918,4.0918,4.0918,4.0918,4.1104,4.2037,4.2285,4.2513,4.3366,4.3615,4.3615,4.3615,4.3615,4.3615,4.3615,4.3615,4.3615,4.3615,4.436,4.5084,4.5335,4.5893,4.6307,4.6307,4.6307,4.6307,4.6307,4.6307,4.6307,4.6307,4.6307,4.6307,4.6307,4.6307,4.6307,4.6307,4.6307,4.6307,4.6307,4.6307,4.6307,4.6307,4.6307,4.6307,4.6307,4.6307,4.6307,4.6307,4.6307,4.6307,0.0,0.0,2.9787,2.7034,0.0,0.0,0.0,0.0,0.0,0.0,0.0,0.0,0.0,0.0,0.0,0.0,0.0,0.0,0.0,0.0,0.0,0.0,0.0,0.0,0.0,0.0,0.0,0.0,2.7244,0.0,0.0,3.1726,3.2801,3.3625,3.4392,3.4993,3.5387,3.5387,3.5387,3.5387,3.5387,3.5387,3.5387,3.5387,3.5387,3.5387,3.5387,3.5387,3.5469,3.6411,3.6804,3.6887,3.7819,3.8191,3.8191,3.8191,3.875,3.9585,4.022,4.0613,4.0918,4.0918,4.0918,4.0918,4.0918,4.0918,4.1104,4.2037,4.2285,4.2513,4.3366,4.3615,4.3615,4.3615,4.3615,4.3615,4.3615,4.3615,4.3615,4.3615,4.436,4.5022,4.5126,4.5769,4.6307,4.6307,4.6307,4.6307,4.6307,4.6307,4.6307,4.6307,4.6307,4.6307,4.6307,4.6307,4.6307,4.6307,4.6307,4.6307,4.6307,4.6307,4.6307,4.6307,4.6307,4.6307,4.6307,4.6307,4.6307,4.6307,4.6307,4.6307,2.9642,3.0325,0.0,0.0,2.7762,0.0,2.4717,0.0,0.0,0.0,0.0,0.0,0.0,0.0,0.0,0.0,0.0,0.0,0.0,0.0,0.0,0.0,0.0,0.0,0.0,0.0,2.4405,2.6623,2.6043,0.0,0.0,0.0,3.225,3.3377,3.4143,3.4797,3.5387,3.5387,3.5387,3.5387,3.5387,3.5387,3.5387,3.5387,3.5387,3.5387,3.5387,3.549,3.5697,3.6494,3.6908,3.7115,3.7881,3.8191,3.8191,3.8191,3.875,3.9626,4.0572,4.0918,4.0918,4.0918,4.0918,4.0918,4.0918,4.0918,4.1104,4.2037,4.2285,4.2513,4.3366,4.3615,4.3615,4.3615,4.3615,4.3615,4.3615,4.3615,4.3615,4.3615,4.436,4.5002,4.5002,4.5707,4.6307,4.6307,4.6307,4.6307,4.6307,4.6307,4.6307,4.6307,4.6307,4.6307,4.6307,4.6307,4.6307,4.6307,4.6307,4.6307,4.6307,4.6307,4.6307,4.6307,4.6307,4.6307,4.6307,4.6307,4.6307,4.6307,4.6307,4.6307]},{"header":{"parameterUnit":"m.s-1","parameterCategory":1,"la1":30.6,"la2":29.2853,"lo1":-89.7004,"lo2":-87.6739,"dy":0.0162,"dx":0.0183,"nx":112,"ny":82,"refTime":"2026-03-11T00:00:00:Z","depth":0,"parameterNumber":3,"parameterNumberName":"V-component_of_WINDS"},"data":[0.0,0.0,0.0,0.0,0.0,0.0,0.0,0.0,0.0,0.0,0.0,0.0,0.0,0.0,0.0,0.0,0.0,0.0,0.0,0.0,0.0,0.0,0.0,0.0,0.0,0.0,0.0,0.0,0.0,0.0,0.0,0.0,0.0,0.0,0.0,0.0,0.0,0.0,0.0,0.0,0.0,0.0,0.0,0.0,0.0,0.0,0.0,0.0,0.0,0.0,0.0,0.0,0.0,0.0,0.0,0.0,0.0,0.0,0.0,0.0,0.0,0.0,0.0,0.0,0.0,0.0,0.0,0.0,0.0,0.0,0.0,0.0,0.0,0.0,0.0,0.0,0.0,0.0,0.0,0.0,0.0,0.0,0.0,0.0,0.0,0.0,0.0,0.0,0.0,0.0,0.0,2.2871,2.5426,2.7205,2.7661,2.6719,2.4747,2.1596,0.0,0.0,0.0,0.0,0.0,0.0,0.0,0.0,0.0,0.0,0.0,0.0,0.0,0.0,0.0,0.0,0.0,0.0,0.0,0.0,0.0,0.0,0.0,0.0,0.0,0.0,0.0,0.0,0.0,0.0,0.0,0.0,0.0,0.0,0.0,0.0,0.0,0.0,0.0,0.0,0.0,0.0,0.0,0.0,0.0,0.0,0.0,0.0,0.0,0.0,0.0,0.0,0.0,0.0,0.0,0.0,0.0,0.0,0.0,0.0,0.0,0.0,0.0,0.0,0.0,0.0,0.0,0.0,0.0,0.0,0.0,0.0,0.0,0.0,0.0,0.0,0.0,0.0,0.0,0.0,0.0,0.0,0.0,0.0,0.0,0.0,0.0,0.0,0.0,0.0,0.0,0.0,0.0,0.0,0.0,0.0,0.0,0.0,0.0,0.0,0.0,0.0,0.0,0.0,2.2206,2.6412,2.7301,2.7613,2.7685,2.6719,2.4747,2.1596,0.0,0.0,0.0,0.0,0.0,0.0,0.0,0.0,0.0,0.0,0.0,0.0,0.0,0.0,0.0,0.0,0.0,0.0,0.0,0.0,0.0,0.0,0.0,0.0,0.0,0.0,0.0,0.0,0.0,0.0,0.0,0.0,0.0,0.0,0.0,0.0,0.0,0.0,0.0,0.0,0.0,0.0,0.0,0.0,0.0,0.0,0.0,0.0,0.0,0.0,0.0,0.0,0.0,0.0,0.0,0.0,0.0,0.0,0.0,0.0,0.0,0.0,0.0,0.0,0.0,0.0,0.0,0.0,0.0,0.0,0.0,0.0,0.0,0.0,0.0,0.0,0.0,0.0,0.0,0.0,0.0,0.0,0.0,0.0,0.0,0.0,0.0,0.0,0.0,0.0,0.0,0.0,0.0,0.0,0.0,0.0,0.0,0.0,0.0,0.0,0.0,0.0,0.0,2.1382,2.3545,2.7835,2.8294,2.8376,2.8546,2.7415,2.5302,2.2044,2.1141,0.0,0.0,0.0,0.0,0.0,0.0,0.0,0.0,0.0,0.0,0.0,0.0,0.0,0.0,0.0,0.0,0.0,0.0,0.0,0.0,0.0,0.0,0.0,0.0,0.0,0.0,0.0,0.0,0.0,0.0,0.0,0.0,0.0,0.0,0.0,0.0,0.0,0.0,0.0,0.0,0.0,0.0,0.0,0.0,0.0,0.0,0.0,0.0,0.0,0.0,0.0,0.0,0.0,0.0,0.0,0.0,0.0,0.0,0.0,0.0,0.0,0.0,0.0,0.0,0.0,0.0,0.0,0.0,0.0,0.0,0.0,0.0,0.0,0.0,0.0,0.0,0.0,0.0,0.0,0.0,0.0,0.0,0.0,0.0,0.0,0.0,0.0,0.0,0.0,0.0,0.0,0.0,0.0,0.0,0.0,0.0,0.0,0.0,0.0,0.0,0.0,0.0,2.428,2.5812,2.9225,2.9607,2.9688,2.9772,2.8055,2.562,2.2506,2.1159,0.0,0.0,0.0,0.0,0.0,0.0,0.0,0.0,0.0,0.0,0.0,0.0,0.0,0.0,0.0,0.0,0.0,0.0,0.0,0.0,0.0,0.0,0.0,0.0,0.0,0.0,0.0,0.0,0.0,0.0,0.0,0.0,0.0,0.0,0.0,0.0,0.0,0.0,0.0,0.0,0.0,0.0,0.0,0.0,0.0,0.0,0.0,0.0,0.0,0.0,0.0,0.0,0.0,0.0,0.0,0.0,0.0,0.0,0.0,0.0,0.0,0.0,0.0,0.0,0.0,0.0,0.0,0.0,0.0,0.0,0.0,0.0,0.0,0.0,0.0,0.0,0.0,0.0,0.0,0.0,0.0,0.0,0.0,0.0,0.0,0.0,0.0,0.0,0.0,0.0,0.0,0.0,0.0,0.0,0.0,0.0,0.0,0.0,0.0,0.0,0.0,0.0,2.6672,2.9711,3.1656,3.2035,3.1871,3.1215,2.8139,2.5226,2.2819,2.0678,0.0,0.0,0.0,0.0,0.0,0.0,0.0,0.0,0.0,0.0,0.0,0.0,0.0,0.0,0.0,0.0,0.0,0.0,0.0,0.0,0.0,0.0,0.0,0.0,0.0,0.0,0.0,0.0,0.0,0.0,0.0,0.0,0.0,0.0,0.0,0.0,0.0,0.0,0.0,0.0,0.0,0.0,0.0,0.0,0.0,0.0,0.0,0.0,0.0,0.0,0.0,0.0,0.0,0.0,0.0,0.0,0.0,0.0,0.0,0.0,0.0,0.0,0.0,0.0,0.0,0.0,0.0,0.0,0.0,0.0,0.0,0.0,0.0,0.0,0.0,0.0,0.0,0.0,0.0,0.0,0.0,0.0,0.0,0.0,0.0,0.0,0.0,0.0,0.0,0.0,0.0,0.0,0.0,0.0,0.0,0.0,0.0,0.0,0.0,0.0,0.0,0.0,2.6689,2.9812,0.0,3.3131,3.299,3.2534,3.0474,2.7525,2.3633,0.0,0.0,0.0,0.0,0.0,0.0,0.0,0.0,0.0,0.0,0.0,0.0,0.0,0.0,0.0,0.0,0.0,0.0,0.0,0.0,0.0,0.0,0.0,0.0,0.0,0.0,0.0,0.0,0.0,0.0,0.0,0.0,0.0,0.0,0.0,0.0,0.0,0.0,0.0,0.0,0.0,0.0,0.0,0.0,0.0,0.0,0.0,0.0,0.0,0.0,0.0,0.0,0.0,0.0,0.0,0.0,0.0,0.0,0.0,0.0,0.0,0.0,0.0,0.0,0.0,0.0,0.0,0.0,0.0,0.0,0.0,0.0,0.0,0.0,0.0,0.0,0.0,0.0,0.0,0.0,0.0,0.0,0.0,0.0,0.0,0.0,0.0,0.0,0.0,0.0,0.0,0.0,0.0,0.0,0.0,0.0,0.0,0.0,0.0,0.0,0.0,0.0,2.4326,2.7739,3.1058,0.0,3.4756,3.4551,3.3876,3.1872,2.879,2.4461,0.0,0.0,0.0,0.0,0.0,0.0,0.0,0.0,0.0,0.0,0.0,0.0,0.0,0.0,0.0,0.0,0.0,0.0,0.0,0.0,0.0,0.0,0.0,0.0,0.0,0.0,0.0,0.0,0.0,0.0,0.0,0.0,0.0,0.0,0.0,0.0,0.0,0.0,0.0,0.0,0.0,0.0,0.0,0.0,0.0,0.0,0.0,0.0,0.0,0.0,0.0,0.0,0.0,0.0,0.0,0.0,0.0,0.0,0.0,0.0,0.0,0.0,0.0,0.0,0.0,0.0,0.0,0.0,0.0,0.0,0.0,0.0,0.0,0.0,0.0,0.0,0.0,0.0,0.0,0.0,0.0,0.0,0.0,0.0,0.0,0.0,0.0,0.0,0.0,0.0,0.0,0.0,0.0,0.0,0.0,0.0,0.0,0.0,0.0,0.0,0.0,0.0,2.612,3.0415,3.4132,3.6722,3.7192,3.6749,3.5318,3.1974,2.8536,0.0,0.0,0.0,0.0,0.0,0.0,0.0,0.0,0.0,0.0,0.0,0.0,0.0,0.0,0.0,0.0,0.0,0.0,0.0,0.0,0.0,0.0,0.0,0.0,0.0,0.0,0.0,0.0,0.0,0.0,0.0,0.0,0.0,0.0,0.0,0.0,0.0,0.0,0.0,0.0,0.0,0.0,0.0,0.0,0.0,0.0,0.0,0.0,0.0,0.0,0.0,0.0,0.0,0.0,0.0,0.0,0.0,0.0,0.0,0.0,0.0,0.0,0.0,0.0,0.0,0.0,0.0,0.0,0.0,0.0,0.0,0.0,0.0,0.0,0.0,0.0,0.0,0.0,0.0,0.0,0.0,0.0,0.0,0.0,0.0,0.0,0.0,0.0,0.0,0.0,0.0,0.0,0.0,0.0,0.0,0.0,0.0,0.0,0.0,0.0,0.0,0.0,0.0,2.6455,3.145,3.5355,3.7019,3.7643,3.7384,3.6068,3.4191,3.0977,2.6077,0.0,0.0,0.0,0.0,0.0,0.0,0.0,0.0,0.0,0.0,0.0,0.0,0.0,0.0,0.0,0.0,0.0,0.0,0.0,0.0,0.0,0.0,0.0,0.0,0.0,0.0,0.0,0.0,0.0,0.0,0.0,0.0,0.0,0.0,0.0,0.0,0.0,0.0,0.0,0.0,0.0,0.0,0.0,0.0,0.0,0.0,0.0,0.0,0.0,0.0,0.0,0.0,0.0,0.0,0.0,0.0,0.0,0.0,0.0,0.0,0.0,0.0,0.0,0.0,0.0,0.0,0.0,0.0,0.0,0.0,0.0,0.0,0.0,0.0,0.0,0.0,0.0,0.0,0.0,0.0,0.0,0.0,0.0,0.0,0.0,0.0,0.0,0.0,0.0,0.0,0.0,0.0,0.0,0.0,0.0,0.0,0.0,0.0,0.0,0.0,0.0,0.0,2.7626,3.2307,3.5973,3.7506,3.7999,3.7796,3.6762,3.5532,3.2619,2.7466,0.0,0.0,0.0,0.0,0.0,0.0,0.0,0.0,0.0,0.0,0.0,0.0,0.0,0.0,0.0,0.0,0.0,0.0,0.0,0.0,0.0,0.0,0.0,0.0,0.0,0.0,0.0,0.0,0.0,0.0,0.0,0.0,0.0,0.0,0.0,0.0,0.0,0.0,0.0,0.0,0.0,0.0,0.0,0.0,0.0,0.0,0.0,0.0,0.0,0.0,0.0,0.0,0.0,0.0,0.0,0.0,0.0,0.0,0.0,0.0,0.0,0.0,0.0,0.0,0.0,0.0,0.0,0.0,0.0,0.0,0.0,0.0,0.0,0.0,0.0,0.0,0.0,0.0,0.0,0.0,0.0,0.0,0.0,0.0,0.0,0.0,0.0,0.0,0.0,0.0,0.0,0.0,0.0,0.0,0.0,0.0,0.0,0.0,0.0,0.0,0.0,0.0,2.9204,3.3051,3.6188,3.7999,3.8202,3.797,3.7342,3.613,3.3532,2.9159,0.0,0.0,0.0,0.0,0.0,0.0,0.0,0.0,0.0,0.0,0.0,0.0,0.0,0.0,0.0,0.0,0.0,0.0,0.0,0.0,0.0,0.0,0.0,0.0,0.0,0.0,0.0,0.0,0.0,0.0,0.0,0.0,0.0,0.0,0.0,0.0,0.0,0.0,0.0,0.0,0.0,0.0,0.0,0.0,0.0,0.0,0.0,0.0,0.0,0.0,0.0,0.0,0.0,0.0,0.0,0.0,0.0,0.0,0.0,0.0,2.173,0.0,0.0,0.0,0.0,0.0,0.0,0.0,0.0,0.0,0.0,0.0,0.0,0.0,0.0,0.0,0.0,0.0,0.0,0.0,0.0,0.0,0.0,0.0,0.0,0.0,0.0,0.0,0.0,0.0,0.0,0.0,0.0,0.0,0.0,0.0,0.0,0.0,0.0,0.0,0.0,0.0,2.9276,3.3396,3.6635,3.8057,3.8202,3.797,3.7342,3.613,3.391,3.0423,0.0,0.0,0.0,0.0,0.0,0.0,0.0,0.0,0.0,0.0,0.0,0.0,0.0,0.0,0.0,0.0,0.0,0.0,0.0,0.0,0.0,0.0,0.0,0.0,0.0,0.0,0.0,0.0,0.0,0.0,0.0,0.0,0.0,0.0,0.0,0.0,0.0,0.0,0.0,0.0,0.0,0.0,0.0,0.0,0.0,0.0,0.0,0.0,0.0,0.0,0.0,0.0,0.0,0.0,0.0,0.0,0.0,0.0,0.0,0.0,0.0,2.3153,0.0,0.0,0.0,0.0,0.0,0.0,0.0,0.0,0.0,0.0,0.0,0.0,0.0,0.0,0.0,0.0,0.0,0.0,0.0,0.0,0.0,0.0,0.0,0.0,0.0,0.0,0.0,0.0,0.0,0.0,0.0,0.0,0.0,0.0,0.0,0.0,0.0,0.0,0.0,0.0,3.0611,3.4615,3.7709,3.8986,3.8841,3.8551,3.8231,3.7059,3.5084,3.2196,2.9552,0.0,0.0,0.0,0.0,0.0,0.0,0.0,0.0,0.0,0.0,0.0,0.0,0.0,0.0,0.0,0.0,0.0,0.0,0.0,0.0,0.0,0.0,0.0,0.0,0.0,0.0,0.0,0.0,0.0,0.0,0.0,0.0,0.0,0.0,0.0,0.0,0.0,0.0,0.0,0.0,0.0,0.0,0.0,0.0,0.0,0.0,0.0,0.0,0.0,0.0,0.0,0.0,0.0,3.3082,3.2352,2.9985,3.16,3.2396,3.229,2.8601,2.7315,2.7669,0.0,0.0,0.0,0.0,0.0,0.0,0.0,0.0,0.0,0.0,0.0,0.0,0.0,0.0,0.0,0.0,0.0,0.0,0.0,0.0,0.0,0.0,0.0,0.0,0.0,2.9936,3.0391,0.0,0.0,0.0,0.0,0.0,0.0,0.0,0.0,0.0,0.0,0.0,0.0,3.2264,3.5909,3.8696,3.9973,3.9654,3.9363,3.9363,3.8202,3.6519,3.43,3.2122,2.9377,0.0,0.0,0.0,0.0,0.0,0.0,0.0,0.0,0.0,0.0,0.0,0.0,0.0,0.0,0.0,0.0,0.0,0.0,0.0,0.0,0.0,0.0,0.0,0.0,0.0,0.0,0.0,0.0,0.0,0.0,0.0,0.0,2.0199,2.0372,0.0,0.0,0.0,0.0,0.0,0.0,0.0,0.0,0.0,0.0,0.0,0.0,0.0,0.0,3.0988,3.4806,3.687,3.7166,3.6291,3.5676,3.5286,3.5531,3.5972,3.6508,3.5901,0.0,3.1444,2.9608,0.0,0.0,0.0,0.0,0.0,0.0,0.0,0.0,0.0,0.0,0.0,0.0,0.0,0.0,0.0,0.0,0.0,0.0,0.0,0.0,0.0,0.0,3.4129,3.3545,3.4523,3.5079,0.0,2.9565,2.6294,2.5342,0.0,0.0,0.0,0.0,0.0,0.0,0.0,0.0,3.2935,3.6217,3.8696,3.9973,4.0031,3.9973,3.9973,3.8812,3.7709,3.6867,3.3935,3.1526,2.9886,2.7475,0.0,0.0,0.0,0.0,0.0,0.0,0.0,0.0,0.0,0.0,0.0,0.0,0.0,0.0,0.0,0.0,0.0,0.0,0.0,0.0,0.0,0.0,0.0,0.0,0.0,0.0,0.0,0.0,0.0,1.969,2.1575,2.1964,2.2571,2.2716,0.0,0.0,0.0,0.0,0.0,0.0,0.0,0.0,0.0,3.0887,3.096,3.2238,3.4922,3.8057,3.9538,3.9276,3.9073,3.9189,3.9567,3.9567,3.9915,4.0495,4.0495,3.9673,3.8021,3.4387,3.1422,2.8983,0.0,0.0,0.0,0.0,0.0,2.9205,3.1329,0.0,0.0,0.0,0.0,0.0,0.0,0.0,0.0,0.0,0.0,0.0,0.0,0.0,0.0,3.7012,3.7796,3.8202,3.7302,3.5038,3.2267,0.0,2.8303,2.7274,2.4464,0.0,0.0,0.0,0.0,0.0,3.5288,3.8086,4.0176,4.1105,4.0873,4.067,4.067,3.9799,3.8841,3.7883,3.6152,3.4312,3.2312,3.0104,2.7868,0.0,0.0,0.0,0.0,0.0,0.0,0.0,0.0,0.0,0.0,0.0,0.0,0.0,0.0,0.0,0.0,0.0,0.0,0.0,0.0,0.0,0.0,0.0,0.0,0.0,0.0,0.0,0.0,2.182,2.3455,2.3856,2.4907,2.5168,0.0,0.0,0.0,0.0,0.0,0.0,2.9131,3.1003,3.2935,3.4881,3.6275,3.7582,3.8754,4.0661,4.1445,4.1105,4.1715,4.2208,4.2586,4.2586,4.2818,4.3274,4.3274,4.3274,4.2955,3.8802,3.581,3.3819,3.3744,3.3238,3.2761,3.4416,3.4486,3.4092,3.6664,3.7215,3.6577,3.5346,0.0,3.3019,3.064,0.0,0.0,0.0,0.0,3.3512,3.5781,0.0,3.8289,3.9421,4.0147,4.0437,3.9828,3.9305,3.7622,0.0,3.2396,3.1336,2.7651,0.0,0.0,0.0,0.0,3.4927,3.7447,3.9741,4.1366,4.2034,4.1657,4.1366,4.1366,4.0728,3.9944,3.9015,3.8057,3.6664,3.4765,3.2674,3.0742,2.8971,0.0,0.0,0.0,0.0,0.0,0.0,0.0,0.0,0.0,0.0,0.0,0.0,0.0,0.0,0.0,0.0,0.0,0.0,0.0,0.0,0.0,0.0,0.0,0.0,0.0,0.0,0.0,0.0,0.0,2.6662,2.8767,0.0,0.0,0.0,0.0,2.8476,3.0771,3.2483,3.3184,3.498,3.6896,3.8841,3.9973,4.1241,4.2702,4.3456,4.3826,4.3805,4.424,4.424,4.3892,4.3892,4.3921,4.3972,4.3972,4.3972,4.3855,4.2353,4.0728,3.9141,3.9509,3.8899,3.7941,3.8851,3.827,3.7139,3.7912,3.8144,3.8202,3.8725,3.7651,3.6083,3.5938,3.5021,0.0,0.0,3.6489,3.7331,3.8667,3.9479,4.0147,4.0844,4.1512,4.1831,4.1134,4.0989,4.0147,0.0,3.6014,3.4753,3.33,0.0,3.2425,3.3067,3.4375,3.6217,3.8783,4.0263,4.1366,4.2034,4.2063,4.2034,4.2034,4.1424,4.1018,4.096,3.9189,3.8115,3.797,3.5561,3.3599,3.2293,2.9058,0.0,0.0,0.0,0.0,0.0,0.0,0.0,0.0,0.0,0.0,0.0,0.0,0.0,0.0,0.0,0.0,0.0,0.0,0.0,0.0,0.0,0.0,0.0,0.0,0.0,0.0,0.0,0.0,3.0306,3.1657,0.0,3.1729,3.2106,3.2558,3.298,3.4603,3.6054,3.7099,3.858,4.0089,4.1599,4.281,4.371,4.4233,4.5285,4.5785,4.5814,4.6388,4.6563,4.6469,4.6469,4.6469,4.6469,4.6469,4.6469,4.6382,4.5488,4.387,4.1918,4.1541,4.1424,4.1512,4.1686,4.1424,4.1047,4.1715,4.1918,4.1773,4.0757,3.9654,3.858,3.7767,3.7506,3.768,3.8522,3.9218,4.0031,4.1308,4.1802,4.2121,4.2789,4.3137,4.3253,4.3021,4.2615,4.2034,4.1134,3.9276,3.7302,3.559,3.5793,3.5967,3.5386,3.707,3.8918,4.0263,4.1192,4.1831,4.2063,4.2092,4.2092,4.2092,4.1889,4.1366,4.0495,3.9799,3.887,3.768,3.6326,3.5021,3.3744,3.0974,2.7984,0.0,0.0,0.0,0.0,0.0,0.0,0.0,0.0,0.0,0.0,0.0,0.0,0.0,0.0,0.0,0.0,0.0,0.0,0.0,0.0,0.0,0.0,0.0,0.0,0.0,0.0,3.1235,3.2932,3.4486,3.5317,3.5067,3.5822,3.6519,3.6943,3.8376,3.9596,4.0437,4.1686,4.2876,4.3921,4.4995,4.5634,4.5888,4.6853,4.7265,4.712,4.7724,4.795,4.7805,4.7805,4.7805,4.7805,4.7805,4.7805,4.7776,4.7317,4.6214,4.4705,4.3515,4.334,4.3718,4.3427,4.3362,4.3398,4.3855,4.3979,4.3776,4.2498,4.1773,4.125,4.0408,4.0466,4.0902,4.1308,4.1744,4.2266,4.3108,4.3362,4.3449,4.397,4.4087,4.4087,4.4087,4.3823,4.3544,4.346,4.1689,3.9712,3.8173,3.8609,3.8899,3.8057,3.9363,4.067,4.1337,4.1831,4.2092,4.2092,4.2092,4.2092,4.2092,4.1889,4.1366,4.0495,3.9828,3.8899,3.768,3.6577,3.5503,3.4412,3.1671,2.9,2.6445,0.0,0.0,0.0,0.0,0.0,0.0,0.0,0.0,0.0,0.0,0.0,0.0,0.0,0.0,0.0,0.0,0.0,0.0,0.0,0.0,0.0,0.0,0.0,2.9624,3.2439,3.4499,3.4586,3.736,3.8551,3.6722,3.8754,4.0205,4.0205,4.1976,4.305,4.3079,4.4269,4.5278,4.5946,4.654,4.7201,4.7834,4.827,4.8246,4.7863,4.827,4.827,4.7863,4.7863,4.7863,4.7863,4.7863,4.7863,4.7863,4.7863,4.7863,4.766,4.5743,4.4879,4.4654,4.4269,4.4124,4.4124,4.4124,4.4124,4.4117,4.4095,4.4066,4.4059,4.4037,4.4008,4.3979,4.3979,4.3979,4.3979,4.4008,4.403,4.4073,4.4309,4.4381,4.4352,4.4352,4.4544,4.465,4.4387,4.316,4.1968,4.13,4.1183,4.1154,4.1154,4.1154,0.0,4.2026,4.2121,4.2121,4.2092,4.2121,4.2121,4.2092,4.1482,4.1076,4.1047,3.9247,3.8202,3.8173,3.642,3.5113,3.4441,3.1278,2.9029,2.7782,0.0,0.0,0.0,0.0,0.0,0.0,0.0,0.0,0.0,0.0,0.0,0.0,0.0,0.0,0.0,0.0,0.0,0.0,0.0,0.0,0.0,0.0,3.151,3.1684,3.4034,3.6646,3.8986,4.0031,4.0931,4.1802,4.2063,4.2382,4.2876,4.3826,4.461,4.5075,4.5866,4.6592,4.7253,4.7845,4.8346,4.8734,4.9318,4.9581,4.9464,4.9772,4.9653,4.917,4.9392,4.9368,4.917,4.917,4.917,4.917,4.917,4.917,4.9025,4.7573,4.6963,4.6911,4.6818,4.676,4.676,4.676,4.676,4.6702,4.6214,4.575,4.5308,4.4814,4.4349,4.3979,4.3979,4.3979,4.4095,4.4552,4.48,4.5069,4.5559,4.583,4.5962,4.5962,4.5622,4.5341,4.5277,4.4565,4.378,4.3104,4.2987,4.2811,4.232,0.0,0.0,4.2281,4.2574,4.2586,4.215,4.2498,4.2557,4.2121,4.1482,4.0699,0.0,3.8754,3.7999,3.7564,3.6577,3.5781,3.5142,3.1977,3.0147,0.0,0.0,0.0,0.0,0.0,0.0,0.0,0.0,0.0,0.0,0.0,0.0,0.0,0.0,0.0,0.0,0.0,0.0,0.0,0.0,0.0,0.0,3.2658,3.4876,3.5949,3.7389,3.9102,4.125,4.2208,4.3158,4.4269,4.4501,4.4807,4.5295,4.5929,4.6499,4.6992,4.7612,4.8109,4.8489,4.9108,4.953,4.9668,5.0079,5.0255,5.0255,5.0429,5.0357,5.0038,5.0183,5.011,0.0,4.9892,4.979,4.9693,4.9693,4.9693,0.0,0.0,0.0,0.0,0.0,4.7805,4.7805,4.7805,4.7805,4.7747,4.7346,4.6969,4.6644,4.6237,4.5888,4.562,4.571,4.5754,4.5864,4.6326,4.6548,4.68,4.722,4.7755,4.8153,4.8153,4.8205,4.8152,4.7773,0.0,0.0,4.593,4.4885,4.3997,4.3593,4.3431,4.3378,0.0,4.3462,4.3402,4.3052,4.3259,4.3282,4.2934,4.2034,0.0,0.0,0.0,3.7796,3.6925,3.6257,0.0,0.0,0.0,0.0,0.0,0.0,0.0,0.0,2.9552,2.9406,0.0,0.0,0.0,0.0,0.0,0.0,0.0,0.0,0.0,0.0,0.0,0.0,0.0,0.0,0.0,0.0,3.5729,3.8655,4.104,4.1665,4.2036,4.2503,4.4022,4.5119,4.5309,4.6363,4.7101,4.7323,4.8077,4.8574,4.8689,0.0,0.0,0.0,0.0,5.0525,5.0548,5.0548,5.0548,5.0548,5.0572,5.0548,5.0501,5.0525,5.0434,5.0252,5.0164,5.0043,4.9907,4.982,4.9824,4.9824,4.9112,4.8687,4.8508,4.8154,4.8009,0.0,0.0,0.0,0.0,4.8079,4.805,4.7939,4.7992,4.7957,4.7946,4.8185,4.8324,4.8456,4.8656,4.8839,4.8998,4.9179,4.9885,5.0488,5.0488,5.1298,5.1753,5.0918,5.0279,4.9709,4.9233,4.6865,4.5018,4.5063,4.498,0.0,4.4896,4.4637,4.4424,4.4366,0.0,0.0,4.4022,4.2839,4.1802,4.1134,3.9363,3.7825,3.6675,3.6101,3.6072,3.6635,3.653,3.6809,3.7418,3.7941,3.7999,3.7506,3.2758,3.2061,0.0,0.0,0.0,0.0,0.0,0.0,0.0,0.0,0.0,0.0,0.0,0.0,0.0,0.0,0.0,3.6114,3.9042,4.1479,4.299,4.5212,4.6385,4.5581,4.58,4.6503,4.7756,4.8132,4.828,4.8348,4.9613,5.0064,4.9362,5.0624,0.0,5.0318,5.0442,5.0567,5.0751,5.0751,5.0751,5.0751,0.0,0.0,5.0501,5.0686,5.0904,5.1189,5.0664,5.0699,5.1116,5.0562,5.0651,5.1038,4.9951,4.949,4.9461,4.9374,4.9345,4.9369,4.9586,4.9514,4.9417,4.9855,4.9474,4.8892,4.9104,4.8822,0.0,4.8502,4.9014,4.9589,4.9656,5.0349,5.1046,5.1141,5.1414,5.1674,5.1674,5.1861,5.1973,5.1753,5.1619,5.1483,5.1394,4.8963,4.7077,4.727,4.6562,4.5991,4.5991,4.5597,4.5181,4.468,4.4899,4.4835,4.4288,4.2923,4.1802,4.1134,3.977,3.8899,3.8667,3.8522,3.8522,3.8638,3.8115,3.7912,3.8028,3.8144,3.8667,3.9509,3.7476,3.6606,0.0,0.0,0.0,0.0,0.0,0.0,0.0,0.0,0.0,0.0,0.0,2.8926,3.1271,0.0,3.6327,3.9767,4.1771,4.3726,4.6164,4.7692,4.8075,4.6602,4.8131,4.9414,4.9727,5.0442,5.096,5.1103,5.1377,5.1605,5.1748,5.2031,5.2215,5.2245,5.1796,5.1739,5.2211,5.1749,5.1667,5.1995,5.2139,5.2097,5.1856,5.1947,5.2053,5.2137,5.1787,5.1743,5.1911,5.1586,5.1645,5.1886,5.1287,5.1047,5.1018,5.0573,5.0481,5.055,5.0228,5.011,5.0135,5.0405,5.0169,4.9899,5.0475,5.0444,5.0312,5.0946,5.1427,5.1769,5.193,5.2352,5.2829,5.2829,5.3267,5.3658,5.3658,5.4003,5.4239,5.3862,5.3479,5.321,5.3233,5.1677,5.0176,4.937,4.881,4.8181,4.7395,4.6975,4.6511,4.5868,4.588,4.5742,4.5288,4.3905,4.276,4.2092,4.1163,4.0641,4.0641,4.0641,4.0641,4.0641,4.0612,4.0583,4.0583,4.0931,4.1424,4.2034,4.1395,4.0757,0.0,0.0,0.0,0.0,0.0,0.0,0.0,0.0,2.7558,2.8955,3.085,3.2909,3.5108,3.7405,3.9925,4.2978,4.4404,4.6206,4.9191,4.9965,4.9614,4.8028,5.0522,5.2125,5.1567,5.2625,5.3471,5.3675,5.3143,5.3165,5.3955,5.3437,5.3456,5.4198,5.348,5.3422,5.4103,5.3352,5.3257,5.3771,5.3771,5.3771,5.3771,5.3579,5.3453,5.3354,5.3163,5.2877,5.2586,5.2926,5.303,5.3084,5.3394,5.3528,5.331,5.1886,5.1474,5.1562,5.0861,5.0878,5.119,5.1286,5.1399,5.1676,5.2429,5.265,5.2854,5.3812,5.4236,5.4399,5.4623,5.472,5.4751,5.4751,5.5164,5.5575,5.5575,5.6179,5.6514,5.5932,5.5286,5.4855,5.4911,5.438,5.3373,5.1601,5.1215,5.0615,4.9157,4.8659,4.8141,4.7435,4.7185,4.6882,4.6489,4.5288,4.4233,4.3484,4.2926,4.2586,4.2469,4.2469,4.2469,4.2469,4.2955,4.3195,4.3195,4.3834,4.424,4.4356,4.4472,4.4124,2.6373,2.5233,2.5069,2.627,2.6581,2.7591,0.0,0.0,3.2564,3.4422,3.6593,3.8215,3.8399,4.1344,4.4013,4.4887,4.7391,4.958,5.0575,5.2517,5.3439,5.2398,5.246,5.2848,5.3573,5.3806,5.3912,5.3955,5.4558,5.4662,5.4019,5.4621,5.5004,5.498,5.4881,5.5153,5.5901,5.5812,5.5776,5.5871,5.5871,5.5871,5.5848,5.4939,5.4859,5.5316,5.4411,5.3693,5.3234,5.4714,5.534,5.5473,5.6895,5.7471,5.7059,5.3541,5.2269,5.2319,5.2457,5.2959,5.3617,5.4065,5.466,5.5274,5.5619,5.5708,5.573,5.5863,5.6476,5.7075,5.7096,5.7225,5.7364,5.7364,5.6948,5.6544,5.6544,5.6622,5.6699,5.6581,5.649,5.6451,5.6448,5.639,5.5812,5.4283,5.3474,5.2641,5.1631,5.0783,4.9966,4.9134,4.879,4.8303,4.7516,4.6865,4.6072,4.5091,4.4749,4.4349,4.3805,4.3776,4.3776,4.3776,4.3834,4.3892,4.3892,4.4501,4.5104,4.5714,4.6221,4.5843,2.9922,2.9281,2.9151,2.9779,3.1043,3.254,3.4035,3.51,3.6246,3.7853,3.9224,4.0636,4.2401,4.3951,4.5778,0.0,4.9828,5.1353,5.335,5.4482,5.4953,5.4567,5.4792,5.4928,5.4787,5.5251,5.5568,5.5568,5.5393,5.5373,5.5568,5.5815,5.6172,5.6661,5.655,5.682,5.7525,5.6998,5.692,5.7308,5.6714,5.6412,5.6412,5.602,5.6262,5.7074,5.6659,5.6315,5.6115,5.6786,5.7097,5.7152,5.7852,5.8085,5.782,5.5735,5.5043,5.5076,5.4683,5.4862,5.5297,5.5479,5.5772,5.6151,5.6765,5.6959,5.7045,5.7609,5.8038,5.8306,5.8306,5.8373,5.8436,5.8436,5.8204,5.7972,5.7972,5.7641,5.7342,5.7342,5.6978,5.6699,5.6699,5.6699,5.6327,5.5162,5.4257,5.3216,5.188,5.0918,5.0095,4.9382,4.9073,4.8705,4.8165,4.7821,4.738,4.6803,4.6631,4.6469,4.6237,4.6208,4.6208,4.6208,4.6208,4.6208,4.6208,4.6469,4.6731,4.7021,4.7259,4.7491,3.2228,3.2452,3.2822,3.2922,3.505,3.7016,3.6701,3.8222,3.999,4.0997,4.1876,4.3099,4.5167,4.6152,4.7567,5.0413,5.1578,5.2941,5.526,5.5601,5.5535,5.5336,5.5786,5.582,5.5161,5.6066,5.6699,5.6699,5.6067,5.6086,5.6959,5.6867,5.7286,5.8383,5.8277,5.8512,5.9208,5.8549,5.8444,5.8912,5.8185,5.7839,5.7816,5.7535,5.7676,5.8085,5.8085,5.8085,5.8108,5.8414,5.8528,5.8551,5.8822,5.8912,5.8848,5.8224,5.7742,5.7286,5.6645,5.6734,5.7153,5.7153,5.7329,5.7656,5.8278,5.8468,5.8647,5.9333,5.9496,5.9496,5.9496,5.9363,5.9198,5.9198,5.9032,5.8899,5.8899,5.8469,5.8104,5.8104,5.7674,5.7243,5.7064,5.6998,5.6684,5.5841,5.4943,5.3766,5.2083,5.1077,5.0308,4.9875,4.9587,4.9403,4.9265,4.9016,4.867,4.8278,4.8208,4.805,4.7805,4.7805,4.7805,4.7805,4.7805,4.7805,4.7805,4.7956,4.8154,4.8328,4.8502,4.9199,3.2514,3.3584,3.4861,3.5058,3.7519,4.0025,4.0664,4.2558,4.4212,4.4248,4.5521,4.6433,4.5823,4.8096,5.0074,5.0138,5.2509,5.4688,5.5502,5.5601,5.5336,5.4607,5.4541,5.4574,0.0,5.5833,5.6699,5.6699,5.6661,5.6992,5.774,5.7753,5.8416,5.9893,5.9939,6.0283,6.1011,6.0969,6.1002,6.1002,6.0961,6.0961,6.0919,5.9946,5.8979,5.8085,5.8085,5.8085,5.8177,5.9167,5.9543,5.9631,6.0633,6.1002,6.1002,6.1002,5.974,5.8053,5.8053,5.8668,5.9478,5.9478,6.0151,6.0969,6.099,6.1011,6.1011,6.1032,6.1032,6.1032,6.1032,6.0523,5.996,5.996,5.9429,5.8899,5.8899,5.8866,5.8866,5.8866,5.8833,5.8601,5.7873,5.7773,5.7508,5.676,5.5868,5.4621,5.282,5.1743,5.1146,5.1146,5.0905,5.0857,5.1099,5.0704,5.0147,4.9498,4.9204,4.8676,4.7834,4.7805,4.7805,4.7805,4.7805,4.7805,4.7805,4.8391,4.9001,4.9664,5.0303,5.0971,3.5012,3.6552,3.831,3.9259,4.1336,4.3171,4.339,4.4387,4.5389,4.5885,4.5623,4.5888,4.7636,4.7937,4.889,5.1813,5.3137,5.4376,5.6084,5.6316,5.5885,5.4641,5.4939,0.0,0.0,0.0,0.0,5.6666,5.6699,5.7031,5.776,5.827,5.8966,5.996,6.049,6.0854,6.1119,6.1119,6.1119,6.1098,6.0409,6.0109,6.0076,5.9772,5.9794,6.0109,6.0109,6.0109,6.013,6.0463,6.0875,6.1345,6.1676,6.2134,6.2565,6.2565,6.2145,6.1425,6.0435,6.0302,6.0591,6.0591,6.0835,6.1119,6.1119,6.1119,6.1119,6.1119,6.1119,6.1119,6.1119,6.092,6.0721,6.0721,6.0556,6.0357,6.0357,5.9993,5.9628,5.9628,5.9231,5.8833,5.8568,5.8535,5.8223,5.736,5.5638,5.3998,5.2762,5.1773,5.1206,5.1206,5.1105,5.1035,5.0941,5.0799,5.0573,5.02,4.9908,4.9623,4.9323,4.9323,4.9455,4.9722,4.9868,5.0072,5.0336,5.0515,5.0817,5.122,5.1454,5.2021,3.7876,3.9822,4.1726,4.2882,4.4716,4.6163,4.589,4.6404,4.6913,4.6858,4.5888,4.5611,4.7572,4.6898,4.7503,5.1938,5.2638,5.3599,5.6335,5.6249,5.5554,5.4607,5.4707,5.474,0.0,0.0,0.0,5.6633,5.6945,5.7428,5.8138,5.8899,5.9628,6.039,6.0854,6.1119,6.1119,6.1119,6.1119,6.1098,6.043,6.0152,6.0152,6.0435,6.0867,6.1516,6.1781,6.1881,6.1881,6.1881,6.2167,6.2598,6.2598,6.2863,6.3294,6.3294,6.3294,6.3161,6.2212,6.1881,6.1881,6.1881,6.1715,6.1483,6.1483,6.1318,6.1119,6.1119,6.1119,6.1119,6.1119,6.1119,6.1119,6.1119,6.1119,6.1119,6.1119,6.0721,6.039,6.039,6.0026,5.9595,5.933,5.9065,5.8685,5.81,5.6421,5.4705,5.3209,5.2482,5.1837,5.1253,5.1415,5.1487,5.1322,5.153,5.1559,5.1348,5.1179,5.1003,5.093,5.0906,5.0989,5.1179,5.1374,5.1578,5.174,5.174,5.2008,5.249,5.2419,5.2989,4.0961,4.3232,4.501,4.5837,4.7555,4.8878,4.8129,4.8537,4.863,4.7106,4.6179,4.5616,0.0,0.0,4.6095,5.0469,5.1265,5.259,5.6202,5.5521,5.4607,0.0,0.0,0.0,0.0,0.0,0.0,5.6699,0.0,5.8104,5.8866,5.9595,6.0357,6.1086,6.1119,6.1119,6.1119,6.1119,6.1119,6.1152,6.1152,6.1185,6.1251,6.1935,6.2266,6.23,6.2996,6.3294,6.3294,6.3294,6.3327,6.336,6.336,6.3393,6.3393,6.3393,6.3393,6.3393,6.3393,6.336,6.3294,6.3294,6.283,6.2266,6.2266,6.1769,6.1218,6.1218,6.1218,6.1218,6.1218,6.1218,6.1218,6.1218,6.1218,6.1218,6.1185,6.1152,6.1152,6.1119,6.1119,6.0887,6.0191,5.9496,5.8999,5.8999,5.824,5.6755,5.4154,5.3797,5.3117,5.1473,5.1887,5.2247,5.2247,5.2815,5.3077,5.2862,5.2812,5.2684,5.2437,5.2437,5.2288,5.2072,5.2347,5.2347,5.213,5.213,5.2603,5.3503,5.3253,5.3954,4.4063,4.6288,4.8115,4.8882,4.9494,4.9714,4.8939,4.853,4.7703,4.5697,4.4257,4.3183,0.0,0.0,0.0,4.9028,5.1033,0.0,5.6268,5.6382,0.0,5.5369,0.0,5.5104,5.5303,5.5502,0.0,0.0,5.7674,5.8104,5.8866,5.9595,6.0357,6.1086,6.1119,6.1119,6.1119,6.1119,6.1384,6.1935,6.1935,6.22,6.2764,6.2929,6.3029,6.3029,6.3227,6.3294,6.3294,6.3294,6.3625,6.4122,6.4122,6.4399,6.4862,6.4862,6.4862,6.4862,6.4862,6.4167,6.3294,6.3294,6.3161,6.3029,6.3029,6.2896,6.273,6.273,6.273,6.273,6.273,6.273,6.273,6.273,6.273,6.2598,6.2034,6.1935,6.1769,6.1218,6.1119,6.1053,6.0854,6.0655,6.0556,6.0556,6.0336,5.9033,5.5815,5.4866,5.4004,5.2816,5.2839,5.2959,5.2959,5.3109,5.315,5.3101,5.2905,5.2788,5.2684,5.2684,5.2797,5.3049,5.33,5.3537,5.37,5.37,5.4208,5.5115,5.5038,5.5612,4.6245,4.8365,5.0154,5.0585,5.0684,5.0253,4.8531,4.757,4.6212,4.3411,4.192,4.0878,4.0136,4.1196,4.3396,0.0,0.0,0.0,5.5786,5.6216,5.6183,0.0,5.58,0.0,5.6031,5.6084,5.6547,0.0,5.8104,5.8601,5.933,6.0092,6.0688,6.1086,6.1119,6.1251,6.1583,6.1583,6.1968,6.2664,6.2664,6.2896,6.3294,6.3625,6.3791,6.3791,0.0,6.42,6.42,6.42,6.4465,6.4829,6.4829,6.5061,6.5403,6.5403,6.5403,6.5403,6.5403,6.4895,6.42,6.42,6.4001,6.3791,6.3758,6.3526,6.3294,6.3294,6.3294,6.3294,6.3294,6.3294,6.3294,6.3294,6.3294,6.3194,6.2764,6.2664,6.2565,6.2167,6.2047,6.1947,6.1616,6.1583,6.145,6.1152,6.1119,6.0252,5.7867,5.6505,5.5271,5.3992,5.3736,5.3623,5.3623,5.3917,5.4097,5.4097,5.3948,5.3848,5.3848,5.3848,5.4021,5.4395,5.4705,5.5028,5.5341,5.5341,5.5675,5.6322,5.6191,5.6653,4.8034,4.9906,5.1448,5.1448,5.1298,5.0403,4.7537,4.6113,4.4324,4.0694,3.9315,3.8473,3.7765,3.907,4.1423,4.5068,0.0,5.1461,5.5104,5.5601,5.5866,5.6633,5.615,5.5998,5.6633,5.6799,5.7144,5.7873,5.8634,5.933,5.996,6.0721,6.1119,6.1119,6.1119,6.145,6.22,6.22,6.2631,6.3459,6.3459,6.3493,6.3592,6.4255,6.4553,6.4586,0.0,0.0,6.5403,6.5403,6.5403,6.5403,6.5403,6.5403,6.5403,6.5403,6.5403,6.5403,6.5403,6.5403,6.5403,6.5403,6.4995,6.452,6.4465,6.4034,6.3592,6.3592,6.3592,6.3592,6.3592,6.3592,6.3592,6.3592,6.3592,6.3559,6.3459,6.336,6.3294,6.3294,6.3294,6.3095,6.2465,6.2333,6.2134,6.1483,6.1384,6.1077,6.0218,5.8406,5.6638,5.5109,5.4589,5.4341,5.4341,5.485,5.5239,5.5354,5.5329,5.5359,5.5448,5.5448,5.5586,5.5894,5.6183,5.6452,5.6753,5.6753,5.6918,5.7244,5.7007,5.7444,5.0337,5.1463,5.2192,5.2192,5.128,4.979,4.7438,4.4905,0.0,3.8427,3.6605,3.5458,3.4684,3.7247,4.0674,4.4306,4.7868,5.1461,5.5104,5.5601,5.5866,0.0,5.6581,5.6567,5.6699,5.7263,0.0,0.0,0.0,5.986,5.9993,6.0721,6.1119,6.1119,6.1119,6.145,6.22,6.22,6.2863,6.4222,6.4222,6.4498,6.5061,6.5194,6.5227,6.5227,0.0,0.0,6.5403,6.5403,6.5403,6.5403,6.5403,6.5403,6.5403,6.5403,6.5403,6.5403,6.5403,6.5403,6.5403,6.5403,6.5326,6.5204,6.5204,6.5127,6.5061,6.5061,6.5061,6.5061,6.5061,6.5061,6.5061,6.5061,6.5061,6.4895,6.4321,6.3725,6.3294,6.3294,6.3294,6.3261,6.3128,6.3095,6.3062,6.2929,6.2929,6.2865,6.2681,5.989,5.7494,5.6395,5.5503,5.5029,5.5029,5.5119,5.5444,5.5983,5.6042,5.6252,5.6735,5.6765,5.6799,5.6836,5.6889,5.6948,5.7016,5.7016,5.7341,5.7935,5.7879,5.8712,5.1,5.1828,5.2391,5.2391,5.0982,4.8845,4.5865,0.0,0.0,3.6141,3.453,3.3635,3.3304,3.5922,3.9103,4.1986,4.52,4.8895,5.3301,5.393,5.4626,5.65,5.6699,5.6699,5.6699,5.7362,5.8104,0.0,0.0,6.0191,6.0556,6.092,6.1119,6.1119,6.1119,6.1649,6.2764,6.2764,6.3493,6.4929,6.4929,6.5094,6.5403,6.5403,6.5403,6.5403,6.5403,0.0,6.5403,6.5403,6.5403,6.5403,6.5403,6.5403,6.5403,6.5403,6.5403,6.5403,6.5403,6.5403,6.5403,6.5403,6.5403,6.5403,6.5403,6.5403,6.5403,6.5403,6.5403,6.5403,6.5403,6.5403,6.5403,6.5403,6.5403,6.5304,6.4995,6.463,6.4399,6.4399,6.4399,6.4266,6.3923,6.3857,6.3725,6.336,6.3294,6.3294,6.3294,6.0883,5.9026,5.8527,5.7095,5.6166,5.6166,5.6166,5.6342,5.6671,5.6671,5.6821,5.7094,5.7094,5.7274,5.7633,5.7633,5.7812,5.8141,5.8141,5.8583,5.9435,5.9435,6.0213,5.1066,5.1828,5.2391,5.2391,5.0618,4.7918,4.4393,4.1143,3.7811,3.4298,3.284,3.2343,3.2641,3.4849,3.7466,3.9998,4.2682,4.6261,5.143,5.2292,5.3485,5.6368,5.6699,0.0,5.6931,5.7594,0.0,0.0,0.0,0.0,6.1086,6.1119,6.1119,6.1119,6.1119,6.1815,6.3294,6.3294,6.4023,6.5403,6.5403,6.5403,6.5403,6.5403,6.5403,6.5403,6.5403,0.0,0.0,6.5403,6.5403,6.5403,6.5403,6.5403,6.5403,6.5403,6.5403,6.5403,6.5403,6.5403,6.5403,6.5403,6.5403,6.5403,6.5403,6.5403,6.5403,6.5403,6.5403,6.5403,6.5403,6.5403,6.5403,6.5403,6.5403,6.5403,6.5403,6.5403,6.5403,6.5403,6.5403,6.5227,6.4719,6.4597,6.442,6.3857,6.3758,6.3758,6.3758,6.1948,6.0741,6.0979,5.8648,5.7198,5.7402,5.7428,5.7592,5.7971,5.7769,5.7699,5.785,5.7644,5.7782,5.8294,5.856,5.8907,5.9446,5.9686,6.0207,6.1031,6.1031,6.1677,5.09,5.1828,5.2391,5.2391,5.022,4.7305,4.4309,4.0335,3.6439,3.3436,3.1669,3.1095,3.2442,3.4033,3.6241,3.9799,4.227,4.5501,5.0668,5.1961,5.3485,5.6368,0.0,0.0,5.7608,5.8369,0.0,0.0,0.0,0.0,6.1119,6.1119,6.1119,6.1119,6.1119,6.1815,6.3294,6.3294,6.4023,6.5403,6.5403,6.5403,6.5403,6.5403,6.5403,6.5403,0.0,0.0,0.0,6.5403,6.5403,6.5403,6.5403,6.5403,6.5403,6.5403,6.5403,6.5403,6.5403,6.5403,6.5403,6.5403,6.5403,6.5403,6.5403,6.5403,6.5403,6.5403,6.5403,6.5403,6.5403,6.5403,6.5403,6.5403,6.5403,6.5403,6.5403,6.5403,6.5403,6.5403,6.5403,6.537,6.5326,6.5304,6.5293,6.5204,6.5227,6.5227,6.5227,6.34,6.249,6.3464,5.968,5.748,5.8469,5.8545,5.9216,6.0795,5.9991,5.9742,6.0357,5.9421,5.8949,5.9009,5.9962,6.051,6.0572,6.1539,6.2058,6.2133,6.2133,6.3047,5.0559,5.1457,5.1631,5.1722,4.9873,4.7106,4.3712,3.9904,3.6274,3.3304,3.1537,3.0963,3.2442,3.3171,3.4783,3.8493,3.9407,4.1475,4.6625,4.7951,4.984,5.3651,5.4858,0.0,0.0,0.0,0.0,0.0,0.0,0.0,6.1119,6.1119,6.1119,6.1119,6.1119,6.1815,6.3294,6.3294,6.4023,6.5403,6.5403,6.5403,6.5403,6.5403,6.5403,6.5403,0.0,0.0,0.0,6.5403,6.5403,6.5403,6.5403,6.5403,6.5403,6.5403,6.5403,6.5403,6.5403,6.5403,6.5403,6.5403,6.5403,6.5403,6.5403,6.5403,6.5403,6.5403,6.5403,6.5403,6.5403,6.5403,6.5403,6.5403,6.5403,6.5403,6.5403,6.5403,6.5403,6.5403,6.5403,6.5403,6.5403,6.5403,6.5403,6.5403,6.5403,6.5403,6.5403,6.4142,6.3436,6.3847,6.1115,5.9691,6.0802,6.0876,6.1168,6.187,6.0907,6.0393,6.0671,5.9686,5.9392,6.0053,6.0494,6.1005,6.1665,6.2549,6.3292,6.3934,6.4319,6.523,4.8866,5.0242,5.0794,5.0662,4.8976,4.651,4.3249,3.954,3.6009,3.3271,3.1537,3.0963,3.2442,3.2707,3.3768,3.7023,3.7487,3.9123,4.4007,4.5333,4.7354,5.1563,0.0,5.4494,0.0,5.8601,0.0,0.0,0.0,0.0,0.0,6.1119,6.1119,6.1119,6.1119,6.1682,6.2962,6.3194,6.3923,6.5127,6.5326,6.5403,6.5403,6.5403,6.5403,6.5403,0.0,0.0,0.0,6.5403,6.5403,6.5403,6.5403,6.5403,6.5403,6.5403,6.5403,6.5403,6.5403,6.5403,6.5403,6.5403,6.5403,6.5403,6.5403,6.5403,6.5403,6.5403,6.5403,6.5403,6.5403,6.5403,6.5403,6.5403,6.5403,6.5403,6.5403,6.5403,6.5403,6.5403,6.5403,6.5403,6.5403,6.5403,6.5403,6.5403,6.5403,6.5403,6.5403,6.4499,6.4011,6.4291,6.2729,6.194,6.2705,6.2778,6.2899,6.3212,6.2238,6.164,6.164,6.0624,6.0508,6.1494,6.1769,6.2418,6.3407,6.4237,6.5037,6.5772,6.6252,6.6992,4.5483,4.7999,5.0031,4.9216,4.7388,4.5251,4.3017,3.9143,3.5379,3.3171,3.1537,3.0963,3.2442,3.2707,3.3436,3.5644,3.7222,3.9705,4.4107,4.5333,4.7189,5.0867,5.1331,5.2458,5.5336,5.8912,0.0,0.0,0.0,0.0,0.0,6.1119,6.1119,6.1119,6.1119,6.145,6.22,6.2929,6.3658,6.442,6.5094,6.5403,6.5403,6.5403,6.5403,0.0,0.0,0.0,0.0,6.5403,6.5403,6.5403,6.5403,6.5403,6.5403,6.5403,6.5403,6.5403,6.5403,6.5403,6.5403,6.5403,6.5403,6.5403,6.5403,6.5403,6.5403,6.5403,6.5403,6.5403,6.5403,6.5403,6.5403,6.5403,6.5403,6.5403,6.5403,6.5403,6.5403,6.5403,6.5403,6.5403,6.5403,6.5403,6.5403,6.5403,6.5403,6.5403,6.5403,6.4499,6.4268,6.5291,6.4453,6.3871,6.3871,6.3871,6.4291,6.5281,6.4407,6.3871,6.3871,6.2826,6.2629,6.3349,6.4368,6.5198,6.5983,6.7034,6.7566,6.7566,6.7566,6.7986,4.235,4.4263,4.5457,4.4719,4.3662,4.2237,4.007,3.7321,3.475,3.3039,3.1537,3.0963,3.2442,3.2707,3.39,3.7645,3.8639,3.9965,4.28,4.5582,4.7934,4.9591,5.3765,5.6846,0.0,0.0,0.0,0.0,0.0,0.0,0.0,6.1119,6.1119,6.1119,6.1119,6.145,6.22,6.2929,6.3658,6.442,6.5094,6.5403,6.5403,6.5403,0.0,0.0,0.0,0.0,0.0,6.5403,6.5403,6.5403,6.5403,6.5403,6.5403,6.5403,6.5403,6.5403,6.5403,6.5403,6.5403,6.5403,6.5403,6.5403,6.5403,6.5403,6.5403,6.5403,6.5403,6.5403,6.5403,6.5403,6.5403,6.5403,6.5403,6.5403,6.5403,6.5403,6.5403,6.5403,6.5403,6.5403,6.5403,6.5403,6.5403,6.5403,6.5403,6.5403,6.5403,6.5123,6.5231,6.6076,6.5859,6.5446,6.4953,6.492,6.5287,6.6109,6.5148,6.4801,6.5311,6.436,6.4232,6.5173,6.5489,6.6133,6.7114,6.7913,6.8606,6.9103,6.9103,6.9235,3.8842,4.1023,4.2221,4.1495,4.0953,4.0183,3.858,3.6274,3.4165,3.2939,3.1537,3.0864,3.2067,3.2266,3.3359,3.6684,3.7678,3.9004,4.1692,4.4787,4.7636,5.0055,0.0,0.0,0.0,0.0,0.0,0.0,0.0,0.0,0.0,6.1119,6.1119,6.1119,6.1119,6.1318,6.1769,6.2532,6.3128,6.3592,6.4564,6.5028,6.5028,6.5271,0.0,0.0,0.0,0.0,0.0,6.5403,6.5403,6.5403,6.5403,6.5403,6.5403,6.5403,6.5403,6.5403,6.5403,6.5403,6.5403,6.5403,6.5403,6.5403,6.5403,6.5403,6.5403,6.5403,6.5403,6.5403,6.5403,6.5403,6.5403,6.5403,6.5403,6.5403,6.5403,6.5403,6.5469,6.5767,6.5801,6.59,6.6165,6.6231,6.6231,6.6231,6.6231,6.6231,6.6231,6.6231,6.6397,6.686,6.6926,6.6728,6.6264,6.6231,6.643,6.6893,6.6284,6.6119,6.6567,6.6023,6.6104,6.6992,6.7016,6.7466,6.8417,6.8871,6.9334,6.9798,6.9798,6.9798,0.0,3.7997,3.9879,3.9133,3.8915,3.8679,3.8037,3.5719,0.0,3.2774,3.1493,3.0754,3.1615,3.1714,3.2221,3.3933,3.5379,3.7533,4.1063,4.3628,4.7056,0.0,5.4593,0.0,0.0,0.0,0.0,0.0,0.0,0.0,0.0,6.1119,6.1119,6.1119,6.1119,6.1119,6.1119,6.1836,6.22,6.22,6.3625,6.4321,6.4354,6.5028,0.0,0.0,0.0,0.0,0.0,6.5403,6.5403,6.5403,6.5403,6.5403,6.5403,6.5403,6.5403,6.5403,6.5403,6.5403,6.5403,6.5403,6.5403,6.5403,6.5403,6.5403,6.5403,6.5403,6.5403,6.5403,6.5403,6.5403,6.5403,6.5403,6.5436,6.5469,6.5469,6.5502,6.5767,6.6463,6.6562,6.6794,6.7489,6.7589,6.7589,6.7589,6.7589,6.7589,6.7589,6.7589,6.7622,6.7655,6.7688,6.7688,6.7754,6.7655,6.7622,6.7655,6.7688,6.7688,6.7754,6.7754,6.8085,6.8738,6.8795,6.9126,6.9798,6.9798,6.9831,6.9864,6.9864,6.9898,3.0835,0.0,3.5012,3.4669,3.4606,3.4665,0.0,3.3552,3.2252,3.1946,3.1118,3.1062,3.2928,3.2829,3.3668,3.738,3.8772,4.0249,4.2719,4.6941,5.143,5.6003,5.7475,5.8469,0.0,0.0,0.0,0.0,0.0,0.0,0.0,6.1119,6.1119,6.1119,6.1119,6.1119,6.1119,6.1836,6.22,6.22,6.3128,6.3559,6.3592,6.4266,0.0,0.0,0.0,0.0,6.5403,6.5403,6.5403,6.5403,6.5403,6.5403,6.5403,6.5403,6.5403,6.5403,6.5403,6.5403,6.5403,6.5403,6.5403,6.5403,6.5403,6.5403,6.5403,6.5403,6.5403,6.5403,6.5403,6.5403,6.5403,6.5403,6.5834,6.6231,6.6231,6.6695,6.7125,6.7324,6.7357,6.739,6.7589,6.7589,6.7589,6.7589,6.7589,6.7589,6.7589,6.7589,6.7821,6.8374,6.844,6.8672,6.9235,6.8251,6.7821,6.8407,6.844,6.8705,6.9268,6.9268,6.9368,6.9533,6.9533,6.9633,6.9798,6.9798,7.0096,7.0626,7.0626,7.0924,2.8573,3.0779,3.2987,3.3144,3.3201,3.3386,3.4128,3.2826,3.1474,3.1583,3.1019,3.0952,3.2519,3.2729,3.3801,3.7247,3.897,0.0,4.5997,4.9889,5.3765,5.7806,5.8668,5.933,0.0,0.0,0.0,0.0,0.0,0.0,0.0,6.1119,6.1119,6.1119,6.1119,6.1119,6.1119,6.1483,6.1703,6.1703,6.2432,6.2797,6.2797,6.3526,0.0,0.0,0.0,0.0,6.4962,6.5271,6.5403,6.5403,6.5403,6.5403,6.5403,6.5403,6.5403,6.5403,6.5403,6.5403,6.5403,6.5403,6.5403,6.5403,6.5403,6.5403,6.5403,6.5403,6.5403,6.5469,6.5801,6.59,6.5999,6.633,6.6728,6.6993,6.6993,6.7324,6.7688,6.8042,6.8085,6.8208,6.8572,6.8615,6.8615,6.8615,6.8615,6.8615,6.8615,6.8615,6.8771,6.9169,6.9202,6.9391,6.9765,6.9069,6.8771,6.9169,6.9202,6.9368,6.9765,6.9798,6.9798,6.9798,6.9798,6.9798,6.9798,7.0129,7.0494,7.0924,7.1256,7.162,2.7824,3.0198,3.2667,3.2896,3.3108,3.3482,3.449,3.2903,3.1334,3.1693,3.125,3.1118,3.2078,3.2862,0.0,0.0,0.0,0.0,4.9591,5.2289,5.4872,5.8469,5.8899,0.0,0.0,0.0,0.0,0.0,0.0,0.0,0.0,6.1119,6.1119,6.1119,6.1119,6.1119,6.1119,6.1119,6.1119,6.1119,6.1715,6.2034,6.2068,6.2797,6.3128,0.0,0.0,0.0,6.4454,6.5028,6.5304,6.5403,6.5403,6.5403,6.5403,6.5403,6.5403,6.5403,6.5403,6.5403,6.5403,6.5403,6.5403,6.5403,6.5403,6.5403,6.5403,6.5536,6.5469,6.5569,6.6297,6.6496,6.6695,6.7423,6.7688,6.7754,6.7754,6.7854,6.8119,6.8738,6.8871,6.9093,6.9666,6.9798,6.9798,6.9798,6.9798,6.9798,6.9798,6.9798,6.9798,6.9798,6.9798,6.9798,6.9798,6.9798,6.9798,6.9798,6.9798,6.9798,6.9798,6.9798,6.9798,6.9798,6.9898,6.9964,6.9964,7.0693,7.1123,7.1256,7.1885,7.2216,2.8843,3.1317,3.3118,3.1836,3.238,3.3355,3.3865,3.3306,3.2645,3.2529,3.2442,3.2961,3.4949,3.5943,3.7135,0.0,0.0,4.7222,0.0,0.0,5.5468,5.8535,0.0,0.0,0.0,0.0,0.0,0.0,0.0,0.0,0.0,6.1119,6.1119,6.1119,6.1119,6.1119,6.1119,6.1119,6.1119,6.1119,6.1218,6.1285,6.1285,6.2034,6.2366,0.0,0.0,6.3824,6.442,6.452,6.4895,6.5403,6.5403,6.5403,6.5403,6.5403,6.5403,6.5403,6.5403,6.5403,6.5403,6.5403,6.5403,6.5403,6.5403,6.5403,6.5536,6.6165,6.5867,6.5569,6.6297,6.6496,6.6695,6.7423,6.8076,6.8539,6.8539,6.9003,6.95,6.9599,6.9633,6.9666,6.9765,6.9798,6.9798,6.9798,6.9798,6.9798,6.9798,6.9798,6.9798,6.9798,6.9798,6.9798,6.9798,6.9798,6.9798,6.9798,6.9798,6.9798,6.9798,6.9798,6.9798,6.9798,7.0394,7.0726,7.0726,7.1455,7.215,7.278,7.2879,7.3276,2.7722,2.9629,3.1503,3.2215,3.3712,3.4971,3.4984,3.428,3.3681,3.3874,3.39,3.4419,3.6274,0.0,4.0263,4.4423,0.0,5.0734,5.3202,5.4442,5.5899,0.0,0.0,0.0,0.0,0.0,0.0,0.0,0.0,0.0,0.0,0.0,6.1119,6.1119,6.1119,6.1119,6.1119,6.1119,6.1119,6.1119,6.1119,6.1119,6.1098,6.145,6.1616,6.1649,0.0,6.3128,6.3824,6.4255,6.4796,6.5403,6.5403,6.5403,6.5403,6.5403,6.5403,6.5403,6.5403,6.5403,6.5403,6.5403,6.5403,6.5403,6.5403,6.5403,6.5536,6.6297,6.6264,6.6264,6.738,6.7678,6.7877,6.8606,6.9036,6.9268,6.9268,6.9566,6.9798,6.9798,6.9798,6.9798,6.9798,6.9798,6.9798,6.9798,6.9798,6.9798,6.9798,6.9798,6.9798,6.9798,6.9798,6.9798,6.9798,7.0163,7.0229,6.9831,6.9798,6.9798,6.9798,6.9798,6.9997,7.0394,7.0726,7.109,7.1488,7.225,7.278,7.3111,7.3508,7.3898,2.7363,2.869,3.0496,3.2974,0.0,3.6121,3.6865,3.6057,0.0,0.0,0.0,0.0,3.8116,4.0448,0.0,4.8796,5.1446,5.3334,5.4574,0.0,0.0,0.0,0.0,0.0,0.0,0.0,0.0,0.0,0.0,0.0,0.0,0.0,6.1119,6.1119,6.1119,6.1119,6.1119,6.1119,6.1119,6.1119,6.1119,6.1119,6.1119,6.1119,6.1119,6.1152,6.1703,6.2366,6.3095,6.3824,6.4553,6.5194,6.5337,6.5403,6.5403,6.5403,6.5403,6.5403,6.5403,6.5403,6.5403,6.5403,6.5403,6.5403,6.5403,6.5403,6.5569,6.6496,6.6761,6.7059,6.8341,6.8695,6.8894,6.9599,6.9798,6.9798,6.9798,6.9798,6.9798,6.9798,6.9798,6.9798,6.9798,6.9798,6.9798,6.9798,6.9798,6.9798,6.9798,6.9798,6.9864,7.003,7.0063,7.0129,7.0295,7.0825,7.0924,7.0361,7.0328,7.0328,7.0328,7.0328,7.0593,7.1156,7.1322,7.1686,7.225,7.3011,7.3376,7.3376,7.3931,7.4196,2.9564,3.083,3.1871,3.3698,3.4217,3.5285,3.9214,3.8964,0.0,4.052,0.0,0.0,0.0,4.5052,4.8266,5.0734,5.2937,5.4607,5.5402,0.0,0.0,0.0,0.0,0.0,0.0,0.0,0.0,0.0,0.0,0.0,0.0,0.0,0.0,6.1119,6.1119,6.1119,6.1119,6.1119,6.1119,6.1119,6.1119,6.1119,6.1119,6.1119,6.1119,6.1119,6.1152,6.1583,6.2333,6.3062,6.3824,6.4553,6.516,6.5403,6.5403,6.5403,6.5403,6.5403,6.5403,6.5403,6.5403,6.5403,6.5403,6.5403,6.5403,6.5403,6.5701,6.7125,6.7523,6.7688,6.8473,6.8695,6.8894,6.9599,6.9798,6.9798,6.9798,6.9798,6.9798,6.9798,6.9798,6.9798,6.9798,6.9798,6.9798,6.9798,6.9798,6.9798,6.9798,6.9798,7.0063,7.0759,7.0825,7.109,7.1786,7.1885,7.1918,7.1852,7.1852,7.1852,7.1852,7.1852,7.1885,7.1918,7.2614,7.2978,7.3045,7.3765,7.413,7.413,7.4163,7.4196,2.8122,2.9684,3.1498,3.3668,3.5485,0.0,0.0,4.0315,4.1361,4.3098,4.3827,0.0,0.0,0.0,5.0602,5.234,5.4427,5.5984,0.0,0.0,0.0,0.0,0.0,0.0,0.0,0.0,0.0,0.0,0.0,0.0,0.0,0.0,0.0,6.0423,6.0423,6.0655,6.1119,6.1119,6.1119,6.1119,6.1119,6.1119,6.1119,6.1119,6.1119,6.1119,6.1119,6.1516,6.22,6.2498,6.3327,6.4487,6.516,6.5403,6.5403,6.5403,6.5403,6.5403,6.5403,6.5403,6.5403,6.5403,6.5403,6.5403,6.5403,6.5701,6.6297,6.7324,6.792,6.844,6.9169,6.9368,6.9434,6.9732,6.9798,6.9798,6.9798,6.9798,6.9798,6.9798,6.9798,6.9798,6.9798,6.9798,6.9798,6.9798,6.9798,6.9964,7.0428,7.0494,7.0759,7.1521,7.1587,7.1885,7.2614,7.268,7.2879,7.3335,7.2515,7.2018,7.2018,7.2018,7.2216,7.268,7.2978,7.3343,7.3799,7.4064,7.4196,7.4196,7.4196,7.4196,2.7873,2.931,3.1395,3.3928,0.0,0.0,4.0549,4.2137,4.3893,4.6294,4.7023,0.0,0.0,0.0,0.0,0.0,5.5256,0.0,0.0,0.0,0.0,0.0,0.0,0.0,0.0,0.0,0.0,0.0,0.0,0.0,0.0,0.0,0.0,0.0,5.9661,6.0026,6.0755,6.0755,6.0887,6.1119,6.1119,6.1119,6.1119,6.1119,6.1119,6.1119,6.1119,6.1384,6.1869,6.2101,6.3062,6.4487,6.516,6.5403,6.5403,6.5403,6.5403,6.5403,6.5403,6.5403,6.5403,6.5403,6.5403,6.5403,6.5403,6.59,6.6662,6.739,6.8142,6.8871,6.9599,6.9798,6.9798,6.9798,6.9798,6.9798,6.9798,6.9798,6.9798,6.9798,6.9798,6.9798,6.9798,6.9798,6.9798,6.9798,6.9997,7.0328,7.0825,7.109,7.1521,7.2283,7.2548,7.2879,7.3409,7.3442,7.3641,7.4163,7.3268,7.268,7.268,7.268,7.2912,7.3442,7.3442,7.3699,7.4196,7.4196,7.4196,7.4196,7.4196,7.4196,2.9577,3.0285,3.187,3.4631,0.0,0.0,4.359,4.4736,4.5996,5.0403,5.075,5.0452,5.1198,0.0,0.0,5.3283,0.0,0.0,0.0,0.0,0.0,0.0,0.0,0.0,0.0,0.0,0.0,0.0,0.0,0.0,0.0,0.0,0.0,0.0,5.8899,5.9231,5.9993,5.9993,6.0357,6.1086,6.1119,6.1119,6.1119,6.1119,6.1119,6.1119,6.1119,6.1119,6.1152,6.1902,6.3062,6.4454,6.5127,6.537,6.5403,6.5403,6.5403,6.5403,6.5403,6.5403,6.5403,6.5403,6.5403,6.5403,6.5403,6.59,6.6662,6.739,6.8142,6.8871,6.9599,6.9798,6.9798,6.9798,6.9798,6.9798,6.9798,6.9798,6.9798,6.9798,6.9798,6.9798,6.9798,6.9798,6.9798,6.9798,7.0428,7.0891,7.0924,7.1554,7.2316,7.3045,7.3765,7.4196,7.4196,7.4196,7.4196,7.4196,7.4196,7.4196,7.4196,7.4196,7.4196,7.4196,7.4196,7.4196,7.4196,7.4196,7.4196,7.4196,7.4196,7.4196,2.8486,3.0087,3.2473,3.5108,3.8809,4.266,0.0,4.7007,0.0,0.0,5.2952,5.2521,5.2738,0.0,0.0,0.0,0.0,0.0,0.0,0.0,0.0,0.0,0.0,0.0,0.0,0.0,0.0,0.0,0.0,0.0,0.0,0.0,0.0,0.0,5.8138,5.8469,5.9231,5.9761,6.0125,6.0324,6.0854,6.1119,6.1119,6.1119,6.1119,6.1119,6.1119,6.1119,6.1152,6.1902,6.2764,6.3691,6.442,6.4995,6.5403,6.5403,6.5403,6.5403,6.5403,6.5403,6.5403,6.5403,6.5403,6.5403,6.5403,6.59,6.6662,6.739,6.8142,6.8871,6.9599,6.9798,6.9798,6.9798,6.9798,6.9798,6.9798,6.9798,6.9798,6.9798,6.9798,6.9798,6.9798,6.9798,6.9798,6.9798,7.0428,7.1289,7.2316,7.3078,7.3633,7.3865,7.4064,7.4196,7.4196,7.4196,7.4196,7.4196,7.4196,7.4196,7.4196,7.4196,7.4196,7.4196,7.4196,7.4196,7.4196,7.4196,7.4196,7.4196,7.4196,7.4196,2.9584,3.1854,3.4726,3.7469,4.0898,4.4673,4.8796,5.0187,0.0,0.0,5.4343,5.3945,5.421,5.4409,0.0,0.0,0.0,0.0,0.0,0.0,0.0,0.0,0.0,0.0,0.0,0.0,0.0,0.0,0.0,0.0,0.0,0.0,0.0,0.0,5.7362,5.7707,5.8469,5.8899,5.9264,5.9562,6.0324,6.0655,6.0688,6.0986,6.1119,6.1119,6.1119,6.1119,6.1152,6.1902,6.2465,6.2962,6.399,6.463,6.5028,6.5304,6.5403,6.5403,6.5403,6.5403,6.5403,6.5403,6.5403,6.5403,6.5403,6.59,6.6662,6.739,6.8142,6.8871,6.9599,6.9798,6.9798,6.9798,6.9798,6.9798,6.9798,6.9798,6.9798,6.9798,6.9798,6.9798,6.9798,6.9798,6.9798,6.9798,7.0693,7.1885,7.3343,7.3931,7.4196,7.4196,7.4196,7.4196,7.4196,7.4196,7.4196,7.4196,7.4196,7.4196,7.4196,7.4196,7.4196,7.4196,7.4196,7.4196,7.4196,7.4196,7.4196,7.4196,7.4196,7.4196,3.1771,3.4448,3.7652,4.0732,4.2851,4.5666,5.1331,5.3599,5.474,5.5535,0.0,5.4906,5.5568,5.5137,0.0,0.0,0.0,0.0,0.0,0.0,0.0,0.0,0.0,0.0,0.0,0.0,0.0,0.0,0.0,0.0,0.0,0.0,0.0,5.6699,5.6699,5.7031,5.7674,5.7773,5.8138,0.0,5.9562,5.9893,5.9926,6.0755,6.1119,6.1119,6.1119,6.1119,6.1152,6.1836,6.2134,6.2333,6.3603,6.4233,6.4487,6.5094,6.5337,6.5403,6.5403,6.5403,6.5403,6.5403,6.5403,6.5403,6.5403,6.5867,6.6562,6.739,6.8076,6.8771,6.9599,6.9798,6.9798,6.9798,6.9798,6.9798,6.9798,6.9798,6.9798,6.9798,6.9798,6.9798,6.9798,6.9798,6.9831,6.9964,7.1123,7.2515,7.3997,7.4196,7.4196,7.4196,7.4196,7.4196,7.4196,7.4196,7.4196,7.4196,7.4196,7.4196,7.4196,7.4196,7.4196,7.4196,7.4196,7.4196,7.4196,7.4196,7.4196,7.4196,7.4196,7.4196,3.0394,3.3047,3.6473,4.1096,4.5567,4.9706,5.325,5.4276,5.4872,5.6183,5.6349,5.6282,5.6415,5.6316,0.0,0.0,0.0,0.0,0.0,0.0,0.0,0.0,0.0,0.0,0.0,0.0,0.0,0.0,0.0,0.0,0.0,0.0,0.0,5.6699,5.6699,5.6799,5.6931,5.7508,5.7873,0.0,5.8767,5.9131,5.9164,6.0523,6.1119,6.1119,6.1119,6.1119,6.1098,6.1285,6.1682,6.2233,6.2532,6.336,6.442,6.4553,6.4962,6.5403,6.5403,6.5403,6.5403,6.5403,6.5403,6.5403,6.5403,6.5502,6.59,6.7224,6.7721,6.8119,6.9467,6.9798,6.9798,6.9798,6.9798,6.9798,6.9798,6.9798,6.9798,6.9798,6.9798,6.9798,6.9798,6.9798,7.0196,7.1355,7.1786,7.2515,7.3997,7.4196,7.4196,7.4196,7.4196,7.4196,7.4196,7.4196,7.4196,7.4196,7.4196,7.4196,7.4196,7.4196,7.4196,7.4196,7.4196,7.4196,7.4196,7.4196,7.4196,7.4196,7.4196,7.4196,3.1513,3.4653,3.8308,4.3779,4.7686,5.0865,5.3382,5.4243,5.4806,5.5951,5.6448,5.6699,5.6699,5.6699,0.0,0.0,0.0,0.0,0.0,0.0,0.0,0.0,0.0,0.0,0.0,0.0,0.0,0.0,0.0,0.0,0.0,5.6699,5.6699,5.6699,5.6699,5.6699,5.6699,5.7097,5.7263,5.7296,5.8005,5.8568,5.8933,6.0059,6.0788,6.1119,6.1119,6.1119,6.1119,6.1119,6.1318,6.1703,6.2068,6.2896,6.3923,6.4288,6.4829,6.5403,6.5403,6.5403,6.5403,6.5403,6.5403,6.5403,6.5403,6.5403,6.5635,6.6761,6.7324,6.7854,6.897,6.9533,6.9798,6.9798,6.9798,6.9798,6.9798,6.9798,6.9798,6.9798,6.9798,6.9798,6.9798,6.9798,7.0196,7.1455,7.1852,7.2515,7.3997,7.4196,7.4196,7.4196,7.4196,7.4196,7.4196,7.4196,7.4196,7.4196,7.4196,7.4196,7.4196,7.4196,7.4196,7.4196,7.4196,7.4196,7.4196,7.4196,7.4196,7.4196,7.4196,7.4196,3.2277,3.6475,4.0959,4.6444,4.9011,5.0733,5.2753,5.378,5.4574,5.5435,5.6183,5.6699,5.6699,5.6699,0.0,0.0,0.0,0.0,0.0,0.0,0.0,0.0,0.0,0.0,0.0,0.0,0.0,0.0,0.0,0.0,5.6699,5.6699,5.6699,5.6699,5.6699,5.6699,5.6699,5.6699,5.6699,5.6699,5.7329,5.8025,5.8734,5.933,6.0092,6.092,6.1053,6.1119,6.1119,6.1119,6.1119,6.1152,6.1769,6.2465,6.3194,6.3957,6.463,6.526,6.5337,6.5403,6.5403,6.5403,6.5403,6.5403,6.5403,6.5403,6.5536,6.6297,6.7026,6.7754,6.8506,6.9235,6.9798,6.9798,6.9798,6.9798,6.9798,6.9798,6.9798,6.9798,6.9798,6.9798,6.9798,6.9798,7.0186,7.128,7.1753,7.2515,7.3997,7.4196,7.4196,7.4196,7.4196,7.4196,7.4196,7.4196,7.4196,7.4196,7.4196,7.4196,7.4196,7.4196,7.4196,7.4196,7.4196,7.4196,7.4196,7.4196,7.4196,7.4196,7.4196,7.4196,2.8603,3.5009,4.2057,4.6046,4.863,5.0618,5.2192,5.3069,5.3945,0.0,5.6183,5.6699,5.6699,0.0,0.0,0.0,0.0,0.0,0.0,0.0,0.0,0.0,0.0,0.0,0.0,0.0,0.0,0.0,0.0,0.0,5.6699,5.6699,5.6699,5.6699,5.6699,5.6699,5.6699,5.6699,5.6699,5.6699,5.6799,5.721,5.7939,5.8038,5.8833,6.0191,6.0821,6.1119,6.1119,6.1119,6.1119,6.1098,6.1218,6.1703,6.2432,6.3161,6.3923,6.4619,6.5194,6.5403,6.5403,6.5403,6.5403,6.5403,6.5403,6.5403,6.5536,6.6297,6.7026,6.7754,6.8506,6.9235,6.9798,6.9798,6.9798,6.9798,6.9798,6.9798,6.9798,6.9798,6.9798,6.9798,6.9798,6.9798,7.0262,7.1686,7.1951,7.2515,7.3997,7.4196,7.4196,7.4196,7.4196,7.4196,7.4196,7.4196,7.4196,7.4196,7.4196,7.4196,7.4196,7.4196,7.4196,7.4196,7.4196,7.4196,7.4196,7.4196,7.4196,7.4196,7.4196,7.4196,3.1204,3.6926,4.2289,4.598,4.8266,4.9988,5.1463,5.2605,5.3713,5.4773,5.5568,5.6216,5.6614,0.0,0.0,0.0,0.0,0.0,0.0,0.0,0.0,0.0,0.0,0.0,0.0,0.0,0.0,0.0,0.0,5.6699,5.6699,5.6699,5.6699,5.6699,5.6699,5.6699,5.6699,5.6699,5.6699,5.6699,5.6699,5.6865,5.7196,5.7608,5.8601,6.0026,6.0357,6.0721,6.1119,6.1119,6.1119,6.1119,6.1119,6.155,6.2266,6.3029,6.3758,6.452,6.5194,6.5403,6.5403,6.5403,6.5403,6.5403,6.5403,6.5403,6.5469,6.5801,6.6728,6.7655,6.7986,6.8937,6.9798,6.9798,6.9798,6.9798,6.9798,6.9798,6.9798,6.9798,6.9798,6.9798,6.9798,6.9798,7.003,7.0659,7.215,7.3467,7.413,7.4196,7.4196,7.4196,7.4196,7.4196,7.4196,7.4196,7.4196,7.4196,7.4196,7.4196,7.4196,7.4196,7.4196,7.4196,7.4196,7.4196,7.4196,7.4196,7.4196,7.4196,7.4196,7.4196,3.2836,3.7122,4.0448,4.4489,4.704,4.8928,5.0403,5.1843,5.3135,0.0,5.4674,5.5336,5.6249,0.0,0.0,0.0,0.0,0.0,0.0,0.0,0.0,0.0,0.0,0.0,0.0,0.0,0.0,0.0,0.0,5.6699,5.6699,5.6699,5.6699,5.6699,5.6699,5.6699,5.6699,5.6699,5.6699,5.6699,5.6699,5.6699,5.6732,5.7263,5.8204,5.9463,5.9827,6.0324,6.0854,6.102,6.1119,6.1119,6.1119,6.145,6.2034,6.2962,6.3658,6.4255,6.5094,6.5403,6.5403,6.5403,6.5403,6.5403,6.5403,6.5403,6.5403,6.5403,6.6463,6.7589,6.7589,6.8682,6.9798,6.9798,6.9798,6.9798,6.9798,6.9798,6.9798,6.9798,6.9798,6.9798,6.9798,6.9798,7.003,7.0816,7.2804,7.4196,7.4196,7.4196,7.4196,7.4196,7.4196,7.4196,7.4196,7.4196,7.4196,7.4196,7.4196,7.4196,7.4196,7.4196,7.4196,7.4196,7.4196,7.4196,7.4196,7.4196,7.4196,7.4196,7.4196,7.4196,3.0141,3.2983,3.5379,4.0434,4.439,4.7404,4.8895,5.037,5.1795,5.315,5.3482,5.3945,5.5402,0.0,0.0,0.0,0.0,0.0,0.0,0.0,0.0,0.0,0.0,0.0,0.0,0.0,0.0,0.0,0.0,5.6699,5.6699,5.6699,5.6699,5.6699,5.6699,5.6699,5.6699,5.6699,5.6699,5.6699,5.6699,5.6699,5.6699,5.6732,5.7177,5.7972,5.9396,6.0026,6.0125,6.0821,6.1119,6.1119,6.1119,6.1119,6.1318,6.2764,6.3327,6.3559,6.4929,6.5403,6.5403,6.5403,6.5403,6.5403,6.5403,6.5403,6.5403,6.5403,6.6463,6.7589,6.7589,6.8682,6.9798,6.9798,6.9798,6.9798,6.9798,6.9798,6.9798,6.9798,6.9798,6.9798,6.9798,6.9798,7.075,7.3533,7.4097,7.4196,7.4196,7.4196,7.4196,7.4196,7.4196,7.4196,7.4196,7.4196,7.4196,7.4196,7.4196,7.4196,7.4196,7.4196,7.4196,7.4196,7.4196,7.4196,7.4196,7.4196,7.4196,7.4196,7.4196,7.4196,2.8642,3.1647,3.4684,3.8414,4.209,4.517,4.6643,4.921,5.1563,5.2557,5.3102,5.3713,5.4707,0.0,0.0,0.0,0.0,0.0,0.0,0.0,0.0,0.0,0.0,0.0,0.0,0.0,0.0,0.0,0.0,0.0,5.6699,5.6699,5.6699,5.6699,5.6699,5.6699,5.6699,5.6699,5.6699,5.6699,5.6699,5.6699,5.6699,5.6699,5.6832,5.7144,5.8138,5.9131,6.0059,6.0821,6.1119,6.1119,6.1119,6.1119,6.1285,6.2764,6.3294,6.3493,6.4929,6.5403,6.5403,6.5403,6.5403,6.5403,6.5403,6.5403,6.5403,6.5403,6.6463,6.7589,6.7589,6.8682,6.9798,6.9798,6.9798,6.9798,6.9798,6.9798,6.9798,6.9798,6.9798,6.9798,6.9798,7.1379,7.297,7.403,7.4196,7.4196,7.4196,7.4196,7.4196,7.4196,7.4196,7.4196,7.4196,7.4196,7.4196,7.4196,7.4196,7.4196,7.4196,7.4196,7.4196,7.4196,7.4196,7.4196,7.4196,7.4196,7.4196,7.4196,7.4196,7.4196,2.6858,2.9748,3.316,3.6593,3.9474,4.2189,4.5119,4.7686,4.9873,5.1364,5.2208,5.3003,5.3945,5.4541,0.0,0.0,0.0,0.0,0.0,0.0,0.0,0.0,0.0,0.0,0.0,0.0,0.0,0.0,0.0,0.0,5.6699,5.6699,5.6699,5.6699,5.6699,5.6699,5.6699,5.6699,5.6699,5.6699,5.6699,5.6699,5.6699,5.6699,5.6699,5.6732,5.7475,5.8502,5.9694,6.0423,6.0887,6.1119,6.1119,6.1119,6.1251,6.2498,6.3095,6.3459,6.463,6.5227,6.5403,6.5403,6.5403,6.5403,6.5403,6.5403,6.5436,6.5701,6.6662,6.7655,6.7887,6.8871,6.9798,6.9798,6.9798,6.9798,6.9798,6.9798,6.9798,6.9798,7.0063,7.0328,7.0494,7.2572,7.4196,7.4196,7.4196,7.4196,7.4196,7.4196,7.4196,7.4196,7.4196,7.4196,7.4196,7.4196,7.4196,7.4196,7.4196,7.4196,7.4196,7.4196,7.4196,7.4196,7.4196,7.4196,7.4196,7.4196,7.4196,7.4196,7.4196,7.4196,0.0,0.0,0.0,0.0,0.0,3.846,4.4191,4.5565,4.6444,4.9441,5.0618,5.1596,5.3069,5.3349,0.0,0.0,0.0,0.0,0.0,0.0,0.0,0.0,0.0,0.0,0.0,0.0,0.0,0.0,0.0,5.6699,5.6699,5.6699,5.6699,5.6699,5.6699,5.6699,5.6699,5.6699,5.6699,5.6699,5.6699,5.6699,5.6699,5.6699,5.6699,5.6732,5.7461,5.8204,5.8966,5.9694,6.0423,6.1119,6.1119,6.1119,6.1185,6.1935,6.2664,6.3393,6.4155,6.4829,6.5403,6.5403,6.5403,6.5403,6.5403,6.5403,6.5536,6.6297,6.7026,6.7754,6.8539,6.9235,6.9798,6.9798,6.9798,6.9798,6.9798,6.9798,6.9798,6.9798,7.0617,7.1446,7.1918,7.3235,7.4196,7.4196,7.4196,7.4196,7.4196,7.4196,7.4196,7.4196,7.4196,7.4196,7.4196,7.4196,7.4196,7.4196,7.4196,7.4196,7.4196,7.4196,7.4196,7.4196,7.4196,7.4196,7.4196,7.4196,7.4196,7.4196,7.4196,7.4196,2.5978,0.0,0.0,0.0,0.0,0.0,0.0,0.0,4.2218,4.6212,4.7189,4.8249,5.1331,5.1894,0.0,0.0,0.0,0.0,0.0,0.0,0.0,0.0,0.0,0.0,0.0,0.0,0.0,0.0,5.6699,5.6699,5.6699,5.6699,5.6699,5.6699,5.6699,5.6699,5.6699,5.6699,5.6699,5.6699,5.6699,5.6699,5.6699,5.6699,5.6699,5.6732,5.6931,5.7727,5.8966,5.9694,6.0423,6.1119,6.1119,6.1119,6.1185,6.1935,6.2664,6.3393,6.4155,6.4829,6.5403,6.5403,6.5403,6.5403,6.5403,6.5403,6.5536,6.6297,6.7026,6.7887,6.9169,6.9633,6.9798,6.9798,6.9798,6.9798,6.9798,6.9798,6.9798,6.9798,7.0617,7.1446,7.1918,7.3235,7.4196,7.4196,7.4196,7.4196,7.4196,7.4196,7.4196,7.4196,7.4196,7.4196,7.4196,7.4196,7.4196,7.4196,7.4196,7.4196,7.4196,7.4196,7.4196,7.4196,7.4196,7.4196,7.4196,7.4196,7.4196,7.4196,7.4196,7.4196,0.0,0.0,0.0,0.0,0.0,0.0,0.0,3.8142,4.0097,0.0,4.583,4.7106,4.9873,5.0403,0.0,0.0,0.0,0.0,0.0,0.0,0.0,0.0,0.0,0.0,0.0,5.6249,0.0,5.6699,5.6699,5.6699,5.6699,5.6699,5.6699,5.6699,5.6699,5.6699,5.6699,5.6699,5.6699,5.6699,5.6699,5.6699,5.6699,5.6699,5.6699,5.6699,5.6699,5.7362,5.8502,5.9231,6.0158,6.1119,6.1119,6.1119,6.1152,6.1583,6.2399,6.336,6.3791,6.4564,6.5403,6.5403,6.5403,6.5403,6.5403,6.5403,6.5602,6.6662,6.7721,6.8738,6.9566,6.9798,6.9798,6.9798,6.9798,6.9798,6.9798,6.9798,6.9898,7.0328,7.0916,7.1446,7.1918,7.3235,7.4196,7.4196,7.4196,7.4196,7.4196,7.4196,7.4196,7.4196,7.4196,7.4196,7.4196,7.4196,7.4196,7.4196,7.4196,7.4196,7.4196,7.4196,7.4196,7.4196,7.4196,7.4196,7.4196,7.4196,7.4196,7.4196,7.4196,7.4196,2.9049,3.0212,0.0,0.0,0.0,0.0,3.7181,3.7996,3.8878,0.0,4.4887,4.6344,4.8067,4.8498,0.0,0.0,0.0,0.0,0.0,0.0,0.0,0.0,0.0,0.0,5.5402,5.5468,5.5733,5.6415,5.6534,5.6633,5.6699,5.6699,5.6699,5.6699,5.6699,5.6699,5.6699,5.6699,5.6699,5.6699,5.6699,5.6699,5.6699,5.6699,5.6699,5.6699,5.6699,5.713,5.7839,5.8601,5.9728,6.0986,6.1086,6.1119,6.1119,6.1119,6.2013,6.3294,6.3294,6.42,6.5403,6.5403,6.5403,6.5403,6.5403,6.5403,6.5701,6.7191,6.8648,6.9798,6.9798,6.9798,6.9798,6.9798,6.9798,6.9798,6.9798,6.9798,7.0096,7.1114,7.1379,7.1578,7.1951,7.3235,7.4196,7.4196,7.4196,7.4196,7.4196,7.4196,7.4196,7.4196,7.4196,7.4196,7.4196,7.4196,7.4196,7.4196,7.4196,7.4196,7.4196,7.4196,7.4196,7.4196,7.4196,7.4196,7.4196,7.4196,7.4196,7.4196,7.4196,7.4196,3.1174,3.1692,3.2266,0.0,0.0,0.0,0.0,3.3491,3.5413,0.0,3.8825,3.997,4.3216,4.4754,4.545,0.0,0.0,0.0,0.0,0.0,0.0,0.0,0.0,0.0,5.4707,5.4707,5.4773,5.4906,5.5468,5.6065,5.6666,5.6699,5.6699,5.6699,5.6699,5.6699,5.6699,5.6699,5.6699,5.6699,5.6699,5.6699,5.6699,5.6699,5.6699,5.6699,5.6699,5.713,5.7839,5.8601,5.9429,6.0258,6.0887,6.1119,6.1119,6.1119,6.2013,6.3294,6.3294,6.42,6.5403,6.5403,6.5403,6.5403,6.5403,6.5403,6.5701,6.7191,6.8648,6.9798,6.9798,6.9798,6.9798,6.9798,6.9798,6.9798,6.9798,6.9798,7.0096,7.1114,7.191,7.2316,7.2051,7.3235,7.4196,7.4196,7.4196,7.4196,7.4196,7.4196,7.4196,7.4196,7.4196,7.4196,7.4196,7.4196,7.4196,7.4196,7.4196,7.4196,7.4196,7.4196,7.4196,7.4196,7.4196,7.4196,7.4196,7.4196,7.4196,7.4196,7.4196,7.4196,3.3094,3.3226,3.3701,3.3347,0.0,0.0,0.0,0.0,3.4629,3.7579,3.7599,3.7996,4.0912,0.0,4.235,0.0,0.0,0.0,0.0,0.0,0.0,0.0,0.0,0.0,5.287,5.3548,5.4111,5.4475,5.4839,5.5369,5.6117,5.615,5.6316,5.6699,5.6699,5.6699,5.6699,5.6699,5.6699,5.6699,5.6699,5.6699,5.6699,5.6699,5.6699,5.6699,5.6699,5.6931,5.7342,5.8436,5.9131,5.9562,6.0688,6.1119,6.1119,6.1119,6.2013,6.3294,6.3294,6.42,6.5403,6.5403,6.5403,6.5403,6.5403,6.5635,6.6165,6.7291,6.8407,6.9358,6.9699,6.9798,6.9798,6.9798,6.9798,6.9798,6.9798,6.9798,6.9931,7.0452,7.1711,7.2804,7.3045,7.3699,7.4196,7.4196,7.4196,7.4196,7.4196,7.4196,7.4196,7.4196,7.4196,7.4196,7.4196,7.4196,7.4196,7.4196,7.4196,7.4196,7.4196,7.4196,7.4196,7.4196,7.4196,7.4196,7.4196,7.4196,7.4196,7.4196,7.4196,7.4196,0.0,0.0,0.0,0.0,0.0,3.4729,0.0,0.0,0.0,0.0,0.0,0.0,0.0,0.0,0.0,0.0,0.0,0.0,0.0,0.0,0.0,0.0,0.0,0.0,0.0,5.1446,5.2587,5.4177,5.378,5.4011,5.5336,5.5535,5.5866,5.6448,5.6633,5.6699,5.6699,5.6699,5.6699,5.6699,5.6699,5.6699,5.6699,5.6699,5.6699,5.6699,5.6699,5.6699,5.6832,5.827,5.8899,5.9032,6.0523,6.1119,6.1119,6.1119,6.2013,6.3294,6.3294,6.42,6.5403,6.5403,6.5403,6.5403,6.5403,6.59,6.6662,6.739,6.8142,6.8871,6.9599,6.9798,6.9798,6.9798,6.9798,6.9798,6.9798,6.9798,6.9798,6.9798,7.1289,7.2813,7.3633,7.3997,7.4196,7.4196,7.4196,7.4196,7.4196,7.4196,7.4196,7.4196,7.4196,7.4196,7.4196,7.4196,7.4196,7.4196,7.4196,7.4196,7.4196,7.4196,7.4196,7.4196,7.4196,7.4196,7.4196,7.4196,7.4196,7.4196,7.4196,7.4196,0.0,0.0,0.0,0.0,3.8215,0.0,0.0,0.0,0.0,0.0,0.0,0.0,0.0,0.0,0.0,0.0,0.0,0.0,0.0,0.0,0.0,0.0,0.0,0.0,0.0,0.0,4.8564,5.3184,5.1163,5.113,5.4442,5.5237,5.5634,5.5733,5.6349,5.6699,5.6699,5.6699,5.6699,5.6699,5.6699,5.6699,5.6699,5.6699,5.6699,5.6699,5.6699,5.6699,5.6832,5.827,5.8899,5.9032,6.0523,6.1119,6.1119,6.1119,6.2013,6.3294,6.3294,6.42,6.5403,6.5403,6.5403,6.5403,6.5403,6.59,6.6662,6.739,6.8142,6.8871,6.9599,6.9798,6.9798,6.9798,6.9798,6.9798,6.9798,6.9798,6.9798,6.9798,7.1024,7.2117,7.2216,7.3335,7.4196,7.4196,7.4196,7.4196,7.4196,7.4196,7.4196,7.4196,7.4196,7.4196,7.4196,7.4196,7.4196,7.4196,7.4196,7.4196,7.4196,7.4196,7.4196,7.4196,7.4196,7.4196,7.4196,7.4196,7.4196,7.4196,7.4196,7.4196,0.0,0.0,0.0,0.0,0.0,0.0,0.0,0.0,3.5148,0.0,0.0,0.0,0.0,0.0,0.0,0.0,0.0,0.0,0.0,0.0,0.0,0.0,0.0,0.0,0.0,0.0,0.0,0.0,0.0,4.9889,5.3102,5.4343,5.517,5.5601,5.6316,5.6699,5.6699,5.6699,5.6699,5.6699,5.6699,5.6699,5.6699,5.6699,5.6699,5.6699,5.6699,5.6699,5.6832,5.827,5.8899,5.9032,6.0523,6.1119,6.1119,6.1119,6.2013,6.3294,6.3294,6.42,6.5403,6.5403,6.5403,6.5403,6.5403,6.5602,6.6099,6.7258,6.7821,6.8341,6.95,6.9798,6.9798,6.9798,6.9798,6.9798,6.9798,6.9798,6.9798,6.9798,7.0991,7.2084,7.2349,7.3401,7.4196,7.4196,7.4196,7.4196,7.4196,7.4196,7.4196,7.4196,7.4196,7.4196,7.4196,7.4196,7.4196,7.4196,7.4196,7.4196,7.4196,7.4196,7.4196,7.4196,7.4196,7.4196,7.4196,7.4196,7.4196,7.4196,7.4196,7.4196,4.0859,0.0,0.0,0.0,0.0,0.0,0.0,0.0,0.0,0.0,0.0,0.0,0.0,0.0,0.0,0.0,0.0,0.0,0.0,0.0,0.0,0.0,0.0,0.0,0.0,0.0,0.0,0.0,0.0,0.0,5.1596,5.297,5.4144,5.527,5.6017,5.6481,5.6699,5.6699,5.6699,5.6699,5.6699,5.6699,5.6699,5.6699,5.6699,5.6699,5.6699,5.6699,5.6832,5.827,5.8899,5.9032,6.0523,6.1119,6.1119,6.1119,6.2013,6.3294,6.3294,6.42,6.5403,6.5403,6.5403,6.5403,6.5403,6.5403,6.5701,6.7191,6.7589,6.7953,6.9401,6.9798,6.9798,6.9798,6.9798,6.9798,6.9798,6.9798,6.9798,6.9798,7.0991,7.215,7.2639,7.3533,7.4196,7.4196,7.4196,7.4196,7.4196,7.4196,7.4196,7.4196,7.4196,7.4196,7.4196,7.4196,7.4196,7.4196,7.4196,7.4196,7.4196,7.4196,7.4196,7.4196,7.4196,7.4196,7.4196,7.4196,7.4196,7.4196,7.4196,7.4196,0.0,0.0,0.0,0.0,0.0,0.0,0.0,0.0,3.7884,0.0,0.0,0.0,0.0,0.0,0.0,0.0,0.0,0.0,0.0,0.0,0.0,0.0,0.0,0.0,0.0,0.0,0.0,0.0,0.0,0.0,4.9971,5.1,5.2391,5.4475,5.527,5.5965,5.6699,5.6699,5.6699,5.6699,5.6699,5.6699,5.6699,5.6699,5.6699,5.6699,5.6699,5.6699,5.6832,5.827,5.8899,5.9032,6.0523,6.1119,6.1119,6.1119,6.2013,6.3294,6.3294,6.42,6.5403,6.5403,6.5403,6.5403,6.5403,6.5403,6.5701,6.7191,6.7589,6.7953,6.9401,6.9798,6.9798,6.9798,6.9798,6.9798,6.9798,6.9798,6.9798,6.9798,7.0991,7.215,7.2639,7.3533,7.4196,7.4196,7.4196,7.4196,7.4196,7.4196,7.4196,7.4196,7.4196,7.4196,7.4196,7.4196,7.4196,7.4196,7.4196,7.4196,7.4196,7.4196,7.4196,7.4196,7.4196,7.4196,7.4196,7.4196,7.4196,7.4196,7.4196,7.4196,0.0,0.0,4.7669,4.3264,0.0,0.0,0.0,0.0,0.0,0.0,0.0,0.0,0.0,0.0,0.0,0.0,0.0,0.0,0.0,0.0,0.0,0.0,0.0,0.0,0.0,0.0,0.0,0.0,4.3547,0.0,0.0,5.0834,5.2557,5.3746,5.4972,5.5932,5.6699,5.6699,5.6699,5.6699,5.6699,5.6699,5.6699,5.6699,5.6699,5.6699,5.6699,5.6699,5.6832,5.827,5.8899,5.9032,6.0523,6.1119,6.1119,6.1119,6.2013,6.3426,6.4365,6.4995,6.5403,6.5403,6.5403,6.5403,6.5403,6.5403,6.5701,6.7191,6.7589,6.7953,6.9401,6.9798,6.9798,6.9798,6.9798,6.9798,6.9798,6.9798,6.9798,6.9798,7.0991,7.2051,7.2216,7.3335,7.4196,7.4196,7.4196,7.4196,7.4196,7.4196,7.4196,7.4196,7.4196,7.4196,7.4196,7.4196,7.4196,7.4196,7.4196,7.4196,7.4196,7.4196,7.4196,7.4196,7.4196,7.4196,7.4196,7.4196,7.4196,7.4196,7.4196,7.4196,4.7438,4.8531,0.0,0.0,4.4375,0.0,3.9507,0.0,0.0,0.0,0.0,0.0,0.0,0.0,0.0,0.0,0.0,0.0,0.0,0.0,0.0,0.0,0.0,0.0,0.0,0.0,3.9103,4.2553,4.1626,0.0,0.0,0.0,5.1612,5.3349,5.4574,5.5686,5.6699,5.6699,5.6699,5.6699,5.6699,5.6699,5.6699,5.6699,5.6699,5.6699,5.6699,5.6865,5.7196,5.8403,5.9065,5.9396,6.0622,6.1119,6.1119,6.1119,6.2013,6.3493,6.4929,6.5403,6.5403,6.5403,6.5403,6.5403,6.5403,6.5403,6.5701,6.7191,6.7589,6.7953,6.9401,6.9798,6.9798,6.9798,6.9798,6.9798,6.9798,6.9798,6.9798,6.9798,7.0991,7.2018,7.2018,7.3235,7.4196,7.4196,7.4196,7.4196,7.4196,7.4196,7.4196,7.4196,7.4196,7.4196,7.4196,7.4196,7.4196,7.4196,7.4196,7.4196,7.4196,7.4196,7.4196,7.4196,7.4196,7.4196,7.4196,7.4196,7.4196,7.4196,7.4196,7.4196]}]]